<?xml version="1.0" encoding="UTF-8" standalone="no" ?><gpx xmlns="http://www.topografix.com/GPX/1/1" xmlns:gpxx="http://www.garmin.com/xmlschemas/WaypointExtension/v1" xmlns:gpxtrx="http://www.garmin.com/xmlschemas/GpxExtensions/v3" xmlns:gpxtpx="http://www.garmin.com/xmlschemas/TrackPointExtension/v1" creator="GPSMAP 62s" version="1.1" xmlns:xsi="http://www.w3.org/2001/XMLSchema-instance" xsi:schemaLocation="http://www.topografix.com/GPX/1/1 http://www.topografix.com/GPX/1/1/gpx.xsd http://www.garmin.com/xmlschemas/WaypointExtension/v1 http://www8.garmin.com/xmlschemas/WaypointExtensionv1.xsd http://www.garmin.com/xmlschemas/TrackPointExtension/v1 http://www.garmin.com/xmlschemas/TrackPointExtensionv1.xsd"><metadata><link href="http://www.garmin.com"><text>Garmin International</text></link><time>2011-06-16T15:11:13Z</time></metadata><trk><name>31-MAI-11 18:37:16</name><extensions><gpxtrx:TrackExtension><gpxtrx:DisplayColor>Black</gpxtrx:DisplayColor></gpxtrx:TrackExtension></extensions><trkseg><trkpt lat="50.036812" lon="6.592141"><ele>276.04</ele><time>2011-05-30T15:27:06Z</time></trkpt><trkpt lat="50.036812" lon="6.592137"><ele>275.56</ele><time>2011-05-30T15:27:41Z</time></trkpt><trkpt lat="50.036808" lon="6.592144"><ele>275.07</ele><time>2011-05-30T15:28:19Z</time></trkpt><trkpt lat="50.036812" lon="6.592146"><ele>274.59</ele><time>2011-05-30T15:28:53Z</time></trkpt><trkpt lat="50.036812" lon="6.592144"><ele>274.11</ele><time>2011-05-30T15:29:28Z</time></trkpt><trkpt lat="50.036812" lon="6.592144"><ele>275.07</ele><time>2011-05-30T15:29:58Z</time></trkpt><trkpt lat="50.036812" lon="6.592151"><ele>276.04</ele><time>2011-05-30T15:30:32Z</time></trkpt><trkpt lat="50.036816" lon="6.592155"><ele>275.56</ele><time>2011-05-30T15:31:12Z</time></trkpt><trkpt lat="50.036816" lon="6.592153"><ele>273.63</ele><time>2011-05-30T15:31:48Z</time></trkpt><trkpt lat="50.036819" lon="6.592155"><ele>274.59</ele><time>2011-05-30T15:32:31Z</time></trkpt><trkpt lat="50.036819" lon="6.592160"><ele>275.07</ele><time>2011-05-30T15:33:05Z</time></trkpt><trkpt lat="50.036819" lon="6.592156"><ele>275.07</ele><time>2011-05-30T15:33:39Z</time></trkpt><trkpt lat="50.036819" lon="6.592168"><ele>275.56</ele><time>2011-05-30T15:34:13Z</time></trkpt><trkpt lat="50.036819" lon="6.592168"><ele>275.07</ele><time>2011-05-30T15:34:43Z</time></trkpt><trkpt lat="50.036819" lon="6.592170"><ele>275.07</ele><time>2011-05-30T15:35:13Z</time></trkpt><trkpt lat="50.036819" lon="6.592170"><ele>275.56</ele><time>2011-05-30T15:35:42Z</time></trkpt><trkpt lat="50.036816" lon="6.592171"><ele>275.56</ele><time>2011-05-30T15:36:12Z</time></trkpt><trkpt lat="50.036816" lon="6.592171"><ele>275.56</ele><time>2011-05-30T15:36:36Z</time></trkpt><trkpt lat="50.036819" lon="6.592168"><ele>275.56</ele><time>2011-05-30T15:37:07Z</time></trkpt><trkpt lat="50.036819" lon="6.592170"><ele>276.04</ele><time>2011-05-30T15:37:36Z</time></trkpt><trkpt lat="50.036823" lon="6.592176"><ele>276.04</ele><time>2011-05-30T15:38:10Z</time></trkpt><trkpt lat="50.036823" lon="6.592176"><ele>275.56</ele><time>2011-05-30T15:38:41Z</time></trkpt><trkpt lat="50.036823" lon="6.592180"><ele>275.56</ele><time>2011-05-30T15:39:14Z</time></trkpt><trkpt lat="50.036823" lon="6.592182"><ele>276.04</ele><time>2011-05-30T15:39:50Z</time></trkpt><trkpt lat="50.036823" lon="6.592182"><ele>275.56</ele><time>2011-05-30T15:40:05Z</time></trkpt><trkpt lat="50.036827" lon="6.592196"><ele>276.04</ele><time>2011-05-30T15:40:46Z</time></trkpt><trkpt lat="50.036827" lon="6.592196"><ele>276.04</ele><time>2011-05-30T15:41:20Z</time></trkpt><trkpt lat="50.036827" lon="6.592209"><ele>276.04</ele><time>2011-05-30T15:41:59Z</time></trkpt><trkpt lat="50.036823" lon="6.592221"><ele>276.04</ele><time>2011-05-30T15:42:36Z</time></trkpt><trkpt lat="50.036819" lon="6.592221"><ele>276.52</ele><time>2011-05-30T15:43:05Z</time></trkpt><trkpt lat="50.036823" lon="6.592229"><ele>276.04</ele><time>2011-05-30T15:43:39Z</time></trkpt><trkpt lat="50.036827" lon="6.592239"><ele>276.52</ele><time>2011-05-30T15:44:13Z</time></trkpt><trkpt lat="50.036831" lon="6.592237"><ele>275.56</ele><time>2011-05-30T15:44:52Z</time></trkpt><trkpt lat="50.036831" lon="6.592233"><ele>275.07</ele><time>2011-05-30T15:45:29Z</time></trkpt><trkpt lat="50.036823" lon="6.592227"><ele>275.56</ele><time>2011-05-30T15:46:12Z</time></trkpt><trkpt lat="50.036827" lon="6.592223"><ele>275.07</ele><time>2011-05-30T15:46:49Z</time></trkpt><trkpt lat="50.036827" lon="6.592223"><ele>274.59</ele><time>2011-05-30T15:47:21Z</time></trkpt><trkpt lat="50.036831" lon="6.592222"><ele>276.04</ele><time>2011-05-30T15:47:53Z</time></trkpt><trkpt lat="50.036827" lon="6.592218"><ele>274.11</ele><time>2011-05-30T15:48:29Z</time></trkpt><trkpt lat="50.036827" lon="6.592216"><ele>274.59</ele><time>2011-05-30T15:49:03Z</time></trkpt><trkpt lat="50.036827" lon="6.592215"><ele>272.19</ele><time>2011-05-30T15:49:30Z</time></trkpt><trkpt lat="50.036827" lon="6.592215"><ele>275.56</ele><time>2011-05-30T15:49:37Z</time></trkpt><trkpt lat="50.036827" lon="6.592215"><ele>273.15</ele><time>2011-05-30T15:49:56Z</time></trkpt><trkpt lat="50.036827" lon="6.592215"><ele>274.11</ele><time>2011-05-30T15:50:03Z</time></trkpt><trkpt lat="50.036827" lon="6.592185"><ele>274.59</ele><time>2011-05-30T15:50:40Z</time></trkpt><trkpt lat="50.036827" lon="6.592189"><ele>274.59</ele><time>2011-05-30T15:51:09Z</time></trkpt><trkpt lat="50.036823" lon="6.592182"><ele>272.19</ele><time>2011-05-30T15:51:22Z</time></trkpt><trkpt lat="50.036823" lon="6.592182"><ele>275.07</ele><time>2011-05-30T15:51:25Z</time></trkpt><trkpt lat="50.036823" lon="6.592185"><ele>273.63</ele><time>2011-05-30T15:52:05Z</time></trkpt><trkpt lat="50.036816" lon="6.592188"><ele>274.11</ele><time>2011-05-30T15:52:40Z</time></trkpt><trkpt lat="50.036816" lon="6.592188"><ele>273.63</ele><time>2011-05-30T15:53:13Z</time></trkpt><trkpt lat="50.036888" lon="6.592216"><ele>276.52</ele><time>2011-05-30T16:24:02Z</time></trkpt><trkpt lat="50.036854" lon="6.592186"><ele>276.04</ele><time>2011-05-30T16:24:03Z</time></trkpt><trkpt lat="50.036835" lon="6.592147"><ele>277.96</ele><time>2011-05-30T16:24:12Z</time></trkpt><trkpt lat="50.036804" lon="6.592117"><ele>273.15</ele><time>2011-05-30T16:24:25Z</time></trkpt><trkpt lat="50.036804" lon="6.592122"><ele>273.15</ele><time>2011-05-30T16:24:26Z</time></trkpt><trkpt lat="50.036846" lon="6.592180"><ele>273.15</ele><time>2011-05-30T16:24:58Z</time></trkpt><trkpt lat="50.036839" lon="6.592182"><ele>278.92</ele><time>2011-05-30T16:25:15Z</time></trkpt><trkpt lat="50.036846" lon="6.592188"><ele>278.92</ele><time>2011-05-30T16:25:16Z</time></trkpt><trkpt lat="50.036896" lon="6.592212"><ele>278.44</ele><time>2011-05-30T16:25:37Z</time></trkpt><trkpt lat="50.036903" lon="6.592208"><ele>278.44</ele><time>2011-05-30T16:26:06Z</time></trkpt><trkpt lat="50.036900" lon="6.592213"><ele>279.40</ele><time>2011-05-30T16:26:34Z</time></trkpt><trkpt lat="50.036896" lon="6.592212"><ele>278.44</ele><time>2011-05-30T16:27:03Z</time></trkpt><trkpt lat="50.036896" lon="6.592212"><ele>277.48</ele><time>2011-05-30T16:27:32Z</time></trkpt><trkpt lat="50.036888" lon="6.592218"><ele>277.96</ele><time>2011-05-30T16:28:01Z</time></trkpt><trkpt lat="50.036888" lon="6.592219"><ele>277.48</ele><time>2011-05-30T16:28:19Z</time></trkpt><trkpt lat="50.037193" lon="6.591694"><ele>269.31</ele><time>2011-05-31T07:01:29Z</time></trkpt><trkpt lat="50.037647" lon="6.591232"><ele>271.23</ele><time>2011-05-31T07:01:48Z</time></trkpt><trkpt lat="50.037903" lon="6.591176"><ele>272.19</ele><time>2011-05-31T07:02:02Z</time></trkpt><trkpt lat="50.038052" lon="6.591125"><ele>273.63</ele><time>2011-05-31T07:02:12Z</time></trkpt><trkpt lat="50.038158" lon="6.591140"><ele>274.59</ele><time>2011-05-31T07:02:19Z</time></trkpt><trkpt lat="50.038311" lon="6.591128"><ele>277.00</ele><time>2011-05-31T07:02:33Z</time></trkpt><trkpt lat="50.038448" lon="6.591133"><ele>278.92</ele><time>2011-05-31T07:02:50Z</time></trkpt><trkpt lat="50.038578" lon="6.591180"><ele>281.80</ele><time>2011-05-31T07:03:08Z</time></trkpt><trkpt lat="50.038727" lon="6.591232"><ele>283.73</ele><time>2011-05-31T07:03:28Z</time></trkpt><trkpt lat="50.038864" lon="6.591310"><ele>286.61</ele><time>2011-05-31T07:03:48Z</time></trkpt><trkpt lat="50.038960" lon="6.591357"><ele>288.53</ele><time>2011-05-31T07:04:06Z</time></trkpt><trkpt lat="50.039062" lon="6.591411"><ele>290.46</ele><time>2011-05-31T07:04:23Z</time></trkpt><trkpt lat="50.039059" lon="6.591513"><ele>291.90</ele><time>2011-05-31T07:04:37Z</time></trkpt><trkpt lat="50.039059" lon="6.591513"><ele>291.90</ele><time>2011-05-31T07:04:39Z</time></trkpt><trkpt lat="50.039017" lon="6.591539"><ele>292.38</ele><time>2011-05-31T07:04:43Z</time></trkpt><trkpt lat="50.038818" lon="6.591612"><ele>294.30</ele><time>2011-05-31T07:05:00Z</time></trkpt><trkpt lat="50.038754" lon="6.591682"><ele>294.78</ele><time>2011-05-31T07:05:06Z</time></trkpt><trkpt lat="50.038754" lon="6.591761"><ele>294.78</ele><time>2011-05-31T07:05:10Z</time></trkpt><trkpt lat="50.038803" lon="6.591987"><ele>297.18</ele><time>2011-05-31T07:05:23Z</time></trkpt><trkpt lat="50.038815" lon="6.591991"><ele>296.70</ele><time>2011-05-31T07:05:24Z</time></trkpt><trkpt lat="50.038975" lon="6.592100"><ele>298.63</ele><time>2011-05-31T07:05:39Z</time></trkpt><trkpt lat="50.039135" lon="6.592228"><ele>301.51</ele><time>2011-05-31T07:05:54Z</time></trkpt><trkpt lat="50.039299" lon="6.592390"><ele>302.95</ele><time>2011-05-31T07:06:11Z</time></trkpt><trkpt lat="50.039467" lon="6.592554"><ele>305.36</ele><time>2011-05-31T07:06:26Z</time></trkpt><trkpt lat="50.039608" lon="6.592799"><ele>307.76</ele><time>2011-05-31T07:06:43Z</time></trkpt><trkpt lat="50.039680" lon="6.593008"><ele>309.68</ele><time>2011-05-31T07:06:55Z</time></trkpt><trkpt lat="50.039715" lon="6.593145"><ele>310.64</ele><time>2011-05-31T07:07:03Z</time></trkpt><trkpt lat="50.039742" lon="6.593190"><ele>310.64</ele><time>2011-05-31T07:07:07Z</time></trkpt><trkpt lat="50.039764" lon="6.593267"><ele>312.09</ele><time>2011-05-31T07:07:13Z</time></trkpt><trkpt lat="50.039776" lon="6.593242"><ele>311.60</ele><time>2011-05-31T07:07:15Z</time></trkpt><trkpt lat="50.039772" lon="6.593219"><ele>312.09</ele><time>2011-05-31T07:07:16Z</time></trkpt><trkpt lat="50.039742" lon="6.593116"><ele>310.64</ele><time>2011-05-31T07:07:19Z</time></trkpt><trkpt lat="50.039761" lon="6.593060"><ele>310.16</ele><time>2011-05-31T07:07:23Z</time></trkpt><trkpt lat="50.039742" lon="6.593198"><ele>311.12</ele><time>2011-05-31T07:07:34Z</time></trkpt><trkpt lat="50.039864" lon="6.593493"><ele>314.01</ele><time>2011-05-31T07:07:52Z</time></trkpt><trkpt lat="50.039944" lon="6.593740"><ele>315.93</ele><time>2011-05-31T07:08:06Z</time></trkpt><trkpt lat="50.040020" lon="6.593946"><ele>317.37</ele><time>2011-05-31T07:08:19Z</time></trkpt><trkpt lat="50.040020" lon="6.593960"><ele>317.85</ele><time>2011-05-31T07:08:20Z</time></trkpt><trkpt lat="50.039936" lon="6.594219"><ele>319.78</ele><time>2011-05-31T07:08:36Z</time></trkpt><trkpt lat="50.039871" lon="6.594247"><ele>320.26</ele><time>2011-05-31T07:08:41Z</time></trkpt><trkpt lat="50.039722" lon="6.593967"><ele>321.70</ele><time>2011-05-31T07:08:58Z</time></trkpt><trkpt lat="50.039577" lon="6.593675"><ele>323.62</ele><time>2011-05-31T07:09:17Z</time></trkpt><trkpt lat="50.039410" lon="6.593532"><ele>326.50</ele><time>2011-05-31T07:09:32Z</time></trkpt><trkpt lat="50.039223" lon="6.593433"><ele>328.43</ele><time>2011-05-31T07:09:48Z</time></trkpt><trkpt lat="50.039013" lon="6.593424"><ele>331.79</ele><time>2011-05-31T07:10:05Z</time></trkpt><trkpt lat="50.038857" lon="6.593429"><ele>333.23</ele><time>2011-05-31T07:10:22Z</time></trkpt><trkpt lat="50.038692" lon="6.593544"><ele>335.64</ele><time>2011-05-31T07:10:42Z</time></trkpt><trkpt lat="50.038536" lon="6.593676"><ele>336.12</ele><time>2011-05-31T07:11:01Z</time></trkpt><trkpt lat="50.038502" lon="6.593699"><ele>336.60</ele><time>2011-05-31T07:11:20Z</time></trkpt><trkpt lat="50.038502" lon="6.593699"><ele>338.52</ele><time>2011-05-31T07:11:28Z</time></trkpt><trkpt lat="50.038391" lon="6.593796"><ele>338.04</ele><time>2011-05-31T07:11:47Z</time></trkpt><trkpt lat="50.038372" lon="6.593820"><ele>339.96</ele><time>2011-05-31T07:11:50Z</time></trkpt><trkpt lat="50.038216" lon="6.593937"><ele>342.85</ele><time>2011-05-31T07:12:09Z</time></trkpt><trkpt lat="50.038067" lon="6.594069"><ele>344.29</ele><time>2011-05-31T07:12:29Z</time></trkpt><trkpt lat="50.037895" lon="6.594256"><ele>347.65</ele><time>2011-05-31T07:12:52Z</time></trkpt><trkpt lat="50.037754" lon="6.594478"><ele>350.54</ele><time>2011-05-31T07:13:15Z</time></trkpt><trkpt lat="50.037640" lon="6.594646"><ele>351.98</ele><time>2011-05-31T07:13:33Z</time></trkpt><trkpt lat="50.037537" lon="6.594823"><ele>354.38</ele><time>2011-05-31T07:13:52Z</time></trkpt><trkpt lat="50.037441" lon="6.594980"><ele>356.31</ele><time>2011-05-31T07:14:10Z</time></trkpt><trkpt lat="50.037315" lon="6.595178"><ele>358.23</ele><time>2011-05-31T07:14:29Z</time></trkpt><trkpt lat="50.037163" lon="6.595407"><ele>360.15</ele><time>2011-05-31T07:14:51Z</time></trkpt><trkpt lat="50.037064" lon="6.595576"><ele>361.59</ele><time>2011-05-31T07:15:07Z</time></trkpt><trkpt lat="50.036896" lon="6.595861"><ele>363.04</ele><time>2011-05-31T07:15:24Z</time></trkpt><trkpt lat="50.036713" lon="6.596121"><ele>364.96</ele><time>2011-05-31T07:15:41Z</time></trkpt><trkpt lat="50.036686" lon="6.596147"><ele>365.44</ele><time>2011-05-31T07:15:43Z</time></trkpt><trkpt lat="50.036636" lon="6.596258"><ele>365.92</ele><time>2011-05-31T07:15:49Z</time></trkpt><trkpt lat="50.036579" lon="6.596577"><ele>367.84</ele><time>2011-05-31T07:16:06Z</time></trkpt><trkpt lat="50.036724" lon="6.596833"><ele>368.32</ele><time>2011-05-31T07:16:21Z</time></trkpt><trkpt lat="50.036987" lon="6.597180"><ele>368.80</ele><time>2011-05-31T07:16:39Z</time></trkpt><trkpt lat="50.037025" lon="6.597213"><ele>369.28</ele><time>2011-05-31T07:16:54Z</time></trkpt><trkpt lat="50.037025" lon="6.597213"><ele>368.80</ele><time>2011-05-31T07:17:28Z</time></trkpt><trkpt lat="50.037025" lon="6.597213"><ele>369.28</ele><time>2011-05-31T07:17:55Z</time></trkpt><trkpt lat="50.037025" lon="6.597218"><ele>368.80</ele><time>2011-05-31T07:18:23Z</time></trkpt><trkpt lat="50.037022" lon="6.597218"><ele>368.80</ele><time>2011-05-31T07:18:53Z</time></trkpt><trkpt lat="50.037022" lon="6.597218"><ele>369.28</ele><time>2011-05-31T07:19:22Z</time></trkpt><trkpt lat="50.037025" lon="6.597213"><ele>368.80</ele><time>2011-05-31T07:19:56Z</time></trkpt><trkpt lat="50.037025" lon="6.597212"><ele>369.28</ele><time>2011-05-31T07:20:25Z</time></trkpt><trkpt lat="50.037025" lon="6.597211"><ele>368.80</ele><time>2011-05-31T07:20:57Z</time></trkpt><trkpt lat="50.037029" lon="6.597217"><ele>368.80</ele><time>2011-05-31T07:21:34Z</time></trkpt><trkpt lat="50.037029" lon="6.597215"><ele>368.80</ele><time>2011-05-31T07:22:10Z</time></trkpt><trkpt lat="50.037029" lon="6.597213"><ele>368.80</ele><time>2011-05-31T07:22:47Z</time></trkpt><trkpt lat="50.037029" lon="6.597213"><ele>368.80</ele><time>2011-05-31T07:23:19Z</time></trkpt><trkpt lat="50.037029" lon="6.597212"><ele>368.80</ele><time>2011-05-31T07:23:51Z</time></trkpt><trkpt lat="50.037033" lon="6.597214"><ele>369.28</ele><time>2011-05-31T07:24:26Z</time></trkpt><trkpt lat="50.037033" lon="6.597211"><ele>368.80</ele><time>2011-05-31T07:24:57Z</time></trkpt><trkpt lat="50.037037" lon="6.597214"><ele>368.80</ele><time>2011-05-31T07:25:30Z</time></trkpt><trkpt lat="50.037037" lon="6.597214"><ele>368.80</ele><time>2011-05-31T07:26:04Z</time></trkpt><trkpt lat="50.037033" lon="6.597217"><ele>369.28</ele><time>2011-05-31T07:26:33Z</time></trkpt><trkpt lat="50.037029" lon="6.597217"><ele>368.80</ele><time>2011-05-31T07:27:01Z</time></trkpt><trkpt lat="50.037022" lon="6.597216"><ele>369.28</ele><time>2011-05-31T07:27:41Z</time></trkpt><trkpt lat="50.037018" lon="6.597214"><ele>368.80</ele><time>2011-05-31T07:28:17Z</time></trkpt><trkpt lat="50.037010" lon="6.597215"><ele>369.28</ele><time>2011-05-31T07:28:57Z</time></trkpt><trkpt lat="50.037010" lon="6.597219"><ele>368.80</ele><time>2011-05-31T07:29:33Z</time></trkpt><trkpt lat="50.037014" lon="6.597226"><ele>368.80</ele><time>2011-05-31T07:30:08Z</time></trkpt><trkpt lat="50.037006" lon="6.597224"><ele>368.80</ele><time>2011-05-31T07:30:47Z</time></trkpt><trkpt lat="50.037006" lon="6.597224"><ele>369.28</ele><time>2011-05-31T07:31:24Z</time></trkpt><trkpt lat="50.036995" lon="6.597218"><ele>368.80</ele><time>2011-05-31T07:31:57Z</time></trkpt><trkpt lat="50.036991" lon="6.597220"><ele>369.28</ele><time>2011-05-31T07:32:35Z</time></trkpt><trkpt lat="50.036987" lon="6.597216"><ele>369.76</ele><time>2011-05-31T07:33:11Z</time></trkpt><trkpt lat="50.036987" lon="6.597219"><ele>369.28</ele><time>2011-05-31T07:33:46Z</time></trkpt><trkpt lat="50.036983" lon="6.597221"><ele>369.28</ele><time>2011-05-31T07:34:25Z</time></trkpt><trkpt lat="50.036980" lon="6.597218"><ele>369.28</ele><time>2011-05-31T07:35:00Z</time></trkpt><trkpt lat="50.036972" lon="6.597222"><ele>368.80</ele><time>2011-05-31T07:35:36Z</time></trkpt><trkpt lat="50.036972" lon="6.597225"><ele>369.28</ele><time>2011-05-31T07:36:13Z</time></trkpt><trkpt lat="50.036964" lon="6.597227"><ele>368.80</ele><time>2011-05-31T07:36:48Z</time></trkpt><trkpt lat="50.036964" lon="6.597227"><ele>368.80</ele><time>2011-05-31T07:37:23Z</time></trkpt><trkpt lat="50.036961" lon="6.597223"><ele>368.80</ele><time>2011-05-31T07:37:58Z</time></trkpt><trkpt lat="50.036961" lon="6.597219"><ele>368.80</ele><time>2011-05-31T07:38:37Z</time></trkpt><trkpt lat="50.036961" lon="6.597219"><ele>368.80</ele><time>2011-05-31T07:38:44Z</time></trkpt><trkpt lat="50.036945" lon="6.597202"><ele>369.28</ele><time>2011-05-31T07:39:26Z</time></trkpt><trkpt lat="50.036945" lon="6.597202"><ele>369.28</ele><time>2011-05-31T07:40:04Z</time></trkpt><trkpt lat="50.036938" lon="6.597176"><ele>369.28</ele><time>2011-05-31T07:40:46Z</time></trkpt><trkpt lat="50.036938" lon="6.597175"><ele>369.28</ele><time>2011-05-31T07:41:25Z</time></trkpt><trkpt lat="50.036938" lon="6.597175"><ele>369.28</ele><time>2011-05-31T07:41:59Z</time></trkpt><trkpt lat="50.036938" lon="6.597180"><ele>369.28</ele><time>2011-05-31T07:42:29Z</time></trkpt><trkpt lat="50.036938" lon="6.597178"><ele>369.28</ele><time>2011-05-31T07:42:59Z</time></trkpt><trkpt lat="50.036934" lon="6.597178"><ele>369.28</ele><time>2011-05-31T07:43:31Z</time></trkpt><trkpt lat="50.036934" lon="6.597178"><ele>369.76</ele><time>2011-05-31T07:44:03Z</time></trkpt><trkpt lat="50.036934" lon="6.597178"><ele>369.76</ele><time>2011-05-31T07:44:37Z</time></trkpt><trkpt lat="50.036934" lon="6.597178"><ele>369.76</ele><time>2011-05-31T07:45:12Z</time></trkpt><trkpt lat="50.036930" lon="6.597182"><ele>369.76</ele><time>2011-05-31T07:45:40Z</time></trkpt><trkpt lat="50.036922" lon="6.597185"><ele>369.28</ele><time>2011-05-31T07:46:09Z</time></trkpt><trkpt lat="50.036922" lon="6.597185"><ele>369.28</ele><time>2011-05-31T07:46:37Z</time></trkpt><trkpt lat="50.036922" lon="6.597187"><ele>369.76</ele><time>2011-05-31T07:47:08Z</time></trkpt><trkpt lat="50.036922" lon="6.597185"><ele>369.28</ele><time>2011-05-31T07:47:40Z</time></trkpt><trkpt lat="50.036922" lon="6.597187"><ele>369.28</ele><time>2011-05-31T07:48:06Z</time></trkpt><trkpt lat="50.036922" lon="6.597187"><ele>369.76</ele><time>2011-05-31T07:48:35Z</time></trkpt><trkpt lat="50.036930" lon="6.597180"><ele>365.92</ele><time>2011-05-31T07:48:51Z</time></trkpt><trkpt lat="50.036930" lon="6.597180"><ele>365.92</ele><time>2011-05-31T07:48:52Z</time></trkpt><trkpt lat="50.036930" lon="6.597180"><ele>368.80</ele><time>2011-05-31T07:48:55Z</time></trkpt><trkpt lat="50.036930" lon="6.597180"><ele>368.80</ele><time>2011-05-31T07:48:56Z</time></trkpt><trkpt lat="50.036934" lon="6.597191"><ele>368.80</ele><time>2011-05-31T07:49:27Z</time></trkpt><trkpt lat="50.036938" lon="6.597189"><ele>369.28</ele><time>2011-05-31T07:50:07Z</time></trkpt><trkpt lat="50.036938" lon="6.597201"><ele>369.28</ele><time>2011-05-31T07:50:49Z</time></trkpt><trkpt lat="50.036938" lon="6.597209"><ele>369.76</ele><time>2011-05-31T07:51:28Z</time></trkpt><trkpt lat="50.036938" lon="6.597209"><ele>370.24</ele><time>2011-05-31T07:52:03Z</time></trkpt><trkpt lat="50.036945" lon="6.597216"><ele>370.24</ele><time>2011-05-31T07:52:40Z</time></trkpt><trkpt lat="50.036945" lon="6.597220"><ele>369.76</ele><time>2011-05-31T07:53:16Z</time></trkpt><trkpt lat="50.036945" lon="6.597228"><ele>369.76</ele><time>2011-05-31T07:53:55Z</time></trkpt><trkpt lat="50.036942" lon="6.597230"><ele>369.76</ele><time>2011-05-31T07:54:27Z</time></trkpt><trkpt lat="50.036945" lon="6.597235"><ele>370.24</ele><time>2011-05-31T07:55:02Z</time></trkpt><trkpt lat="50.036942" lon="6.597234"><ele>370.24</ele><time>2011-05-31T07:55:38Z</time></trkpt><trkpt lat="50.036942" lon="6.597227"><ele>369.28</ele><time>2011-05-31T07:56:14Z</time></trkpt><trkpt lat="50.036942" lon="6.597228"><ele>369.76</ele><time>2011-05-31T07:56:53Z</time></trkpt><trkpt lat="50.036949" lon="6.597228"><ele>369.28</ele><time>2011-05-31T07:57:33Z</time></trkpt><trkpt lat="50.036953" lon="6.597226"><ele>369.76</ele><time>2011-05-31T07:58:15Z</time></trkpt><trkpt lat="50.036961" lon="6.597215"><ele>368.80</ele><time>2011-05-31T07:58:53Z</time></trkpt><trkpt lat="50.036964" lon="6.597203"><ele>368.80</ele><time>2011-05-31T07:59:30Z</time></trkpt><trkpt lat="50.036964" lon="6.597196"><ele>368.80</ele><time>2011-05-31T08:00:07Z</time></trkpt><trkpt lat="50.036964" lon="6.597196"><ele>368.80</ele><time>2011-05-31T08:00:42Z</time></trkpt><trkpt lat="50.036964" lon="6.597196"><ele>368.80</ele><time>2011-05-31T08:00:44Z</time></trkpt><trkpt lat="50.036968" lon="6.597181"><ele>368.32</ele><time>2011-05-31T08:01:23Z</time></trkpt><trkpt lat="50.036968" lon="6.597175"><ele>367.36</ele><time>2011-05-31T08:01:59Z</time></trkpt><trkpt lat="50.036972" lon="6.597174"><ele>367.36</ele><time>2011-05-31T08:02:29Z</time></trkpt><trkpt lat="50.036976" lon="6.597169"><ele>367.84</ele><time>2011-05-31T08:03:02Z</time></trkpt><trkpt lat="50.036983" lon="6.597154"><ele>368.80</ele><time>2011-05-31T08:03:33Z</time></trkpt><trkpt lat="50.036983" lon="6.597144"><ele>369.28</ele><time>2011-05-31T08:04:06Z</time></trkpt><trkpt lat="50.036983" lon="6.597144"><ele>369.28</ele><time>2011-05-31T08:04:39Z</time></trkpt><trkpt lat="50.036983" lon="6.597143"><ele>369.28</ele><time>2011-05-31T08:05:17Z</time></trkpt><trkpt lat="50.036987" lon="6.597142"><ele>368.80</ele><time>2011-05-31T08:05:50Z</time></trkpt><trkpt lat="50.036991" lon="6.597134"><ele>369.76</ele><time>2011-05-31T08:06:27Z</time></trkpt><trkpt lat="50.036987" lon="6.597135"><ele>369.28</ele><time>2011-05-31T08:06:55Z</time></trkpt><trkpt lat="50.036987" lon="6.597136"><ele>369.76</ele><time>2011-05-31T08:07:26Z</time></trkpt><trkpt lat="50.036987" lon="6.597136"><ele>369.28</ele><time>2011-05-31T08:07:54Z</time></trkpt><trkpt lat="50.036987" lon="6.597138"><ele>369.28</ele><time>2011-05-31T08:08:28Z</time></trkpt><trkpt lat="50.036991" lon="6.597139"><ele>369.28</ele><time>2011-05-31T08:09:05Z</time></trkpt><trkpt lat="50.036995" lon="6.597140"><ele>369.28</ele><time>2011-05-31T08:09:42Z</time></trkpt><trkpt lat="50.036995" lon="6.597142"><ele>369.28</ele><time>2011-05-31T08:10:21Z</time></trkpt><trkpt lat="50.036999" lon="6.597150"><ele>369.28</ele><time>2011-05-31T08:10:52Z</time></trkpt><trkpt lat="50.036999" lon="6.597150"><ele>369.28</ele><time>2011-05-31T08:11:23Z</time></trkpt><trkpt lat="50.036995" lon="6.597150"><ele>369.28</ele><time>2011-05-31T08:11:56Z</time></trkpt><trkpt lat="50.036999" lon="6.597148"><ele>369.76</ele><time>2011-05-31T08:12:28Z</time></trkpt><trkpt lat="50.036999" lon="6.597148"><ele>369.28</ele><time>2011-05-31T08:13:02Z</time></trkpt><trkpt lat="50.036995" lon="6.597150"><ele>369.28</ele><time>2011-05-31T08:13:39Z</time></trkpt><trkpt lat="50.036995" lon="6.597153"><ele>369.28</ele><time>2011-05-31T08:14:19Z</time></trkpt><trkpt lat="50.036995" lon="6.597164"><ele>369.28</ele><time>2011-05-31T08:14:54Z</time></trkpt><trkpt lat="50.036999" lon="6.597167"><ele>368.80</ele><time>2011-05-31T08:15:30Z</time></trkpt><trkpt lat="50.036999" lon="6.597170"><ele>368.32</ele><time>2011-05-31T08:16:09Z</time></trkpt><trkpt lat="50.037003" lon="6.597162"><ele>368.32</ele><time>2011-05-31T08:16:47Z</time></trkpt><trkpt lat="50.037003" lon="6.597161"><ele>368.32</ele><time>2011-05-31T08:17:28Z</time></trkpt><trkpt lat="50.037003" lon="6.597161"><ele>367.84</ele><time>2011-05-31T08:18:02Z</time></trkpt><trkpt lat="50.037003" lon="6.597162"><ele>367.36</ele><time>2011-05-31T08:18:35Z</time></trkpt><trkpt lat="50.036999" lon="6.597157"><ele>367.84</ele><time>2011-05-31T08:19:13Z</time></trkpt><trkpt lat="50.036999" lon="6.597158"><ele>367.36</ele><time>2011-05-31T08:19:47Z</time></trkpt><trkpt lat="50.036999" lon="6.597156"><ele>367.36</ele><time>2011-05-31T08:20:23Z</time></trkpt><trkpt lat="50.036995" lon="6.597154"><ele>367.36</ele><time>2011-05-31T08:20:55Z</time></trkpt><trkpt lat="50.036995" lon="6.597154"><ele>367.84</ele><time>2011-05-31T08:21:23Z</time></trkpt><trkpt lat="50.036999" lon="6.597145"><ele>367.36</ele><time>2011-05-31T08:21:50Z</time></trkpt><trkpt lat="50.037010" lon="6.597137"><ele>367.84</ele><time>2011-05-31T08:22:24Z</time></trkpt><trkpt lat="50.037014" lon="6.597136"><ele>368.80</ele><time>2011-05-31T08:23:02Z</time></trkpt><trkpt lat="50.037014" lon="6.597137"><ele>368.80</ele><time>2011-05-31T08:23:39Z</time></trkpt><trkpt lat="50.037022" lon="6.597132"><ele>369.28</ele><time>2011-05-31T08:24:15Z</time></trkpt><trkpt lat="50.037014" lon="6.597135"><ele>369.28</ele><time>2011-05-31T08:24:50Z</time></trkpt><trkpt lat="50.037014" lon="6.597135"><ele>370.24</ele><time>2011-05-31T08:25:23Z</time></trkpt><trkpt lat="50.037014" lon="6.597135"><ele>370.73</ele><time>2011-05-31T08:25:57Z</time></trkpt><trkpt lat="50.037014" lon="6.597142"><ele>371.21</ele><time>2011-05-31T08:26:31Z</time></trkpt><trkpt lat="50.037010" lon="6.597148"><ele>371.69</ele><time>2011-05-31T08:27:05Z</time></trkpt><trkpt lat="50.037014" lon="6.597151"><ele>371.69</ele><time>2011-05-31T08:27:36Z</time></trkpt><trkpt lat="50.037014" lon="6.597157"><ele>371.69</ele><time>2011-05-31T08:28:07Z</time></trkpt><trkpt lat="50.037014" lon="6.597157"><ele>371.69</ele><time>2011-05-31T08:28:42Z</time></trkpt><trkpt lat="50.037014" lon="6.597159"><ele>371.69</ele><time>2011-05-31T08:29:23Z</time></trkpt><trkpt lat="50.037018" lon="6.597158"><ele>371.69</ele><time>2011-05-31T08:30:00Z</time></trkpt><trkpt lat="50.037014" lon="6.597159"><ele>371.69</ele><time>2011-05-31T08:30:35Z</time></trkpt><trkpt lat="50.037010" lon="6.597148"><ele>372.17</ele><time>2011-05-31T08:31:11Z</time></trkpt><trkpt lat="50.037018" lon="6.597149"><ele>371.69</ele><time>2011-05-31T08:31:47Z</time></trkpt><trkpt lat="50.037022" lon="6.597148"><ele>372.65</ele><time>2011-05-31T08:32:22Z</time></trkpt><trkpt lat="50.037025" lon="6.597142"><ele>372.65</ele><time>2011-05-31T08:32:55Z</time></trkpt><trkpt lat="50.037022" lon="6.597139"><ele>373.13</ele><time>2011-05-31T08:33:26Z</time></trkpt><trkpt lat="50.037022" lon="6.597139"><ele>373.13</ele><time>2011-05-31T08:33:56Z</time></trkpt><trkpt lat="50.037029" lon="6.597137"><ele>372.65</ele><time>2011-05-31T08:34:26Z</time></trkpt><trkpt lat="50.037033" lon="6.597136"><ele>372.65</ele><time>2011-05-31T08:34:56Z</time></trkpt><trkpt lat="50.037037" lon="6.597132"><ele>372.65</ele><time>2011-05-31T08:35:28Z</time></trkpt><trkpt lat="50.037037" lon="6.597132"><ele>372.17</ele><time>2011-05-31T08:36:00Z</time></trkpt><trkpt lat="50.037041" lon="6.597133"><ele>371.21</ele><time>2011-05-31T08:36:33Z</time></trkpt><trkpt lat="50.037041" lon="6.597139"><ele>371.69</ele><time>2011-05-31T08:37:03Z</time></trkpt><trkpt lat="50.037037" lon="6.597144"><ele>371.69</ele><time>2011-05-31T08:37:39Z</time></trkpt><trkpt lat="50.037033" lon="6.597145"><ele>371.21</ele><time>2011-05-31T08:38:09Z</time></trkpt><trkpt lat="50.037033" lon="6.597145"><ele>370.73</ele><time>2011-05-31T08:38:43Z</time></trkpt><trkpt lat="50.037025" lon="6.597157"><ele>371.21</ele><time>2011-05-31T08:39:16Z</time></trkpt><trkpt lat="50.037025" lon="6.597173"><ele>370.73</ele><time>2011-05-31T08:39:49Z</time></trkpt><trkpt lat="50.037025" lon="6.597179"><ele>370.73</ele><time>2011-05-31T08:40:25Z</time></trkpt><trkpt lat="50.037029" lon="6.597176"><ele>371.21</ele><time>2011-05-31T08:40:58Z</time></trkpt><trkpt lat="50.037029" lon="6.597176"><ele>370.73</ele><time>2011-05-31T08:41:35Z</time></trkpt><trkpt lat="50.037025" lon="6.597179"><ele>371.21</ele><time>2011-05-31T08:42:06Z</time></trkpt><trkpt lat="50.037025" lon="6.597179"><ele>371.21</ele><time>2011-05-31T08:42:37Z</time></trkpt><trkpt lat="50.037025" lon="6.597180"><ele>371.21</ele><time>2011-05-31T08:43:09Z</time></trkpt><trkpt lat="50.037025" lon="6.597174"><ele>370.73</ele><time>2011-05-31T08:43:46Z</time></trkpt><trkpt lat="50.037025" lon="6.597167"><ele>371.21</ele><time>2011-05-31T08:44:21Z</time></trkpt><trkpt lat="50.037025" lon="6.597166"><ele>371.21</ele><time>2011-05-31T08:44:55Z</time></trkpt><trkpt lat="50.037029" lon="6.597167"><ele>371.21</ele><time>2011-05-31T08:45:26Z</time></trkpt><trkpt lat="50.037029" lon="6.597167"><ele>371.21</ele><time>2011-05-31T08:45:59Z</time></trkpt><trkpt lat="50.037029" lon="6.597172"><ele>371.21</ele><time>2011-05-31T08:46:37Z</time></trkpt><trkpt lat="50.037033" lon="6.597162"><ele>371.21</ele><time>2011-05-31T08:47:13Z</time></trkpt><trkpt lat="50.037029" lon="6.597163"><ele>371.21</ele><time>2011-05-31T08:47:46Z</time></trkpt><trkpt lat="50.037025" lon="6.597168"><ele>371.21</ele><time>2011-05-31T08:48:16Z</time></trkpt><trkpt lat="50.037022" lon="6.597169"><ele>370.73</ele><time>2011-05-31T08:48:51Z</time></trkpt><trkpt lat="50.037022" lon="6.597169"><ele>371.21</ele><time>2011-05-31T08:49:24Z</time></trkpt><trkpt lat="50.037022" lon="6.597171"><ele>371.21</ele><time>2011-05-31T08:50:00Z</time></trkpt><trkpt lat="50.037025" lon="6.597169"><ele>371.21</ele><time>2011-05-31T08:50:41Z</time></trkpt><trkpt lat="50.037025" lon="6.597170"><ele>371.21</ele><time>2011-05-31T08:51:22Z</time></trkpt><trkpt lat="50.037025" lon="6.597173"><ele>371.21</ele><time>2011-05-31T08:51:58Z</time></trkpt><trkpt lat="50.037029" lon="6.597174"><ele>371.21</ele><time>2011-05-31T08:52:30Z</time></trkpt><trkpt lat="50.037029" lon="6.597178"><ele>371.21</ele><time>2011-05-31T08:53:04Z</time></trkpt><trkpt lat="50.037029" lon="6.597177"><ele>371.21</ele><time>2011-05-31T08:53:37Z</time></trkpt><trkpt lat="50.037025" lon="6.597182"><ele>371.69</ele><time>2011-05-31T08:54:11Z</time></trkpt><trkpt lat="50.037029" lon="6.597180"><ele>371.21</ele><time>2011-05-31T08:54:47Z</time></trkpt><trkpt lat="50.037029" lon="6.597180"><ele>371.69</ele><time>2011-05-31T08:55:21Z</time></trkpt><trkpt lat="50.037029" lon="6.597178"><ele>371.69</ele><time>2011-05-31T08:55:56Z</time></trkpt><trkpt lat="50.037029" lon="6.597181"><ele>371.69</ele><time>2011-05-31T08:56:37Z</time></trkpt><trkpt lat="50.037033" lon="6.597182"><ele>371.69</ele><time>2011-05-31T08:57:18Z</time></trkpt><trkpt lat="50.037037" lon="6.597184"><ele>371.69</ele><time>2011-05-31T08:58:02Z</time></trkpt><trkpt lat="50.037041" lon="6.597184"><ele>372.17</ele><time>2011-05-31T08:58:44Z</time></trkpt><trkpt lat="50.037041" lon="6.597175"><ele>372.17</ele><time>2011-05-31T08:59:25Z</time></trkpt><trkpt lat="50.037041" lon="6.597175"><ele>372.17</ele><time>2011-05-31T08:59:59Z</time></trkpt><trkpt lat="50.037037" lon="6.597178"><ele>371.69</ele><time>2011-05-31T09:00:34Z</time></trkpt><trkpt lat="50.037037" lon="6.597182"><ele>372.17</ele><time>2011-05-31T09:01:08Z</time></trkpt><trkpt lat="50.037033" lon="6.597182"><ele>372.17</ele><time>2011-05-31T09:01:41Z</time></trkpt><trkpt lat="50.037029" lon="6.597182"><ele>372.17</ele><time>2011-05-31T09:02:15Z</time></trkpt><trkpt lat="50.037029" lon="6.597178"><ele>372.17</ele><time>2011-05-31T09:02:47Z</time></trkpt><trkpt lat="50.037029" lon="6.597178"><ele>372.17</ele><time>2011-05-31T09:03:19Z</time></trkpt><trkpt lat="50.037025" lon="6.597176"><ele>371.69</ele><time>2011-05-31T09:03:50Z</time></trkpt><trkpt lat="50.037018" lon="6.597172"><ele>371.69</ele><time>2011-05-31T09:04:21Z</time></trkpt><trkpt lat="50.037018" lon="6.597171"><ele>371.69</ele><time>2011-05-31T09:04:59Z</time></trkpt><trkpt lat="50.037014" lon="6.597169"><ele>371.69</ele><time>2011-05-31T09:05:34Z</time></trkpt><trkpt lat="50.037003" lon="6.597158"><ele>372.17</ele><time>2011-05-31T09:06:11Z</time></trkpt><trkpt lat="50.036999" lon="6.597152"><ele>371.69</ele><time>2011-05-31T09:06:50Z</time></trkpt><trkpt lat="50.037003" lon="6.597150"><ele>371.69</ele><time>2011-05-31T09:07:30Z</time></trkpt><trkpt lat="50.037006" lon="6.597153"><ele>371.21</ele><time>2011-05-31T09:08:06Z</time></trkpt><trkpt lat="50.037006" lon="6.597153"><ele>370.73</ele><time>2011-05-31T09:08:37Z</time></trkpt><trkpt lat="50.037003" lon="6.597147"><ele>371.21</ele><time>2011-05-31T09:09:15Z</time></trkpt><trkpt lat="50.037006" lon="6.597163"><ele>370.73</ele><time>2011-05-31T09:09:48Z</time></trkpt><trkpt lat="50.037003" lon="6.597159"><ele>370.73</ele><time>2011-05-31T09:10:21Z</time></trkpt><trkpt lat="50.036999" lon="6.597162"><ele>370.73</ele><time>2011-05-31T09:10:54Z</time></trkpt><trkpt lat="50.036995" lon="6.597158"><ele>370.73</ele><time>2011-05-31T09:11:27Z</time></trkpt><trkpt lat="50.036995" lon="6.597158"><ele>370.24</ele><time>2011-05-31T09:11:58Z</time></trkpt><trkpt lat="50.036999" lon="6.597147"><ele>370.24</ele><time>2011-05-31T09:12:28Z</time></trkpt><trkpt lat="50.037003" lon="6.597145"><ele>370.73</ele><time>2011-05-31T09:13:00Z</time></trkpt><trkpt lat="50.037006" lon="6.597135"><ele>370.24</ele><time>2011-05-31T09:13:35Z</time></trkpt><trkpt lat="50.037006" lon="6.597129"><ele>370.73</ele><time>2011-05-31T09:14:08Z</time></trkpt><trkpt lat="50.037003" lon="6.597132"><ele>370.73</ele><time>2011-05-31T09:14:45Z</time></trkpt><trkpt lat="50.037003" lon="6.597132"><ele>371.21</ele><time>2011-05-31T09:15:20Z</time></trkpt><trkpt lat="50.037003" lon="6.597143"><ele>371.21</ele><time>2011-05-31T09:15:59Z</time></trkpt><trkpt lat="50.037006" lon="6.597147"><ele>371.21</ele><time>2011-05-31T09:16:40Z</time></trkpt><trkpt lat="50.037010" lon="6.597142"><ele>371.21</ele><time>2011-05-31T09:17:24Z</time></trkpt><trkpt lat="50.037014" lon="6.597135"><ele>371.21</ele><time>2011-05-31T09:18:02Z</time></trkpt><trkpt lat="50.037014" lon="6.597133"><ele>371.69</ele><time>2011-05-31T09:18:39Z</time></trkpt><trkpt lat="50.037022" lon="6.597132"><ele>371.21</ele><time>2011-05-31T09:19:17Z</time></trkpt><trkpt lat="50.037025" lon="6.597131"><ele>371.69</ele><time>2011-05-31T09:19:55Z</time></trkpt><trkpt lat="50.037025" lon="6.597137"><ele>371.69</ele><time>2011-05-31T09:20:37Z</time></trkpt><trkpt lat="50.037022" lon="6.597143"><ele>371.69</ele><time>2011-05-31T09:21:16Z</time></trkpt><trkpt lat="50.037018" lon="6.597147"><ele>371.69</ele><time>2011-05-31T09:21:55Z</time></trkpt><trkpt lat="50.037022" lon="6.597147"><ele>371.21</ele><time>2011-05-31T09:22:31Z</time></trkpt><trkpt lat="50.037022" lon="6.597147"><ele>371.21</ele><time>2011-05-31T09:23:10Z</time></trkpt><trkpt lat="50.037018" lon="6.597150"><ele>371.69</ele><time>2011-05-31T09:23:43Z</time></trkpt><trkpt lat="50.037022" lon="6.597149"><ele>371.21</ele><time>2011-05-31T09:24:17Z</time></trkpt><trkpt lat="50.037022" lon="6.597147"><ele>370.73</ele><time>2011-05-31T09:24:51Z</time></trkpt><trkpt lat="50.037022" lon="6.597146"><ele>370.73</ele><time>2011-05-31T09:25:28Z</time></trkpt><trkpt lat="50.037022" lon="6.597146"><ele>370.73</ele><time>2011-05-31T09:26:03Z</time></trkpt><trkpt lat="50.037022" lon="6.597143"><ele>371.21</ele><time>2011-05-31T09:26:36Z</time></trkpt><trkpt lat="50.037025" lon="6.597144"><ele>371.21</ele><time>2011-05-31T09:27:13Z</time></trkpt><trkpt lat="50.037022" lon="6.597150"><ele>370.73</ele><time>2011-05-31T09:27:53Z</time></trkpt><trkpt lat="50.037022" lon="6.597154"><ele>371.21</ele><time>2011-05-31T09:28:32Z</time></trkpt><trkpt lat="50.037022" lon="6.597155"><ele>371.21</ele><time>2011-05-31T09:29:11Z</time></trkpt><trkpt lat="50.037022" lon="6.597158"><ele>371.21</ele><time>2011-05-31T09:29:48Z</time></trkpt><trkpt lat="50.037022" lon="6.597168"><ele>371.21</ele><time>2011-05-31T09:30:26Z</time></trkpt><trkpt lat="50.037025" lon="6.597170"><ele>371.21</ele><time>2011-05-31T09:31:02Z</time></trkpt><trkpt lat="50.037022" lon="6.597180"><ele>371.69</ele><time>2011-05-31T09:31:44Z</time></trkpt><trkpt lat="50.037018" lon="6.597171"><ele>371.21</ele><time>2011-05-31T09:32:23Z</time></trkpt><trkpt lat="50.037014" lon="6.597158"><ele>371.21</ele><time>2011-05-31T09:33:03Z</time></trkpt><trkpt lat="50.037014" lon="6.597157"><ele>371.69</ele><time>2011-05-31T09:33:44Z</time></trkpt><trkpt lat="50.037018" lon="6.597153"><ele>371.69</ele><time>2011-05-31T09:34:22Z</time></trkpt><trkpt lat="50.037022" lon="6.597153"><ele>371.69</ele><time>2011-05-31T09:35:00Z</time></trkpt><trkpt lat="50.037018" lon="6.597154"><ele>371.69</ele><time>2011-05-31T09:35:36Z</time></trkpt><trkpt lat="50.037022" lon="6.597155"><ele>371.21</ele><time>2011-05-31T09:36:14Z</time></trkpt><trkpt lat="50.037018" lon="6.597152"><ele>371.21</ele><time>2011-05-31T09:36:49Z</time></trkpt><trkpt lat="50.037014" lon="6.597152"><ele>371.69</ele><time>2011-05-31T09:37:25Z</time></trkpt><trkpt lat="50.037014" lon="6.597152"><ele>371.21</ele><time>2011-05-31T09:37:55Z</time></trkpt><trkpt lat="50.037010" lon="6.597149"><ele>371.21</ele><time>2011-05-31T09:38:25Z</time></trkpt><trkpt lat="50.037010" lon="6.597150"><ele>371.69</ele><time>2011-05-31T09:38:53Z</time></trkpt><trkpt lat="50.037010" lon="6.597150"><ele>370.73</ele><time>2011-05-31T09:39:21Z</time></trkpt><trkpt lat="50.037010" lon="6.597153"><ele>371.21</ele><time>2011-05-31T09:39:52Z</time></trkpt><trkpt lat="50.037014" lon="6.597134"><ele>371.69</ele><time>2011-05-31T09:40:05Z</time></trkpt><trkpt lat="50.036987" lon="6.597096"><ele>371.21</ele><time>2011-05-31T09:40:07Z</time></trkpt><trkpt lat="50.036648" lon="6.596652"><ele>370.24</ele><time>2011-05-31T09:40:21Z</time></trkpt><trkpt lat="50.036442" lon="6.596511"><ele>369.76</ele><time>2011-05-31T09:40:31Z</time></trkpt><trkpt lat="50.036255" lon="6.596843"><ele>371.69</ele><time>2011-05-31T09:40:45Z</time></trkpt><trkpt lat="50.036034" lon="6.597228"><ele>374.09</ele><time>2011-05-31T09:41:03Z</time></trkpt><trkpt lat="50.035809" lon="6.597404"><ele>375.53</ele><time>2011-05-31T09:41:18Z</time></trkpt><trkpt lat="50.035725" lon="6.597678"><ele>376.97</ele><time>2011-05-31T09:41:30Z</time></trkpt><trkpt lat="50.035564" lon="6.597949"><ele>378.90</ele><time>2011-05-31T09:41:46Z</time></trkpt><trkpt lat="50.035370" lon="6.598252"><ele>380.82</ele><time>2011-05-31T09:42:05Z</time></trkpt><trkpt lat="50.035175" lon="6.598547"><ele>382.26</ele><time>2011-05-31T09:42:23Z</time></trkpt><trkpt lat="50.035011" lon="6.598781"><ele>384.66</ele><time>2011-05-31T09:42:39Z</time></trkpt><trkpt lat="50.034847" lon="6.599005"><ele>386.59</ele><time>2011-05-31T09:42:54Z</time></trkpt><trkpt lat="50.034695" lon="6.599228"><ele>388.03</ele><time>2011-05-31T09:43:10Z</time></trkpt><trkpt lat="50.034546" lon="6.599426"><ele>389.47</ele><time>2011-05-31T09:43:26Z</time></trkpt><trkpt lat="50.034382" lon="6.599606"><ele>391.39</ele><time>2011-05-31T09:43:42Z</time></trkpt><trkpt lat="50.034233" lon="6.599774"><ele>392.84</ele><time>2011-05-31T09:43:56Z</time></trkpt><trkpt lat="50.034180" lon="6.599823"><ele>394.28</ele><time>2011-05-31T09:44:01Z</time></trkpt><trkpt lat="50.034000" lon="6.600003"><ele>395.24</ele><time>2011-05-31T09:44:18Z</time></trkpt><trkpt lat="50.033810" lon="6.600171"><ele>397.64</ele><time>2011-05-31T09:44:35Z</time></trkpt><trkpt lat="50.033649" lon="6.600301"><ele>399.57</ele><time>2011-05-31T09:44:49Z</time></trkpt><trkpt lat="50.033443" lon="6.600447"><ele>401.49</ele><time>2011-05-31T09:45:07Z</time></trkpt><trkpt lat="50.033257" lon="6.600585"><ele>403.41</ele><time>2011-05-31T09:45:24Z</time></trkpt><trkpt lat="50.033031" lon="6.600696"><ele>404.85</ele><time>2011-05-31T09:45:42Z</time></trkpt><trkpt lat="50.033001" lon="6.600723"><ele>406.29</ele><time>2011-05-31T09:45:45Z</time></trkpt><trkpt lat="50.032791" lon="6.600849"><ele>407.74</ele><time>2011-05-31T09:46:03Z</time></trkpt><trkpt lat="50.032745" lon="6.600873"><ele>406.77</ele><time>2011-05-31T09:46:07Z</time></trkpt><trkpt lat="50.032658" lon="6.600897"><ele>408.70</ele><time>2011-05-31T09:46:14Z</time></trkpt><trkpt lat="50.032482" lon="6.600980"><ele>410.62</ele><time>2011-05-31T09:46:29Z</time></trkpt><trkpt lat="50.032276" lon="6.601057"><ele>412.54</ele><time>2011-05-31T09:46:45Z</time></trkpt><trkpt lat="50.032078" lon="6.601146"><ele>414.47</ele><time>2011-05-31T09:47:01Z</time></trkpt><trkpt lat="50.031837" lon="6.601218"><ele>416.39</ele><time>2011-05-31T09:47:19Z</time></trkpt><trkpt lat="50.031570" lon="6.601318"><ele>417.83</ele><time>2011-05-31T09:47:38Z</time></trkpt><trkpt lat="50.031292" lon="6.601436"><ele>419.27</ele><time>2011-05-31T09:47:55Z</time></trkpt><trkpt lat="50.031166" lon="6.601481"><ele>417.83</ele><time>2011-05-31T09:48:01Z</time></trkpt><trkpt lat="50.030785" lon="6.601635"><ele>419.75</ele><time>2011-05-31T09:48:17Z</time></trkpt><trkpt lat="50.030087" lon="6.601905"><ele>420.71</ele><time>2011-05-31T09:48:39Z</time></trkpt><trkpt lat="50.029350" lon="6.602197"><ele>421.68</ele><time>2011-05-31T09:49:01Z</time></trkpt><trkpt lat="50.028580" lon="6.602564"><ele>421.68</ele><time>2011-05-31T09:49:21Z</time></trkpt><trkpt lat="50.027645" lon="6.603115"><ele>419.27</ele><time>2011-05-31T09:49:41Z</time></trkpt><trkpt lat="50.026791" lon="6.603711"><ele>418.31</ele><time>2011-05-31T09:49:59Z</time></trkpt><trkpt lat="50.026024" lon="6.604253"><ele>420.23</ele><time>2011-05-31T09:50:18Z</time></trkpt><trkpt lat="50.025448" lon="6.604495"><ele>420.71</ele><time>2011-05-31T09:50:35Z</time></trkpt><trkpt lat="50.025330" lon="6.603891"><ele>420.71</ele><time>2011-05-31T09:50:46Z</time></trkpt><trkpt lat="50.025154" lon="6.602627"><ele>417.83</ele><time>2011-05-31T09:51:04Z</time></trkpt><trkpt lat="50.024952" lon="6.601249"><ele>414.95</ele><time>2011-05-31T09:51:21Z</time></trkpt><trkpt lat="50.024757" lon="6.599950"><ele>411.58</ele><time>2011-05-31T09:51:36Z</time></trkpt><trkpt lat="50.024551" lon="6.598364"><ele>409.18</ele><time>2011-05-31T09:51:53Z</time></trkpt><trkpt lat="50.024540" lon="6.598276"><ele>408.70</ele><time>2011-05-31T09:51:54Z</time></trkpt><trkpt lat="50.024330" lon="6.596546"><ele>406.29</ele><time>2011-05-31T09:52:12Z</time></trkpt><trkpt lat="50.024292" lon="6.595429"><ele>402.93</ele><time>2011-05-31T09:52:23Z</time></trkpt><trkpt lat="50.024399" lon="6.593985"><ele>400.05</ele><time>2011-05-31T09:52:37Z</time></trkpt><trkpt lat="50.024456" lon="6.593042"><ele>396.20</ele><time>2011-05-31T09:52:46Z</time></trkpt><trkpt lat="50.024467" lon="6.592685"><ele>394.76</ele><time>2011-05-31T09:52:49Z</time></trkpt><trkpt lat="50.024460" lon="6.591341"><ele>391.87</ele><time>2011-05-31T09:53:00Z</time></trkpt><trkpt lat="50.024467" lon="6.590511"><ele>388.51</ele><time>2011-05-31T09:53:07Z</time></trkpt><trkpt lat="50.024540" lon="6.589530"><ele>385.63</ele><time>2011-05-31T09:53:15Z</time></trkpt><trkpt lat="50.024712" lon="6.588448"><ele>382.26</ele><time>2011-05-31T09:53:24Z</time></trkpt><trkpt lat="50.024757" lon="6.588217"><ele>381.78</ele><time>2011-05-31T09:53:26Z</time></trkpt><trkpt lat="50.024792" lon="6.588110"><ele>381.78</ele><time>2011-05-31T09:53:27Z</time></trkpt><trkpt lat="50.024834" lon="6.588007"><ele>380.82</ele><time>2011-05-31T09:53:28Z</time></trkpt><trkpt lat="50.025040" lon="6.587590"><ele>377.94</ele><time>2011-05-31T09:53:32Z</time></trkpt><trkpt lat="50.025291" lon="6.587143"><ele>374.09</ele><time>2011-05-31T09:53:36Z</time></trkpt><trkpt lat="50.025494" lon="6.586806"><ele>371.21</ele><time>2011-05-31T09:53:39Z</time></trkpt><trkpt lat="50.025673" lon="6.586528"><ele>368.32</ele><time>2011-05-31T09:53:42Z</time></trkpt><trkpt lat="50.025837" lon="6.586277"><ele>366.40</ele><time>2011-05-31T09:53:45Z</time></trkpt><trkpt lat="50.025990" lon="6.585984"><ele>364.00</ele><time>2011-05-31T09:53:48Z</time></trkpt><trkpt lat="50.026020" lon="6.585870"><ele>362.55</ele><time>2011-05-31T09:53:49Z</time></trkpt><trkpt lat="50.026035" lon="6.585750"><ele>362.55</ele><time>2011-05-31T09:53:50Z</time></trkpt><trkpt lat="50.026047" lon="6.585625"><ele>362.07</ele><time>2011-05-31T09:53:51Z</time></trkpt><trkpt lat="50.026051" lon="6.585494"><ele>361.11</ele><time>2011-05-31T09:53:52Z</time></trkpt><trkpt lat="50.026058" lon="6.585358"><ele>360.15</ele><time>2011-05-31T09:53:53Z</time></trkpt><trkpt lat="50.026085" lon="6.585087"><ele>359.19</ele><time>2011-05-31T09:53:55Z</time></trkpt><trkpt lat="50.026100" lon="6.584851"><ele>358.23</ele><time>2011-05-31T09:53:57Z</time></trkpt><trkpt lat="50.026093" lon="6.584743"><ele>357.75</ele><time>2011-05-31T09:53:58Z</time></trkpt><trkpt lat="50.026070" lon="6.584642"><ele>357.75</ele><time>2011-05-31T09:53:59Z</time></trkpt><trkpt lat="50.026035" lon="6.584548"><ele>357.27</ele><time>2011-05-31T09:54:00Z</time></trkpt><trkpt lat="50.025990" lon="6.584455"><ele>357.27</ele><time>2011-05-31T09:54:01Z</time></trkpt><trkpt lat="50.025944" lon="6.584362"><ele>356.31</ele><time>2011-05-31T09:54:02Z</time></trkpt><trkpt lat="50.025799" lon="6.584079"><ele>354.86</ele><time>2011-05-31T09:54:05Z</time></trkpt><trkpt lat="50.025356" lon="6.583187"><ele>354.38</ele><time>2011-05-31T09:54:16Z</time></trkpt><trkpt lat="50.025192" lon="6.582920"><ele>352.46</ele><time>2011-05-31T09:54:20Z</time></trkpt><trkpt lat="50.024990" lon="6.582705"><ele>351.02</ele><time>2011-05-31T09:54:24Z</time></trkpt><trkpt lat="50.024788" lon="6.582574"><ele>351.50</ele><time>2011-05-31T09:54:28Z</time></trkpt><trkpt lat="50.024738" lon="6.582526"><ele>351.02</ele><time>2011-05-31T09:54:29Z</time></trkpt><trkpt lat="50.024364" lon="6.582057"><ele>347.65</ele><time>2011-05-31T09:54:36Z</time></trkpt><trkpt lat="50.024067" lon="6.581681"><ele>344.29</ele><time>2011-05-31T09:54:41Z</time></trkpt><trkpt lat="50.023930" lon="6.581555"><ele>342.85</ele><time>2011-05-31T09:54:43Z</time></trkpt><trkpt lat="50.023853" lon="6.581511"><ele>340.92</ele><time>2011-05-31T09:54:44Z</time></trkpt><trkpt lat="50.023685" lon="6.581453"><ele>339.48</ele><time>2011-05-31T09:54:46Z</time></trkpt><trkpt lat="50.023598" lon="6.581444"><ele>338.04</ele><time>2011-05-31T09:54:47Z</time></trkpt><trkpt lat="50.023506" lon="6.581452"><ele>337.08</ele><time>2011-05-31T09:54:48Z</time></trkpt><trkpt lat="50.023407" lon="6.581474"><ele>335.64</ele><time>2011-05-31T09:54:49Z</time></trkpt><trkpt lat="50.023312" lon="6.581512"><ele>334.20</ele><time>2011-05-31T09:54:50Z</time></trkpt><trkpt lat="50.023216" lon="6.581565"><ele>332.75</ele><time>2011-05-31T09:54:51Z</time></trkpt><trkpt lat="50.023121" lon="6.581634"><ele>331.79</ele><time>2011-05-31T09:54:52Z</time></trkpt><trkpt lat="50.023033" lon="6.581717"><ele>330.83</ele><time>2011-05-31T09:54:53Z</time></trkpt><trkpt lat="50.022949" lon="6.581810"><ele>329.39</ele><time>2011-05-31T09:54:54Z</time></trkpt><trkpt lat="50.022869" lon="6.581913"><ele>328.91</ele><time>2011-05-31T09:54:55Z</time></trkpt><trkpt lat="50.022793" lon="6.582018"><ele>327.47</ele><time>2011-05-31T09:54:56Z</time></trkpt><trkpt lat="50.022480" lon="6.582461"><ele>323.14</ele><time>2011-05-31T09:55:00Z</time></trkpt><trkpt lat="50.022156" lon="6.582922"><ele>320.26</ele><time>2011-05-31T09:55:04Z</time></trkpt><trkpt lat="50.022091" lon="6.583017"><ele>320.26</ele><time>2011-05-31T09:55:05Z</time></trkpt><trkpt lat="50.021973" lon="6.583151"><ele>320.74</ele><time>2011-05-31T09:55:07Z</time></trkpt><trkpt lat="50.021923" lon="6.583167"><ele>320.26</ele><time>2011-05-31T09:55:08Z</time></trkpt><trkpt lat="50.021885" lon="6.583133"><ele>320.26</ele><time>2011-05-31T09:55:09Z</time></trkpt><trkpt lat="50.021873" lon="6.583069"><ele>320.74</ele><time>2011-05-31T09:55:10Z</time></trkpt><trkpt lat="50.021873" lon="6.582999"><ele>320.74</ele><time>2011-05-31T09:55:11Z</time></trkpt><trkpt lat="50.021881" lon="6.582938"><ele>321.22</ele><time>2011-05-31T09:55:12Z</time></trkpt><trkpt lat="50.021889" lon="6.582883"><ele>320.74</ele><time>2011-05-31T09:55:13Z</time></trkpt><trkpt lat="50.021896" lon="6.582827"><ele>321.70</ele><time>2011-05-31T09:55:14Z</time></trkpt><trkpt lat="50.021904" lon="6.582778"><ele>321.22</ele><time>2011-05-31T09:55:15Z</time></trkpt><trkpt lat="50.021923" lon="6.582265"><ele>324.10</ele><time>2011-05-31T09:55:30Z</time></trkpt><trkpt lat="50.021820" lon="6.581856"><ele>326.02</ele><time>2011-05-31T09:55:47Z</time></trkpt><trkpt lat="50.021690" lon="6.581569"><ele>327.95</ele><time>2011-05-31T09:56:02Z</time></trkpt><trkpt lat="50.021538" lon="6.581321"><ele>329.39</ele><time>2011-05-31T09:56:16Z</time></trkpt><trkpt lat="50.021393" lon="6.581112"><ele>330.35</ele><time>2011-05-31T09:56:28Z</time></trkpt><trkpt lat="50.021381" lon="6.581098"><ele>330.83</ele><time>2011-05-31T09:56:29Z</time></trkpt><trkpt lat="50.021370" lon="6.581080"><ele>330.83</ele><time>2011-05-31T09:56:30Z</time></trkpt><trkpt lat="50.021183" lon="6.580782"><ele>332.27</ele><time>2011-05-31T09:56:46Z</time></trkpt><trkpt lat="50.020985" lon="6.580485"><ele>333.71</ele><time>2011-05-31T09:57:03Z</time></trkpt><trkpt lat="50.020775" lon="6.580157"><ele>334.20</ele><time>2011-05-31T09:57:17Z</time></trkpt><trkpt lat="50.020405" lon="6.579597"><ele>335.64</ele><time>2011-05-31T09:57:37Z</time></trkpt><trkpt lat="50.019867" lon="6.578859"><ele>336.12</ele><time>2011-05-31T09:58:01Z</time></trkpt><trkpt lat="50.019329" lon="6.578220"><ele>335.16</ele><time>2011-05-31T09:58:17Z</time></trkpt><trkpt lat="50.018692" lon="6.577574"><ele>332.75</ele><time>2011-05-31T09:58:31Z</time></trkpt><trkpt lat="50.018452" lon="6.577289"><ele>332.27</ele><time>2011-05-31T09:58:36Z</time></trkpt><trkpt lat="50.018410" lon="6.577223"><ele>331.79</ele><time>2011-05-31T09:58:37Z</time></trkpt><trkpt lat="50.017849" lon="6.576229"><ele>330.83</ele><time>2011-05-31T09:58:51Z</time></trkpt><trkpt lat="50.017368" lon="6.575155"><ele>329.87</ele><time>2011-05-31T09:59:05Z</time></trkpt><trkpt lat="50.016731" lon="6.574014"><ele>328.91</ele><time>2011-05-31T09:59:22Z</time></trkpt><trkpt lat="50.015903" lon="6.573034"><ele>326.50</ele><time>2011-05-31T09:59:39Z</time></trkpt><trkpt lat="50.015121" lon="6.572478"><ele>323.62</ele><time>2011-05-31T09:59:51Z</time></trkpt><trkpt lat="50.014278" lon="6.572136"><ele>319.78</ele><time>2011-05-31T10:00:02Z</time></trkpt><trkpt lat="50.013237" lon="6.571730"><ele>316.41</ele><time>2011-05-31T10:00:15Z</time></trkpt><trkpt lat="50.012295" lon="6.571289"><ele>313.05</ele><time>2011-05-31T10:00:27Z</time></trkpt><trkpt lat="50.011581" lon="6.570877"><ele>309.68</ele><time>2011-05-31T10:00:36Z</time></trkpt><trkpt lat="50.011261" lon="6.570611"><ele>308.24</ele><time>2011-05-31T10:00:40Z</time></trkpt><trkpt lat="50.010872" lon="6.570184"><ele>305.36</ele><time>2011-05-31T10:00:45Z</time></trkpt><trkpt lat="50.010448" lon="6.569729"><ele>301.51</ele><time>2011-05-31T10:00:50Z</time></trkpt><trkpt lat="50.010063" lon="6.569426"><ele>298.63</ele><time>2011-05-31T10:00:54Z</time></trkpt><trkpt lat="50.009739" lon="6.569247"><ele>295.26</ele><time>2011-05-31T10:00:57Z</time></trkpt><trkpt lat="50.009396" lon="6.569123"><ele>291.90</ele><time>2011-05-31T10:01:00Z</time></trkpt><trkpt lat="50.009056" lon="6.568999"><ele>288.53</ele><time>2011-05-31T10:01:03Z</time></trkpt><trkpt lat="50.008739" lon="6.568813"><ele>284.69</ele><time>2011-05-31T10:01:06Z</time></trkpt><trkpt lat="50.008347" lon="6.568541"><ele>280.84</ele><time>2011-05-31T10:01:10Z</time></trkpt><trkpt lat="50.008007" lon="6.568375"><ele>277.00</ele><time>2011-05-31T10:01:13Z</time></trkpt><trkpt lat="50.007885" lon="6.568339"><ele>275.56</ele><time>2011-05-31T10:01:14Z</time></trkpt><trkpt lat="50.007629" lon="6.568289"><ele>272.67</ele><time>2011-05-31T10:01:16Z</time></trkpt><trkpt lat="50.007370" lon="6.568237"><ele>268.83</ele><time>2011-05-31T10:01:18Z</time></trkpt><trkpt lat="50.007030" lon="6.568140"><ele>265.94</ele><time>2011-05-31T10:01:21Z</time></trkpt><trkpt lat="50.006618" lon="6.568010"><ele>261.62</ele><time>2011-05-31T10:01:25Z</time></trkpt><trkpt lat="50.006271" lon="6.567887"><ele>258.73</ele><time>2011-05-31T10:01:28Z</time></trkpt><trkpt lat="50.005890" lon="6.567790"><ele>254.41</ele><time>2011-05-31T10:01:31Z</time></trkpt><trkpt lat="50.005486" lon="6.567688"><ele>250.08</ele><time>2011-05-31T10:01:34Z</time></trkpt><trkpt lat="50.005066" lon="6.567600"><ele>246.23</ele><time>2011-05-31T10:01:37Z</time></trkpt><trkpt lat="50.004635" lon="6.567511"><ele>243.83</ele><time>2011-05-31T10:01:40Z</time></trkpt><trkpt lat="50.004368" lon="6.567444"><ele>241.91</ele><time>2011-05-31T10:01:42Z</time></trkpt><trkpt lat="50.004009" lon="6.567389"><ele>241.43</ele><time>2011-05-31T10:01:47Z</time></trkpt><trkpt lat="50.003246" lon="6.567480"><ele>242.39</ele><time>2011-05-31T10:02:01Z</time></trkpt><trkpt lat="50.002975" lon="6.567540"><ele>242.87</ele><time>2011-05-31T10:02:07Z</time></trkpt><trkpt lat="50.002937" lon="6.567578"><ele>242.87</ele><time>2011-05-31T10:02:08Z</time></trkpt><trkpt lat="50.002911" lon="6.567627"><ele>242.87</ele><time>2011-05-31T10:02:09Z</time></trkpt><trkpt lat="50.002838" lon="6.567781"><ele>242.87</ele><time>2011-05-31T10:02:12Z</time></trkpt><trkpt lat="50.002804" lon="6.567826"><ele>242.87</ele><time>2011-05-31T10:02:13Z</time></trkpt><trkpt lat="50.002766" lon="6.567864"><ele>242.39</ele><time>2011-05-31T10:02:14Z</time></trkpt><trkpt lat="50.001987" lon="6.568503"><ele>239.99</ele><time>2011-05-31T10:02:29Z</time></trkpt><trkpt lat="50.001602" lon="6.568756"><ele>239.02</ele><time>2011-05-31T10:02:35Z</time></trkpt><trkpt lat="50.000687" lon="6.569516"><ele>236.62</ele><time>2011-05-31T10:02:51Z</time></trkpt><trkpt lat="50.000427" lon="6.569738"><ele>237.58</ele><time>2011-05-31T10:02:56Z</time></trkpt><trkpt lat="50.000385" lon="6.569786"><ele>237.58</ele><time>2011-05-31T10:02:57Z</time></trkpt><trkpt lat="50.000347" lon="6.569836"><ele>237.58</ele><time>2011-05-31T10:02:58Z</time></trkpt><trkpt lat="50.000000" lon="6.570256"><ele>239.02</ele><time>2011-05-31T10:03:09Z</time></trkpt><trkpt lat="49.999870" lon="6.570420"><ele>239.02</ele><time>2011-05-31T10:03:13Z</time></trkpt><trkpt lat="49.999798" lon="6.570485"><ele>239.02</ele><time>2011-05-31T10:03:15Z</time></trkpt><trkpt lat="49.999168" lon="6.571285"><ele>239.99</ele><time>2011-05-31T10:03:34Z</time></trkpt><trkpt lat="49.998692" lon="6.571805"><ele>240.47</ele><time>2011-05-31T10:03:50Z</time></trkpt><trkpt lat="49.998409" lon="6.571951"><ele>240.47</ele><time>2011-05-31T10:03:57Z</time></trkpt><trkpt lat="49.998371" lon="6.571982"><ele>239.51</ele><time>2011-05-31T10:03:58Z</time></trkpt><trkpt lat="49.997921" lon="6.572520"><ele>240.95</ele><time>2011-05-31T10:04:13Z</time></trkpt><trkpt lat="49.997578" lon="6.572869"><ele>243.35</ele><time>2011-05-31T10:04:30Z</time></trkpt><trkpt lat="49.997250" lon="6.573088"><ele>245.27</ele><time>2011-05-31T10:04:46Z</time></trkpt><trkpt lat="49.996849" lon="6.573262"><ele>246.72</ele><time>2011-05-31T10:05:03Z</time></trkpt><trkpt lat="49.996414" lon="6.573390"><ele>247.68</ele><time>2011-05-31T10:05:22Z</time></trkpt><trkpt lat="49.995998" lon="6.573575"><ele>249.12</ele><time>2011-05-31T10:05:41Z</time></trkpt><trkpt lat="49.995686" lon="6.573684"><ele>252.48</ele><time>2011-05-31T10:05:58Z</time></trkpt><trkpt lat="49.995415" lon="6.573739"><ele>253.93</ele><time>2011-05-31T10:06:16Z</time></trkpt><trkpt lat="49.995144" lon="6.573696"><ele>255.85</ele><time>2011-05-31T10:06:35Z</time></trkpt><trkpt lat="49.994759" lon="6.573623"><ele>255.85</ele><time>2011-05-31T10:06:48Z</time></trkpt><trkpt lat="49.994408" lon="6.573600"><ele>258.25</ele><time>2011-05-31T10:07:04Z</time></trkpt><trkpt lat="49.994125" lon="6.573555"><ele>259.69</ele><time>2011-05-31T10:07:19Z</time></trkpt><trkpt lat="49.993778" lon="6.573587"><ele>260.65</ele><time>2011-05-31T10:07:36Z</time></trkpt><trkpt lat="49.993484" lon="6.573575"><ele>262.10</ele><time>2011-05-31T10:07:51Z</time></trkpt><trkpt lat="49.993267" lon="6.573540"><ele>263.54</ele><time>2011-05-31T10:08:06Z</time></trkpt><trkpt lat="49.993004" lon="6.573452"><ele>265.94</ele><time>2011-05-31T10:08:23Z</time></trkpt><trkpt lat="49.992706" lon="6.573363"><ele>267.38</ele><time>2011-05-31T10:08:40Z</time></trkpt><trkpt lat="49.992390" lon="6.573249"><ele>269.79</ele><time>2011-05-31T10:09:00Z</time></trkpt><trkpt lat="49.992119" lon="6.573238"><ele>271.23</ele><time>2011-05-31T10:09:17Z</time></trkpt><trkpt lat="49.991852" lon="6.573240"><ele>271.71</ele><time>2011-05-31T10:09:33Z</time></trkpt><trkpt lat="49.991394" lon="6.573256"><ele>270.27</ele><time>2011-05-31T10:09:48Z</time></trkpt><trkpt lat="49.990738" lon="6.573314"><ele>271.23</ele><time>2011-05-31T10:10:06Z</time></trkpt><trkpt lat="49.990036" lon="6.573304"><ele>268.83</ele><time>2011-05-31T10:10:19Z</time></trkpt><trkpt lat="49.989204" lon="6.573073"><ele>267.38</ele><time>2011-05-31T10:10:34Z</time></trkpt><trkpt lat="49.988575" lon="6.573068"><ele>264.02</ele><time>2011-05-31T10:10:43Z</time></trkpt><trkpt lat="49.988216" lon="6.573058"><ele>260.65</ele><time>2011-05-31T10:10:47Z</time></trkpt><trkpt lat="49.987823" lon="6.573047"><ele>258.25</ele><time>2011-05-31T10:10:51Z</time></trkpt><trkpt lat="49.986958" lon="6.572876"><ele>257.29</ele><time>2011-05-31T10:11:01Z</time></trkpt><trkpt lat="49.986343" lon="6.572891"><ele>256.81</ele><time>2011-05-31T10:11:09Z</time></trkpt><trkpt lat="49.986217" lon="6.572914"><ele>258.73</ele><time>2011-05-31T10:11:11Z</time></trkpt><trkpt lat="49.986160" lon="6.572894"><ele>258.25</ele><time>2011-05-31T10:11:12Z</time></trkpt><trkpt lat="49.986103" lon="6.572855"><ele>257.77</ele><time>2011-05-31T10:11:13Z</time></trkpt><trkpt lat="49.985886" lon="6.572701"><ele>254.89</ele><time>2011-05-31T10:11:16Z</time></trkpt><trkpt lat="49.985794" lon="6.572671"><ele>253.93</ele><time>2011-05-31T10:11:17Z</time></trkpt><trkpt lat="49.985703" lon="6.572656"><ele>253.44</ele><time>2011-05-31T10:11:18Z</time></trkpt><trkpt lat="49.984951" lon="6.572497"><ele>254.41</ele><time>2011-05-31T10:11:28Z</time></trkpt><trkpt lat="49.984886" lon="6.572490"><ele>253.93</ele><time>2011-05-31T10:11:29Z</time></trkpt><trkpt lat="49.984818" lon="6.572497"><ele>253.93</ele><time>2011-05-31T10:11:30Z</time></trkpt><trkpt lat="49.984695" lon="6.572518"><ele>254.41</ele><time>2011-05-31T10:11:32Z</time></trkpt><trkpt lat="49.984638" lon="6.572515"><ele>254.41</ele><time>2011-05-31T10:11:33Z</time></trkpt><trkpt lat="49.983776" lon="6.572363"><ele>251.04</ele><time>2011-05-31T10:11:46Z</time></trkpt><trkpt lat="49.983700" lon="6.572332"><ele>251.04</ele><time>2011-05-31T10:11:47Z</time></trkpt><trkpt lat="49.983124" lon="6.572100"><ele>254.41</ele><time>2011-05-31T10:11:57Z</time></trkpt><trkpt lat="49.982872" lon="6.571915"><ele>253.44</ele><time>2011-05-31T10:12:06Z</time></trkpt><trkpt lat="49.982601" lon="6.571919"><ele>256.33</ele><time>2011-05-31T10:12:16Z</time></trkpt><trkpt lat="49.982479" lon="6.571926"><ele>257.77</ele><time>2011-05-31T10:12:29Z</time></trkpt><trkpt lat="49.982410" lon="6.571904"><ele>258.25</ele><time>2011-05-31T10:12:35Z</time></trkpt><trkpt lat="49.982395" lon="6.571898"><ele>258.25</ele><time>2011-05-31T10:12:36Z</time></trkpt><trkpt lat="49.982384" lon="6.571894"><ele>258.25</ele><time>2011-05-31T10:12:37Z</time></trkpt><trkpt lat="49.982376" lon="6.571886"><ele>258.73</ele><time>2011-05-31T10:12:38Z</time></trkpt><trkpt lat="49.982285" lon="6.571874"><ele>260.65</ele><time>2011-05-31T10:12:45Z</time></trkpt><trkpt lat="49.982262" lon="6.571877"><ele>261.14</ele><time>2011-05-31T10:12:46Z</time></trkpt><trkpt lat="49.982246" lon="6.571884"><ele>261.62</ele><time>2011-05-31T10:12:47Z</time></trkpt><trkpt lat="49.982227" lon="6.571888"><ele>261.62</ele><time>2011-05-31T10:12:48Z</time></trkpt><trkpt lat="49.982212" lon="6.571892"><ele>262.10</ele><time>2011-05-31T10:12:49Z</time></trkpt><trkpt lat="49.982159" lon="6.571847"><ele>260.17</ele><time>2011-05-31T10:12:58Z</time></trkpt><trkpt lat="49.982185" lon="6.571689"><ele>256.81</ele><time>2011-05-31T10:13:04Z</time></trkpt><trkpt lat="49.982193" lon="6.571506"><ele>253.93</ele><time>2011-05-31T10:13:09Z</time></trkpt><trkpt lat="49.981983" lon="6.571116"><ele>250.08</ele><time>2011-05-31T10:13:13Z</time></trkpt><trkpt lat="49.981895" lon="6.570879"><ele>246.72</ele><time>2011-05-31T10:13:17Z</time></trkpt><trkpt lat="49.981781" lon="6.570591"><ele>243.35</ele><time>2011-05-31T10:13:21Z</time></trkpt><trkpt lat="49.981640" lon="6.570094"><ele>242.87</ele><time>2011-05-31T10:13:25Z</time></trkpt><trkpt lat="49.980068" lon="6.569000"><ele>241.43</ele><time>2011-05-31T10:13:35Z</time></trkpt><trkpt lat="49.980022" lon="6.568921"><ele>241.43</ele><time>2011-05-31T10:13:36Z</time></trkpt><trkpt lat="49.979404" lon="6.568127"><ele>238.54</ele><time>2011-05-31T10:13:46Z</time></trkpt><trkpt lat="49.979229" lon="6.567852"><ele>235.18</ele><time>2011-05-31T10:13:49Z</time></trkpt><trkpt lat="49.979012" lon="6.567541"><ele>231.81</ele><time>2011-05-31T10:13:53Z</time></trkpt><trkpt lat="49.978779" lon="6.567137"><ele>229.89</ele><time>2011-05-31T10:13:57Z</time></trkpt><trkpt lat="49.978588" lon="6.566856"><ele>229.41</ele><time>2011-05-31T10:14:00Z</time></trkpt><trkpt lat="49.978523" lon="6.566792"><ele>229.41</ele><time>2011-05-31T10:14:01Z</time></trkpt><trkpt lat="49.978378" lon="6.566681"><ele>229.41</ele><time>2011-05-31T10:14:03Z</time></trkpt><trkpt lat="49.978302" lon="6.566639"><ele>229.89</ele><time>2011-05-31T10:14:04Z</time></trkpt><trkpt lat="49.977654" lon="6.566177"><ele>230.85</ele><time>2011-05-31T10:14:15Z</time></trkpt><trkpt lat="49.977608" lon="6.566150"><ele>230.85</ele><time>2011-05-31T10:14:16Z</time></trkpt><trkpt lat="49.977554" lon="6.566133"><ele>230.85</ele><time>2011-05-31T10:14:17Z</time></trkpt><trkpt lat="49.977489" lon="6.566120"><ele>230.85</ele><time>2011-05-31T10:14:18Z</time></trkpt><trkpt lat="49.977402" lon="6.566090"><ele>230.37</ele><time>2011-05-31T10:14:19Z</time></trkpt><trkpt lat="49.977341" lon="6.566104"><ele>230.37</ele><time>2011-05-31T10:14:20Z</time></trkpt><trkpt lat="49.976902" lon="6.566234"><ele>227.49</ele><time>2011-05-31T10:14:26Z</time></trkpt><trkpt lat="49.976570" lon="6.566472"><ele>226.05</ele><time>2011-05-31T10:14:31Z</time></trkpt><trkpt lat="49.976395" lon="6.566643"><ele>226.53</ele><time>2011-05-31T10:14:34Z</time></trkpt><trkpt lat="49.976330" lon="6.566697"><ele>226.05</ele><time>2011-05-31T10:14:35Z</time></trkpt><trkpt lat="49.976265" lon="6.566756"><ele>226.05</ele><time>2011-05-31T10:14:36Z</time></trkpt><trkpt lat="49.976227" lon="6.566826"><ele>226.53</ele><time>2011-05-31T10:14:37Z</time></trkpt><trkpt lat="49.976196" lon="6.566907"><ele>226.05</ele><time>2011-05-31T10:14:38Z</time></trkpt><trkpt lat="49.976158" lon="6.566974"><ele>226.05</ele><time>2011-05-31T10:14:39Z</time></trkpt><trkpt lat="49.976143" lon="6.567057"><ele>226.05</ele><time>2011-05-31T10:14:40Z</time></trkpt><trkpt lat="49.976128" lon="6.567140"><ele>226.05</ele><time>2011-05-31T10:14:41Z</time></trkpt><trkpt lat="49.976093" lon="6.567368"><ele>226.53</ele><time>2011-05-31T10:14:44Z</time></trkpt><trkpt lat="49.976055" lon="6.567536"><ele>226.53</ele><time>2011-05-31T10:14:46Z</time></trkpt><trkpt lat="49.976025" lon="6.567626"><ele>226.05</ele><time>2011-05-31T10:14:47Z</time></trkpt><trkpt lat="49.975967" lon="6.567810"><ele>225.57</ele><time>2011-05-31T10:14:49Z</time></trkpt><trkpt lat="49.975906" lon="6.568078"><ele>225.09</ele><time>2011-05-31T10:14:52Z</time></trkpt><trkpt lat="49.975903" lon="6.568166"><ele>224.61</ele><time>2011-05-31T10:14:53Z</time></trkpt><trkpt lat="49.975945" lon="6.569093"><ele>222.68</ele><time>2011-05-31T10:15:02Z</time></trkpt><trkpt lat="49.975956" lon="6.569200"><ele>221.72</ele><time>2011-05-31T10:15:03Z</time></trkpt><trkpt lat="49.975990" lon="6.569514"><ele>222.20</ele><time>2011-05-31T10:15:06Z</time></trkpt><trkpt lat="49.976009" lon="6.569611"><ele>222.68</ele><time>2011-05-31T10:15:07Z</time></trkpt><trkpt lat="49.976036" lon="6.569701"><ele>223.16</ele><time>2011-05-31T10:15:08Z</time></trkpt><trkpt lat="49.976189" lon="6.570305"><ele>224.12</ele><time>2011-05-31T10:15:16Z</time></trkpt><trkpt lat="49.976204" lon="6.570374"><ele>224.12</ele><time>2011-05-31T10:15:17Z</time></trkpt><trkpt lat="49.976250" lon="6.570569"><ele>223.64</ele><time>2011-05-31T10:15:20Z</time></trkpt><trkpt lat="49.976261" lon="6.570637"><ele>224.61</ele><time>2011-05-31T10:15:21Z</time></trkpt><trkpt lat="49.976360" lon="6.571188"><ele>223.64</ele><time>2011-05-31T10:15:29Z</time></trkpt><trkpt lat="49.976379" lon="6.571257"><ele>223.64</ele><time>2011-05-31T10:15:30Z</time></trkpt><trkpt lat="49.976406" lon="6.571321"><ele>223.64</ele><time>2011-05-31T10:15:31Z</time></trkpt><trkpt lat="49.976532" lon="6.571626"><ele>223.64</ele><time>2011-05-31T10:15:36Z</time></trkpt><trkpt lat="49.976669" lon="6.571980"><ele>223.64</ele><time>2011-05-31T10:15:42Z</time></trkpt><trkpt lat="49.976688" lon="6.572043"><ele>224.12</ele><time>2011-05-31T10:15:43Z</time></trkpt><trkpt lat="49.976715" lon="6.572094"><ele>224.12</ele><time>2011-05-31T10:15:44Z</time></trkpt><trkpt lat="49.976768" lon="6.572195"><ele>224.12</ele><time>2011-05-31T10:15:46Z</time></trkpt><trkpt lat="49.977238" lon="6.572940"><ele>225.09</ele><time>2011-05-31T10:16:02Z</time></trkpt><trkpt lat="49.977562" lon="6.573411"><ele>226.53</ele><time>2011-05-31T10:16:16Z</time></trkpt><trkpt lat="49.977867" lon="6.573730"><ele>227.97</ele><time>2011-05-31T10:16:31Z</time></trkpt><trkpt lat="49.978062" lon="6.573760"><ele>230.37</ele><time>2011-05-31T10:16:42Z</time></trkpt><trkpt lat="49.978073" lon="6.573770"><ele>230.85</ele><time>2011-05-31T10:16:43Z</time></trkpt><trkpt lat="49.978088" lon="6.573782"><ele>230.85</ele><time>2011-05-31T10:16:44Z</time></trkpt><trkpt lat="49.978096" lon="6.573794"><ele>230.85</ele><time>2011-05-31T10:16:45Z</time></trkpt><trkpt lat="49.978107" lon="6.573803"><ele>230.85</ele><time>2011-05-31T10:16:46Z</time></trkpt><trkpt lat="49.978313" lon="6.573982"><ele>231.81</ele><time>2011-05-31T10:17:02Z</time></trkpt><trkpt lat="49.978508" lon="6.574180"><ele>232.78</ele><time>2011-05-31T10:17:18Z</time></trkpt><trkpt lat="49.978622" lon="6.574211"><ele>234.22</ele><time>2011-05-31T10:17:26Z</time></trkpt><trkpt lat="49.978638" lon="6.574207"><ele>234.22</ele><time>2011-05-31T10:17:27Z</time></trkpt><trkpt lat="49.978649" lon="6.574207"><ele>234.70</ele><time>2011-05-31T10:17:28Z</time></trkpt><trkpt lat="49.978867" lon="6.574263"><ele>236.62</ele><time>2011-05-31T10:17:44Z</time></trkpt><trkpt lat="49.979099" lon="6.574440"><ele>237.58</ele><time>2011-05-31T10:17:59Z</time></trkpt><trkpt lat="49.979389" lon="6.574590"><ele>237.58</ele><time>2011-05-31T10:18:13Z</time></trkpt><trkpt lat="49.979706" lon="6.574561"><ele>239.51</ele><time>2011-05-31T10:18:27Z</time></trkpt><trkpt lat="49.979832" lon="6.574681"><ele>242.87</ele><time>2011-05-31T10:18:36Z</time></trkpt><trkpt lat="49.979919" lon="6.575081"><ele>242.87</ele><time>2011-05-31T10:18:50Z</time></trkpt><trkpt lat="49.980091" lon="6.576037"><ele>241.43</ele><time>2011-05-31T10:19:07Z</time></trkpt><trkpt lat="49.980133" lon="6.576293"><ele>240.95</ele><time>2011-05-31T10:19:11Z</time></trkpt><trkpt lat="49.980213" lon="6.576787"><ele>242.39</ele><time>2011-05-31T10:19:22Z</time></trkpt><trkpt lat="49.980305" lon="6.576967"><ele>243.83</ele><time>2011-05-31T10:19:39Z</time></trkpt><trkpt lat="49.980328" lon="6.577048"><ele>244.31</ele><time>2011-05-31T10:19:57Z</time></trkpt><trkpt lat="49.980328" lon="6.577048"><ele>243.35</ele><time>2011-05-31T10:20:19Z</time></trkpt><trkpt lat="49.980328" lon="6.577048"><ele>244.79</ele><time>2011-05-31T10:20:23Z</time></trkpt><trkpt lat="49.980331" lon="6.577055"><ele>244.31</ele><time>2011-05-31T10:20:54Z</time></trkpt><trkpt lat="49.980331" lon="6.577073"><ele>244.79</ele><time>2011-05-31T10:20:57Z</time></trkpt><trkpt lat="49.980331" lon="6.577098"><ele>244.31</ele><time>2011-05-31T10:20:58Z</time></trkpt><trkpt lat="49.980328" lon="6.577129"><ele>244.31</ele><time>2011-05-31T10:20:59Z</time></trkpt><trkpt lat="49.980316" lon="6.577162"><ele>244.31</ele><time>2011-05-31T10:21:00Z</time></trkpt><trkpt lat="49.980301" lon="6.577203"><ele>243.83</ele><time>2011-05-31T10:21:01Z</time></trkpt><trkpt lat="49.980286" lon="6.577252"><ele>243.83</ele><time>2011-05-31T10:21:02Z</time></trkpt><trkpt lat="49.980198" lon="6.577487"><ele>242.39</ele><time>2011-05-31T10:21:06Z</time></trkpt><trkpt lat="49.980183" lon="6.577563"><ele>240.95</ele><time>2011-05-31T10:21:07Z</time></trkpt><trkpt lat="49.980175" lon="6.577637"><ele>240.95</ele><time>2011-05-31T10:21:08Z</time></trkpt><trkpt lat="49.980175" lon="6.577708"><ele>239.99</ele><time>2011-05-31T10:21:09Z</time></trkpt><trkpt lat="49.980179" lon="6.577774"><ele>240.95</ele><time>2011-05-31T10:21:10Z</time></trkpt><trkpt lat="49.980179" lon="6.578705"><ele>240.47</ele><time>2011-05-31T10:21:26Z</time></trkpt><trkpt lat="49.980133" lon="6.579062"><ele>237.10</ele><time>2011-05-31T10:21:35Z</time></trkpt><trkpt lat="49.980110" lon="6.579380"><ele>233.74</ele><time>2011-05-31T10:21:45Z</time></trkpt><trkpt lat="49.980083" lon="6.579394"><ele>232.78</ele><time>2011-05-31T10:21:47Z</time></trkpt><trkpt lat="49.980019" lon="6.579360"><ele>231.81</ele><time>2011-05-31T10:21:52Z</time></trkpt><trkpt lat="49.979992" lon="6.579346"><ele>231.33</ele><time>2011-05-31T10:21:53Z</time></trkpt><trkpt lat="49.979931" lon="6.579306"><ele>231.33</ele><time>2011-05-31T10:21:54Z</time></trkpt><trkpt lat="49.979897" lon="6.579303"><ele>231.33</ele><time>2011-05-31T10:21:55Z</time></trkpt><trkpt lat="49.979885" lon="6.579308"><ele>230.85</ele><time>2011-05-31T10:21:56Z</time></trkpt><trkpt lat="49.979721" lon="6.579529"><ele>232.30</ele><time>2011-05-31T10:22:10Z</time></trkpt><trkpt lat="49.979465" lon="6.579932"><ele>232.30</ele><time>2011-05-31T10:22:23Z</time></trkpt><trkpt lat="49.979168" lon="6.580335"><ele>232.78</ele><time>2011-05-31T10:22:38Z</time></trkpt><trkpt lat="49.978920" lon="6.580542"><ele>234.22</ele><time>2011-05-31T10:22:53Z</time></trkpt><trkpt lat="49.978710" lon="6.580758"><ele>236.62</ele><time>2011-05-31T10:23:08Z</time></trkpt><trkpt lat="49.978455" lon="6.581064"><ele>239.02</ele><time>2011-05-31T10:23:28Z</time></trkpt><trkpt lat="49.978115" lon="6.581316"><ele>239.02</ele><time>2011-05-31T10:23:44Z</time></trkpt><trkpt lat="49.977787" lon="6.581672"><ele>240.95</ele><time>2011-05-31T10:23:59Z</time></trkpt><trkpt lat="49.977497" lon="6.581939"><ele>242.39</ele><time>2011-05-31T10:24:16Z</time></trkpt><trkpt lat="49.977261" lon="6.582208"><ele>243.83</ele><time>2011-05-31T10:24:33Z</time></trkpt><trkpt lat="49.976917" lon="6.582551"><ele>244.31</ele><time>2011-05-31T10:24:52Z</time></trkpt><trkpt lat="49.976669" lon="6.582785"><ele>243.35</ele><time>2011-05-31T10:24:59Z</time></trkpt><trkpt lat="49.976631" lon="6.582827"><ele>243.35</ele><time>2011-05-31T10:25:00Z</time></trkpt><trkpt lat="49.976597" lon="6.582870"><ele>242.87</ele><time>2011-05-31T10:25:01Z</time></trkpt><trkpt lat="49.976509" lon="6.582997"><ele>242.39</ele><time>2011-05-31T10:25:04Z</time></trkpt><trkpt lat="49.976475" lon="6.583030"><ele>241.91</ele><time>2011-05-31T10:25:05Z</time></trkpt><trkpt lat="49.976440" lon="6.583059"><ele>241.43</ele><time>2011-05-31T10:25:06Z</time></trkpt><trkpt lat="49.976154" lon="6.583274"><ele>238.06</ele><time>2011-05-31T10:25:12Z</time></trkpt><trkpt lat="49.975964" lon="6.583368"><ele>235.66</ele><time>2011-05-31T10:25:16Z</time></trkpt><trkpt lat="49.975906" lon="6.583397"><ele>234.70</ele><time>2011-05-31T10:25:17Z</time></trkpt><trkpt lat="49.975613" lon="6.583527"><ele>231.33</ele><time>2011-05-31T10:25:21Z</time></trkpt><trkpt lat="49.975433" lon="6.583623"><ele>228.93</ele><time>2011-05-31T10:25:23Z</time></trkpt><trkpt lat="49.975349" lon="6.583697"><ele>228.93</ele><time>2011-05-31T10:25:24Z</time></trkpt><trkpt lat="49.975273" lon="6.583783"><ele>228.45</ele><time>2011-05-31T10:25:25Z</time></trkpt><trkpt lat="49.974998" lon="6.584190"><ele>231.81</ele><time>2011-05-31T10:25:30Z</time></trkpt><trkpt lat="49.974911" lon="6.584324"><ele>231.81</ele><time>2011-05-31T10:25:32Z</time></trkpt><trkpt lat="49.974792" lon="6.584522"><ele>234.22</ele><time>2011-05-31T10:25:38Z</time></trkpt><trkpt lat="49.974777" lon="6.584629"><ele>237.58</ele><time>2011-05-31T10:25:52Z</time></trkpt><trkpt lat="49.974705" lon="6.584701"><ele>239.02</ele><time>2011-05-31T10:26:00Z</time></trkpt><trkpt lat="49.974693" lon="6.584702"><ele>238.54</ele><time>2011-05-31T10:26:01Z</time></trkpt><trkpt lat="49.974682" lon="6.584697"><ele>239.02</ele><time>2011-05-31T10:26:02Z</time></trkpt><trkpt lat="49.974667" lon="6.584698"><ele>239.02</ele><time>2011-05-31T10:26:03Z</time></trkpt><trkpt lat="49.974655" lon="6.584703"><ele>239.02</ele><time>2011-05-31T10:26:04Z</time></trkpt><trkpt lat="49.974644" lon="6.584708"><ele>239.51</ele><time>2011-05-31T10:26:05Z</time></trkpt><trkpt lat="49.974632" lon="6.584713"><ele>239.51</ele><time>2011-05-31T10:26:06Z</time></trkpt><trkpt lat="49.974396" lon="6.584789"><ele>241.43</ele><time>2011-05-31T10:26:24Z</time></trkpt><trkpt lat="49.974152" lon="6.584801"><ele>242.87</ele><time>2011-05-31T10:26:42Z</time></trkpt><trkpt lat="49.973785" lon="6.584614"><ele>239.51</ele><time>2011-05-31T10:26:58Z</time></trkpt><trkpt lat="49.973740" lon="6.584569"><ele>239.02</ele><time>2011-05-31T10:26:59Z</time></trkpt><trkpt lat="49.973595" lon="6.584415"><ele>236.14</ele><time>2011-05-31T10:27:02Z</time></trkpt><trkpt lat="49.973488" lon="6.584294"><ele>232.30</ele><time>2011-05-31T10:27:05Z</time></trkpt><trkpt lat="49.973381" lon="6.584102"><ele>228.93</ele><time>2011-05-31T10:27:09Z</time></trkpt><trkpt lat="49.973061" lon="6.583493"><ele>225.57</ele><time>2011-05-31T10:27:12Z</time></trkpt><trkpt lat="49.973022" lon="6.583383"><ele>224.61</ele><time>2011-05-31T10:27:13Z</time></trkpt><trkpt lat="49.972954" lon="6.583158"><ele>224.12</ele><time>2011-05-31T10:27:15Z</time></trkpt><trkpt lat="49.972900" lon="6.583030"><ele>223.64</ele><time>2011-05-31T10:27:16Z</time></trkpt><trkpt lat="49.972839" lon="6.582908"><ele>222.68</ele><time>2011-05-31T10:27:17Z</time></trkpt><trkpt lat="49.972710" lon="6.582696"><ele>221.72</ele><time>2011-05-31T10:27:19Z</time></trkpt><trkpt lat="49.972420" lon="6.582400"><ele>219.80</ele><time>2011-05-31T10:27:23Z</time></trkpt><trkpt lat="49.972340" lon="6.582319"><ele>218.84</ele><time>2011-05-31T10:27:24Z</time></trkpt><trkpt lat="49.971939" lon="6.581860"><ele>215.47</ele><time>2011-05-31T10:27:29Z</time></trkpt><trkpt lat="49.971848" lon="6.581804"><ele>215.47</ele><time>2011-05-31T10:27:30Z</time></trkpt><trkpt lat="49.971760" lon="6.581762"><ele>215.47</ele><time>2011-05-31T10:27:31Z</time></trkpt><trkpt lat="49.971672" lon="6.581732"><ele>215.47</ele><time>2011-05-31T10:27:32Z</time></trkpt><trkpt lat="49.971550" lon="6.581736"><ele>215.47</ele><time>2011-05-31T10:27:33Z</time></trkpt><trkpt lat="49.970905" lon="6.581686"><ele>214.51</ele><time>2011-05-31T10:27:40Z</time></trkpt><trkpt lat="49.970825" lon="6.581692"><ele>214.03</ele><time>2011-05-31T10:27:41Z</time></trkpt><trkpt lat="49.970753" lon="6.581720"><ele>214.03</ele><time>2011-05-31T10:27:42Z</time></trkpt><trkpt lat="49.970684" lon="6.581761"><ele>214.99</ele><time>2011-05-31T10:27:43Z</time></trkpt><trkpt lat="49.970623" lon="6.581806"><ele>214.99</ele><time>2011-05-31T10:27:44Z</time></trkpt><trkpt lat="49.970211" lon="6.582240"><ele>214.99</ele><time>2011-05-31T10:27:54Z</time></trkpt><trkpt lat="49.970043" lon="6.582403"><ele>214.99</ele><time>2011-05-31T10:27:58Z</time></trkpt><trkpt lat="49.969967" lon="6.582497"><ele>215.47</ele><time>2011-05-31T10:28:00Z</time></trkpt><trkpt lat="49.969936" lon="6.582551"><ele>215.47</ele><time>2011-05-31T10:28:01Z</time></trkpt><trkpt lat="49.969887" lon="6.582661"><ele>215.95</ele><time>2011-05-31T10:28:03Z</time></trkpt><trkpt lat="49.969868" lon="6.582718"><ele>215.95</ele><time>2011-05-31T10:28:04Z</time></trkpt><trkpt lat="49.969589" lon="6.583575"><ele>215.95</ele><time>2011-05-31T10:28:19Z</time></trkpt><trkpt lat="49.969292" lon="6.584457"><ele>215.95</ele><time>2011-05-31T10:28:34Z</time></trkpt><trkpt lat="49.969181" lon="6.584906"><ele>217.88</ele><time>2011-05-31T10:28:45Z</time></trkpt><trkpt lat="49.969090" lon="6.585449"><ele>220.76</ele><time>2011-05-31T10:29:02Z</time></trkpt><trkpt lat="49.968998" lon="6.585918"><ele>218.84</ele><time>2011-05-31T10:29:17Z</time></trkpt><trkpt lat="49.968967" lon="6.586061"><ele>221.72</ele><time>2011-05-31T10:29:21Z</time></trkpt><trkpt lat="49.968952" lon="6.586299"><ele>222.68</ele><time>2011-05-31T10:29:29Z</time></trkpt><trkpt lat="49.968948" lon="6.586481"><ele>223.64</ele><time>2011-05-31T10:29:37Z</time></trkpt><trkpt lat="49.968887" lon="6.586834"><ele>226.05</ele><time>2011-05-31T10:29:55Z</time></trkpt><trkpt lat="49.968765" lon="6.587187"><ele>226.53</ele><time>2011-05-31T10:30:09Z</time></trkpt><trkpt lat="49.968605" lon="6.587715"><ele>227.49</ele><time>2011-05-31T10:30:25Z</time></trkpt><trkpt lat="49.968311" lon="6.587892"><ele>226.05</ele><time>2011-05-31T10:30:38Z</time></trkpt><trkpt lat="49.968273" lon="6.587873"><ele>226.05</ele><time>2011-05-31T10:30:39Z</time></trkpt><trkpt lat="49.967953" lon="6.587938"><ele>226.53</ele><time>2011-05-31T10:30:45Z</time></trkpt><trkpt lat="49.967915" lon="6.587955"><ele>227.01</ele><time>2011-05-31T10:30:46Z</time></trkpt><trkpt lat="49.967686" lon="6.588085"><ele>228.93</ele><time>2011-05-31T10:30:57Z</time></trkpt><trkpt lat="49.967388" lon="6.588202"><ele>231.33</ele><time>2011-05-31T10:31:13Z</time></trkpt><trkpt lat="49.967079" lon="6.588326"><ele>230.37</ele><time>2011-05-31T10:31:26Z</time></trkpt><trkpt lat="49.966511" lon="6.588619"><ele>226.53</ele><time>2011-05-31T10:31:37Z</time></trkpt><trkpt lat="49.966454" lon="6.588641"><ele>226.53</ele><time>2011-05-31T10:31:38Z</time></trkpt><trkpt lat="49.966095" lon="6.588777"><ele>227.01</ele><time>2011-05-31T10:31:45Z</time></trkpt><trkpt lat="49.966045" lon="6.588801"><ele>227.49</ele><time>2011-05-31T10:31:46Z</time></trkpt><trkpt lat="49.965836" lon="6.588871"><ele>226.53</ele><time>2011-05-31T10:31:50Z</time></trkpt><trkpt lat="49.965778" lon="6.588888"><ele>226.53</ele><time>2011-05-31T10:31:51Z</time></trkpt><trkpt lat="49.965248" lon="6.589076"><ele>227.97</ele><time>2011-05-31T10:32:02Z</time></trkpt><trkpt lat="49.965202" lon="6.589083"><ele>227.97</ele><time>2011-05-31T10:32:03Z</time></trkpt><trkpt lat="49.964451" lon="6.589158"><ele>226.53</ele><time>2011-05-31T10:32:18Z</time></trkpt><trkpt lat="49.963985" lon="6.589161"><ele>226.53</ele><time>2011-05-31T10:32:27Z</time></trkpt><trkpt lat="49.963558" lon="6.589107"><ele>226.05</ele><time>2011-05-31T10:32:36Z</time></trkpt><trkpt lat="49.963501" lon="6.589096"><ele>226.05</ele><time>2011-05-31T10:32:37Z</time></trkpt><trkpt lat="49.963444" lon="6.589079"><ele>225.57</ele><time>2011-05-31T10:32:38Z</time></trkpt><trkpt lat="49.962650" lon="6.588849"><ele>223.16</ele><time>2011-05-31T10:32:52Z</time></trkpt><trkpt lat="49.962337" lon="6.588757"><ele>219.80</ele><time>2011-05-31T10:33:02Z</time></trkpt><trkpt lat="49.962288" lon="6.588763"><ele>219.32</ele><time>2011-05-31T10:33:03Z</time></trkpt><trkpt lat="49.962234" lon="6.588776"><ele>218.36</ele><time>2011-05-31T10:33:04Z</time></trkpt><trkpt lat="49.961979" lon="6.588860"><ele>214.99</ele><time>2011-05-31T10:33:08Z</time></trkpt><trkpt lat="49.961655" lon="6.588928"><ele>211.63</ele><time>2011-05-31T10:33:12Z</time></trkpt><trkpt lat="49.961304" lon="6.589028"><ele>208.74</ele><time>2011-05-31T10:33:16Z</time></trkpt><trkpt lat="49.961216" lon="6.589085"><ele>208.26</ele><time>2011-05-31T10:33:17Z</time></trkpt><trkpt lat="49.961128" lon="6.589154"><ele>207.78</ele><time>2011-05-31T10:33:18Z</time></trkpt><trkpt lat="49.961052" lon="6.589235"><ele>207.78</ele><time>2011-05-31T10:33:19Z</time></trkpt><trkpt lat="49.960979" lon="6.589324"><ele>207.78</ele><time>2011-05-31T10:33:20Z</time></trkpt><trkpt lat="49.960266" lon="6.590343"><ele>205.38</ele><time>2011-05-31T10:33:31Z</time></trkpt><trkpt lat="49.959602" lon="6.591789"><ele>204.42</ele><time>2011-05-31T10:33:45Z</time></trkpt><trkpt lat="49.959160" lon="6.593332"><ele>204.42</ele><time>2011-05-31T10:34:01Z</time></trkpt><trkpt lat="49.958820" lon="6.594591"><ele>205.38</ele><time>2011-05-31T10:34:18Z</time></trkpt><trkpt lat="49.958694" lon="6.595096"><ele>207.30</ele><time>2011-05-31T10:34:30Z</time></trkpt><trkpt lat="49.958595" lon="6.595505"><ele>209.22</ele><time>2011-05-31T10:34:43Z</time></trkpt><trkpt lat="49.958584" lon="6.595563"><ele>209.70</ele><time>2011-05-31T10:34:45Z</time></trkpt><trkpt lat="49.958580" lon="6.595596"><ele>209.70</ele><time>2011-05-31T10:34:46Z</time></trkpt><trkpt lat="49.958572" lon="6.595628"><ele>209.70</ele><time>2011-05-31T10:34:47Z</time></trkpt><trkpt lat="49.958565" lon="6.595657"><ele>209.70</ele><time>2011-05-31T10:34:48Z</time></trkpt><trkpt lat="49.958557" lon="6.595687"><ele>209.70</ele><time>2011-05-31T10:34:49Z</time></trkpt><trkpt lat="49.958546" lon="6.595719"><ele>210.19</ele><time>2011-05-31T10:34:50Z</time></trkpt><trkpt lat="49.958538" lon="6.595754"><ele>210.67</ele><time>2011-05-31T10:34:51Z</time></trkpt><trkpt lat="49.958530" lon="6.595787"><ele>210.19</ele><time>2011-05-31T10:34:52Z</time></trkpt><trkpt lat="49.958523" lon="6.595814"><ele>210.19</ele><time>2011-05-31T10:34:53Z</time></trkpt><trkpt lat="49.958511" lon="6.595842"><ele>210.19</ele><time>2011-05-31T10:34:54Z</time></trkpt><trkpt lat="49.958504" lon="6.595872"><ele>210.67</ele><time>2011-05-31T10:34:55Z</time></trkpt><trkpt lat="49.958496" lon="6.595901"><ele>210.67</ele><time>2011-05-31T10:34:56Z</time></trkpt><trkpt lat="49.958466" lon="6.595990"><ele>210.67</ele><time>2011-05-31T10:34:59Z</time></trkpt><trkpt lat="49.958462" lon="6.596022"><ele>210.67</ele><time>2011-05-31T10:35:00Z</time></trkpt><trkpt lat="49.958458" lon="6.596051"><ele>210.67</ele><time>2011-05-31T10:35:01Z</time></trkpt><trkpt lat="49.958355" lon="6.596407"><ele>211.63</ele><time>2011-05-31T10:35:14Z</time></trkpt><trkpt lat="49.958241" lon="6.596836"><ele>213.07</ele><time>2011-05-31T10:35:28Z</time></trkpt><trkpt lat="49.958111" lon="6.597291"><ele>212.59</ele><time>2011-05-31T10:35:43Z</time></trkpt><trkpt lat="49.957897" lon="6.597981"><ele>209.22</ele><time>2011-05-31T10:35:56Z</time></trkpt><trkpt lat="49.957825" lon="6.598222"><ele>207.78</ele><time>2011-05-31T10:35:59Z</time></trkpt><trkpt lat="49.957710" lon="6.598529"><ele>205.86</ele><time>2011-05-31T10:36:02Z</time></trkpt><trkpt lat="49.957481" lon="6.599231"><ele>202.49</ele><time>2011-05-31T10:36:07Z</time></trkpt><trkpt lat="49.957439" lon="6.599379"><ele>202.49</ele><time>2011-05-31T10:36:08Z</time></trkpt><trkpt lat="49.957409" lon="6.599538"><ele>202.01</ele><time>2011-05-31T10:36:09Z</time></trkpt><trkpt lat="49.957329" lon="6.599975"><ele>202.01</ele><time>2011-05-31T10:36:12Z</time></trkpt><trkpt lat="49.957291" lon="6.600113"><ele>202.01</ele><time>2011-05-31T10:36:13Z</time></trkpt><trkpt lat="49.957249" lon="6.600249"><ele>201.53</ele><time>2011-05-31T10:36:14Z</time></trkpt><trkpt lat="49.957218" lon="6.600377"><ele>201.53</ele><time>2011-05-31T10:36:15Z</time></trkpt><trkpt lat="49.957199" lon="6.600507"><ele>201.53</ele><time>2011-05-31T10:36:16Z</time></trkpt><trkpt lat="49.957184" lon="6.600638"><ele>201.53</ele><time>2011-05-31T10:36:17Z</time></trkpt><trkpt lat="49.957108" lon="6.602272"><ele>201.53</ele><time>2011-05-31T10:36:32Z</time></trkpt><trkpt lat="49.957203" lon="6.603536"><ele>201.53</ele><time>2011-05-31T10:36:46Z</time></trkpt><trkpt lat="49.957458" lon="6.604828"><ele>201.53</ele><time>2011-05-31T10:37:02Z</time></trkpt><trkpt lat="49.957741" lon="6.605902"><ele>201.05</ele><time>2011-05-31T10:37:16Z</time></trkpt><trkpt lat="49.957882" lon="6.606416"><ele>201.53</ele><time>2011-05-31T10:37:23Z</time></trkpt><trkpt lat="49.958004" lon="6.607016"><ele>201.05</ele><time>2011-05-31T10:37:31Z</time></trkpt><trkpt lat="49.958134" lon="6.607605"><ele>201.05</ele><time>2011-05-31T10:37:39Z</time></trkpt><trkpt lat="49.958294" lon="6.608720"><ele>200.57</ele><time>2011-05-31T10:37:54Z</time></trkpt><trkpt lat="49.958141" lon="6.610076"><ele>199.61</ele><time>2011-05-31T10:38:11Z</time></trkpt><trkpt lat="49.957748" lon="6.611347"><ele>198.65</ele><time>2011-05-31T10:38:28Z</time></trkpt><trkpt lat="49.957169" lon="6.612368"><ele>197.69</ele><time>2011-05-31T10:38:45Z</time></trkpt><trkpt lat="49.956581" lon="6.613332"><ele>196.25</ele><time>2011-05-31T10:39:01Z</time></trkpt><trkpt lat="49.956524" lon="6.613467"><ele>196.73</ele><time>2011-05-31T10:39:03Z</time></trkpt><trkpt lat="49.956505" lon="6.613540"><ele>196.73</ele><time>2011-05-31T10:39:04Z</time></trkpt><trkpt lat="49.956482" lon="6.613611"><ele>196.73</ele><time>2011-05-31T10:39:05Z</time></trkpt><trkpt lat="49.956455" lon="6.613678"><ele>196.73</ele><time>2011-05-31T10:39:06Z</time></trkpt><trkpt lat="49.956425" lon="6.613743"><ele>196.73</ele><time>2011-05-31T10:39:07Z</time></trkpt><trkpt lat="49.956402" lon="6.613811"><ele>196.25</ele><time>2011-05-31T10:39:08Z</time></trkpt><trkpt lat="49.956238" lon="6.614324"><ele>194.80</ele><time>2011-05-31T10:39:15Z</time></trkpt><trkpt lat="49.956066" lon="6.615294"><ele>194.80</ele><time>2011-05-31T10:39:28Z</time></trkpt><trkpt lat="49.956089" lon="6.616452"><ele>195.28</ele><time>2011-05-31T10:39:43Z</time></trkpt><trkpt lat="49.956219" lon="6.617519"><ele>194.32</ele><time>2011-05-31T10:39:56Z</time></trkpt><trkpt lat="49.956406" lon="6.618725"><ele>193.84</ele><time>2011-05-31T10:40:11Z</time></trkpt><trkpt lat="49.956409" lon="6.618804"><ele>193.84</ele><time>2011-05-31T10:40:12Z</time></trkpt><trkpt lat="49.956440" lon="6.619125"><ele>192.88</ele><time>2011-05-31T10:40:16Z</time></trkpt><trkpt lat="49.956451" lon="6.619213"><ele>193.36</ele><time>2011-05-31T10:40:17Z</time></trkpt><trkpt lat="49.956406" lon="6.620409"><ele>192.88</ele><time>2011-05-31T10:40:32Z</time></trkpt><trkpt lat="49.956074" lon="6.621784"><ele>192.88</ele><time>2011-05-31T10:40:50Z</time></trkpt><trkpt lat="49.955555" lon="6.622880"><ele>192.40</ele><time>2011-05-31T10:41:07Z</time></trkpt><trkpt lat="49.954823" lon="6.624036"><ele>192.40</ele><time>2011-05-31T10:41:27Z</time></trkpt><trkpt lat="49.954189" lon="6.624897"><ele>192.40</ele><time>2011-05-31T10:41:44Z</time></trkpt><trkpt lat="49.953625" lon="6.625634"><ele>192.88</ele><time>2011-05-31T10:42:01Z</time></trkpt><trkpt lat="49.953323" lon="6.626035"><ele>192.88</ele><time>2011-05-31T10:42:15Z</time></trkpt><trkpt lat="49.953316" lon="6.626074"><ele>192.40</ele><time>2011-05-31T10:42:16Z</time></trkpt><trkpt lat="49.953323" lon="6.626113"><ele>192.40</ele><time>2011-05-31T10:42:17Z</time></trkpt><trkpt lat="49.953342" lon="6.626132"><ele>192.88</ele><time>2011-05-31T10:42:18Z</time></trkpt><trkpt lat="49.953365" lon="6.626136"><ele>192.88</ele><time>2011-05-31T10:42:19Z</time></trkpt><trkpt lat="49.953388" lon="6.626133"><ele>192.88</ele><time>2011-05-31T10:42:20Z</time></trkpt><trkpt lat="49.953663" lon="6.626279"><ele>195.77</ele><time>2011-05-31T10:42:33Z</time></trkpt><trkpt lat="49.953712" lon="6.626343"><ele>196.73</ele><time>2011-05-31T10:42:37Z</time></trkpt><trkpt lat="49.953724" lon="6.626366"><ele>196.73</ele><time>2011-05-31T10:42:38Z</time></trkpt><trkpt lat="49.953735" lon="6.626392"><ele>196.25</ele><time>2011-05-31T10:42:39Z</time></trkpt><trkpt lat="49.953735" lon="6.626422"><ele>197.21</ele><time>2011-05-31T10:42:40Z</time></trkpt><trkpt lat="49.953732" lon="6.626452"><ele>196.25</ele><time>2011-05-31T10:42:41Z</time></trkpt><trkpt lat="49.953728" lon="6.626479"><ele>196.25</ele><time>2011-05-31T10:42:42Z</time></trkpt><trkpt lat="49.953518" lon="6.627076"><ele>195.77</ele><time>2011-05-31T10:42:57Z</time></trkpt><trkpt lat="49.953152" lon="6.628087"><ele>195.28</ele><time>2011-05-31T10:43:16Z</time></trkpt><trkpt lat="49.953121" lon="6.628142"><ele>195.28</ele><time>2011-05-31T10:43:17Z</time></trkpt><trkpt lat="49.953083" lon="6.628193"><ele>194.80</ele><time>2011-05-31T10:43:18Z</time></trkpt><trkpt lat="49.952961" lon="6.628365"><ele>193.84</ele><time>2011-05-31T10:43:21Z</time></trkpt><trkpt lat="49.952785" lon="6.628619"><ele>192.88</ele><time>2011-05-31T10:43:25Z</time></trkpt><trkpt lat="49.952686" lon="6.628735"><ele>192.88</ele><time>2011-05-31T10:43:27Z</time></trkpt><trkpt lat="49.952579" lon="6.628833"><ele>190.00</ele><time>2011-05-31T10:43:29Z</time></trkpt><trkpt lat="49.951618" lon="6.629432"><ele>189.52</ele><time>2011-05-31T10:43:45Z</time></trkpt><trkpt lat="49.951183" lon="6.629693"><ele>190.48</ele><time>2011-05-31T10:43:54Z</time></trkpt><trkpt lat="49.950619" lon="6.630064"><ele>191.92</ele><time>2011-05-31T10:44:10Z</time></trkpt><trkpt lat="49.950241" lon="6.630343"><ele>191.92</ele><time>2011-05-31T10:44:23Z</time></trkpt><trkpt lat="49.950218" lon="6.630318"><ele>191.92</ele><time>2011-05-31T10:44:24Z</time></trkpt><trkpt lat="49.950199" lon="6.630262"><ele>191.44</ele><time>2011-05-31T10:44:25Z</time></trkpt><trkpt lat="49.950191" lon="6.630184"><ele>190.48</ele><time>2011-05-31T10:44:26Z</time></trkpt><trkpt lat="49.950188" lon="6.630097"><ele>189.52</ele><time>2011-05-31T10:44:27Z</time></trkpt><trkpt lat="49.950188" lon="6.630006"><ele>189.52</ele><time>2011-05-31T10:44:28Z</time></trkpt><trkpt lat="49.950245" lon="6.629321"><ele>188.08</ele><time>2011-05-31T10:44:36Z</time></trkpt><trkpt lat="49.950256" lon="6.629112"><ele>187.59</ele><time>2011-05-31T10:44:38Z</time></trkpt><trkpt lat="49.950260" lon="6.629010"><ele>187.59</ele><time>2011-05-31T10:44:39Z</time></trkpt><trkpt lat="49.950256" lon="6.628914"><ele>187.59</ele><time>2011-05-31T10:44:40Z</time></trkpt><trkpt lat="49.950241" lon="6.628825"><ele>187.59</ele><time>2011-05-31T10:44:41Z</time></trkpt><trkpt lat="49.950207" lon="6.628746"><ele>187.59</ele><time>2011-05-31T10:44:42Z</time></trkpt><trkpt lat="49.950169" lon="6.628682"><ele>187.59</ele><time>2011-05-31T10:44:43Z</time></trkpt><trkpt lat="49.950127" lon="6.628621"><ele>187.59</ele><time>2011-05-31T10:44:44Z</time></trkpt><trkpt lat="49.950085" lon="6.628561"><ele>187.11</ele><time>2011-05-31T10:44:45Z</time></trkpt><trkpt lat="49.950047" lon="6.628498"><ele>187.11</ele><time>2011-05-31T10:44:46Z</time></trkpt><trkpt lat="49.950012" lon="6.628426"><ele>187.11</ele><time>2011-05-31T10:44:47Z</time></trkpt><trkpt lat="49.949978" lon="6.628358"><ele>187.11</ele><time>2011-05-31T10:44:48Z</time></trkpt><trkpt lat="49.949932" lon="6.628295"><ele>187.11</ele><time>2011-05-31T10:44:49Z</time></trkpt><trkpt lat="49.949886" lon="6.628238"><ele>186.63</ele><time>2011-05-31T10:44:50Z</time></trkpt><trkpt lat="49.949844" lon="6.628187"><ele>186.63</ele><time>2011-05-31T10:44:51Z</time></trkpt><trkpt lat="49.949764" lon="6.628101"><ele>187.11</ele><time>2011-05-31T10:44:53Z</time></trkpt><trkpt lat="49.949722" lon="6.628076"><ele>187.11</ele><time>2011-05-31T10:44:54Z</time></trkpt><trkpt lat="49.949677" lon="6.628046"><ele>186.63</ele><time>2011-05-31T10:44:55Z</time></trkpt><trkpt lat="49.949139" lon="6.627728"><ele>186.63</ele><time>2011-05-31T10:45:07Z</time></trkpt><trkpt lat="49.948948" lon="6.627596"><ele>186.15</ele><time>2011-05-31T10:45:12Z</time></trkpt><trkpt lat="49.948730" lon="6.627501"><ele>186.63</ele><time>2011-05-31T10:45:17Z</time></trkpt><trkpt lat="49.948505" lon="6.627489"><ele>186.15</ele><time>2011-05-31T10:45:22Z</time></trkpt><trkpt lat="49.948425" lon="6.627511"><ele>186.15</ele><time>2011-05-31T10:45:24Z</time></trkpt><trkpt lat="49.948387" lon="6.627529"><ele>186.15</ele><time>2011-05-31T10:45:25Z</time></trkpt><trkpt lat="49.948238" lon="6.627605"><ele>186.15</ele><time>2011-05-31T10:45:29Z</time></trkpt><trkpt lat="49.948204" lon="6.627625"><ele>186.15</ele><time>2011-05-31T10:45:30Z</time></trkpt><trkpt lat="49.948132" lon="6.627686"><ele>186.15</ele><time>2011-05-31T10:45:32Z</time></trkpt><trkpt lat="49.948029" lon="6.627820"><ele>186.15</ele><time>2011-05-31T10:45:35Z</time></trkpt><trkpt lat="49.947639" lon="6.628626"><ele>185.19</ele><time>2011-05-31T10:45:49Z</time></trkpt><trkpt lat="49.947559" lon="6.628901"><ele>184.71</ele><time>2011-05-31T10:45:53Z</time></trkpt><trkpt lat="49.947548" lon="6.628974"><ele>185.19</ele><time>2011-05-31T10:45:54Z</time></trkpt><trkpt lat="49.947483" lon="6.630001"><ele>185.19</ele><time>2011-05-31T10:46:08Z</time></trkpt><trkpt lat="49.947544" lon="6.631026"><ele>185.19</ele><time>2011-05-31T10:46:22Z</time></trkpt><trkpt lat="49.947598" lon="6.631639"><ele>184.23</ele><time>2011-05-31T10:46:33Z</time></trkpt><trkpt lat="49.947674" lon="6.632388"><ele>184.23</ele><time>2011-05-31T10:46:45Z</time></trkpt><trkpt lat="49.947781" lon="6.632708"><ele>184.71</ele><time>2011-05-31T10:46:50Z</time></trkpt><trkpt lat="49.947807" lon="6.632763"><ele>184.71</ele><time>2011-05-31T10:46:51Z</time></trkpt><trkpt lat="49.948040" lon="6.633256"><ele>184.23</ele><time>2011-05-31T10:47:03Z</time></trkpt><trkpt lat="49.948025" lon="6.633300"><ele>184.23</ele><time>2011-05-31T10:47:04Z</time></trkpt><trkpt lat="49.948002" lon="6.633334"><ele>184.23</ele><time>2011-05-31T10:47:05Z</time></trkpt><trkpt lat="49.947975" lon="6.633357"><ele>184.23</ele><time>2011-05-31T10:47:06Z</time></trkpt><trkpt lat="49.947941" lon="6.633372"><ele>184.23</ele><time>2011-05-31T10:47:07Z</time></trkpt><trkpt lat="49.947903" lon="6.633380"><ele>184.23</ele><time>2011-05-31T10:47:08Z</time></trkpt><trkpt lat="49.947441" lon="6.633524"><ele>184.23</ele><time>2011-05-31T10:47:20Z</time></trkpt><trkpt lat="49.947083" lon="6.634191"><ele>184.23</ele><time>2011-05-31T10:47:34Z</time></trkpt><trkpt lat="49.947052" lon="6.634271"><ele>185.19</ele><time>2011-05-31T10:47:36Z</time></trkpt><trkpt lat="49.946899" lon="6.634625"><ele>185.19</ele><time>2011-05-31T10:47:49Z</time></trkpt><trkpt lat="49.946522" lon="6.634959"><ele>183.75</ele><time>2011-05-31T10:48:03Z</time></trkpt><trkpt lat="49.946007" lon="6.635107"><ele>183.27</ele><time>2011-05-31T10:48:16Z</time></trkpt><trkpt lat="49.945610" lon="6.634926"><ele>181.35</ele><time>2011-05-31T10:48:25Z</time></trkpt><trkpt lat="49.945248" lon="6.634646"><ele>180.38</ele><time>2011-05-31T10:48:32Z</time></trkpt><trkpt lat="49.945118" lon="6.634498"><ele>179.90</ele><time>2011-05-31T10:48:35Z</time></trkpt><trkpt lat="49.944843" lon="6.634203"><ele>180.38</ele><time>2011-05-31T10:48:41Z</time></trkpt><trkpt lat="49.944405" lon="6.633516"><ele>180.38</ele><time>2011-05-31T10:48:56Z</time></trkpt><trkpt lat="49.944221" lon="6.632826"><ele>180.87</ele><time>2011-05-31T10:49:09Z</time></trkpt><trkpt lat="49.944195" lon="6.632486"><ele>180.38</ele><time>2011-05-31T10:49:15Z</time></trkpt><trkpt lat="49.944187" lon="6.632275"><ele>179.90</ele><time>2011-05-31T10:49:18Z</time></trkpt><trkpt lat="49.944187" lon="6.632212"><ele>179.90</ele><time>2011-05-31T10:49:19Z</time></trkpt><trkpt lat="49.944187" lon="6.632156"><ele>180.38</ele><time>2011-05-31T10:49:20Z</time></trkpt><trkpt lat="49.944176" lon="6.632106"><ele>180.38</ele><time>2011-05-31T10:49:21Z</time></trkpt><trkpt lat="49.944168" lon="6.632060"><ele>180.38</ele><time>2011-05-31T10:49:22Z</time></trkpt><trkpt lat="49.944057" lon="6.631485"><ele>181.83</ele><time>2011-05-31T10:49:35Z</time></trkpt><trkpt lat="49.943935" lon="6.630774"><ele>182.31</ele><time>2011-05-31T10:49:50Z</time></trkpt><trkpt lat="49.943882" lon="6.629846"><ele>182.31</ele><time>2011-05-31T10:50:06Z</time></trkpt><trkpt lat="49.943913" lon="6.628841"><ele>182.31</ele><time>2011-05-31T10:50:20Z</time></trkpt><trkpt lat="49.943867" lon="6.628231"><ele>182.79</ele><time>2011-05-31T10:50:27Z</time></trkpt><trkpt lat="49.943840" lon="6.627995"><ele>180.38</ele><time>2011-05-31T10:50:31Z</time></trkpt><trkpt lat="49.943817" lon="6.627816"><ele>180.87</ele><time>2011-05-31T10:50:34Z</time></trkpt><trkpt lat="49.943806" lon="6.627753"><ele>180.87</ele><time>2011-05-31T10:50:35Z</time></trkpt><trkpt lat="49.943790" lon="6.627626"><ele>180.87</ele><time>2011-05-31T10:50:37Z</time></trkpt><trkpt lat="49.943787" lon="6.627565"><ele>180.87</ele><time>2011-05-31T10:50:38Z</time></trkpt><trkpt lat="49.943726" lon="6.626960"><ele>180.87</ele><time>2011-05-31T10:50:48Z</time></trkpt><trkpt lat="49.943542" lon="6.626158"><ele>180.87</ele><time>2011-05-31T10:51:01Z</time></trkpt><trkpt lat="49.943245" lon="6.625429"><ele>181.35</ele><time>2011-05-31T10:51:15Z</time></trkpt><trkpt lat="49.943024" lon="6.625009"><ele>181.83</ele><time>2011-05-31T10:51:22Z</time></trkpt><trkpt lat="49.942986" lon="6.624952"><ele>181.35</ele><time>2011-05-31T10:51:23Z</time></trkpt><trkpt lat="49.942883" lon="6.624794"><ele>181.83</ele><time>2011-05-31T10:51:26Z</time></trkpt><trkpt lat="49.942848" lon="6.624747"><ele>181.83</ele><time>2011-05-31T10:51:27Z</time></trkpt><trkpt lat="49.942818" lon="6.624706"><ele>182.31</ele><time>2011-05-31T10:51:28Z</time></trkpt><trkpt lat="49.942787" lon="6.624670"><ele>182.31</ele><time>2011-05-31T10:51:29Z</time></trkpt><trkpt lat="49.942749" lon="6.624634"><ele>182.79</ele><time>2011-05-31T10:51:30Z</time></trkpt><trkpt lat="49.942719" lon="6.624597"><ele>182.79</ele><time>2011-05-31T10:51:31Z</time></trkpt><trkpt lat="49.942417" lon="6.624271"><ele>184.71</ele><time>2011-05-31T10:51:43Z</time></trkpt><trkpt lat="49.942062" lon="6.624000"><ele>184.23</ele><time>2011-05-31T10:51:56Z</time></trkpt><trkpt lat="49.941654" lon="6.623877"><ele>184.23</ele><time>2011-05-31T10:52:08Z</time></trkpt><trkpt lat="49.941162" lon="6.623940"><ele>185.19</ele><time>2011-05-31T10:52:22Z</time></trkpt><trkpt lat="49.940674" lon="6.624425"><ele>184.23</ele><time>2011-05-31T10:52:36Z</time></trkpt><trkpt lat="49.940113" lon="6.625194"><ele>183.27</ele><time>2011-05-31T10:52:52Z</time></trkpt><trkpt lat="49.939857" lon="6.625674"><ele>182.79</ele><time>2011-05-31T10:53:00Z</time></trkpt><trkpt lat="49.939705" lon="6.625916"><ele>181.35</ele><time>2011-05-31T10:53:08Z</time></trkpt><trkpt lat="49.939636" lon="6.625949"><ele>181.35</ele><time>2011-05-31T10:53:18Z</time></trkpt><trkpt lat="49.939636" lon="6.625949"><ele>181.83</ele><time>2011-05-31T10:53:36Z</time></trkpt><trkpt lat="49.939636" lon="6.625950"><ele>181.83</ele><time>2011-05-31T10:53:48Z</time></trkpt><trkpt lat="49.938869" lon="6.627183"><ele>174.14</ele><time>2011-05-31T11:40:11Z</time></trkpt><trkpt lat="49.938839" lon="6.627225"><ele>174.14</ele><time>2011-05-31T11:40:12Z</time></trkpt><trkpt lat="49.938686" lon="6.627385"><ele>174.14</ele><time>2011-05-31T11:40:16Z</time></trkpt><trkpt lat="49.938652" lon="6.627429"><ele>174.14</ele><time>2011-05-31T11:40:17Z</time></trkpt><trkpt lat="49.938164" lon="6.627806"><ele>173.66</ele><time>2011-05-31T11:40:28Z</time></trkpt><trkpt lat="49.938065" lon="6.627860"><ele>174.14</ele><time>2011-05-31T11:40:30Z</time></trkpt><trkpt lat="49.938007" lon="6.627881"><ele>173.66</ele><time>2011-05-31T11:40:31Z</time></trkpt><trkpt lat="49.937485" lon="6.627978"><ele>173.17</ele><time>2011-05-31T11:40:40Z</time></trkpt><trkpt lat="49.937431" lon="6.627967"><ele>173.17</ele><time>2011-05-31T11:40:41Z</time></trkpt><trkpt lat="49.937275" lon="6.627923"><ele>172.69</ele><time>2011-05-31T11:40:44Z</time></trkpt><trkpt lat="49.937229" lon="6.627900"><ele>172.69</ele><time>2011-05-31T11:40:45Z</time></trkpt><trkpt lat="49.937084" lon="6.627831"><ele>172.21</ele><time>2011-05-31T11:40:48Z</time></trkpt><trkpt lat="49.936810" lon="6.627618"><ele>172.21</ele><time>2011-05-31T11:40:54Z</time></trkpt><trkpt lat="49.936638" lon="6.627365"><ele>172.21</ele><time>2011-05-31T11:40:59Z</time></trkpt><trkpt lat="49.936584" lon="6.627249"><ele>172.21</ele><time>2011-05-31T11:41:01Z</time></trkpt><trkpt lat="49.936554" lon="6.627188"><ele>172.69</ele><time>2011-05-31T11:41:02Z</time></trkpt><trkpt lat="49.936245" lon="6.626672"><ele>172.21</ele><time>2011-05-31T11:41:10Z</time></trkpt><trkpt lat="49.935913" lon="6.625549"><ele>171.73</ele><time>2011-05-31T11:41:24Z</time></trkpt><trkpt lat="49.935703" lon="6.624156"><ele>171.25</ele><time>2011-05-31T11:41:40Z</time></trkpt><trkpt lat="49.935646" lon="6.622940"><ele>172.21</ele><time>2011-05-31T11:41:54Z</time></trkpt><trkpt lat="49.935589" lon="6.621500"><ele>172.69</ele><time>2011-05-31T11:42:11Z</time></trkpt><trkpt lat="49.935471" lon="6.620765"><ele>174.62</ele><time>2011-05-31T11:42:25Z</time></trkpt><trkpt lat="49.935280" lon="6.620155"><ele>177.02</ele><time>2011-05-31T11:42:41Z</time></trkpt><trkpt lat="49.935005" lon="6.619411"><ele>177.50</ele><time>2011-05-31T11:42:59Z</time></trkpt><trkpt lat="49.934837" lon="6.619012"><ele>177.02</ele><time>2011-05-31T11:43:07Z</time></trkpt><trkpt lat="49.934814" lon="6.618954"><ele>177.02</ele><time>2011-05-31T11:43:08Z</time></trkpt><trkpt lat="49.934361" lon="6.617984"><ele>176.54</ele><time>2011-05-31T11:43:25Z</time></trkpt><trkpt lat="49.933796" lon="6.617233"><ele>176.06</ele><time>2011-05-31T11:43:40Z</time></trkpt><trkpt lat="49.933041" lon="6.616306"><ele>175.58</ele><time>2011-05-31T11:43:58Z</time></trkpt><trkpt lat="49.932259" lon="6.615448"><ele>174.62</ele><time>2011-05-31T11:44:16Z</time></trkpt><trkpt lat="49.931366" lon="6.615037"><ele>175.10</ele><time>2011-05-31T11:44:33Z</time></trkpt><trkpt lat="49.930370" lon="6.615056"><ele>175.10</ele><time>2011-05-31T11:44:52Z</time></trkpt><trkpt lat="49.929703" lon="6.615538"><ele>174.14</ele><time>2011-05-31T11:45:06Z</time></trkpt><trkpt lat="49.929218" lon="6.616137"><ele>174.62</ele><time>2011-05-31T11:45:18Z</time></trkpt><trkpt lat="49.929165" lon="6.616271"><ele>173.66</ele><time>2011-05-31T11:45:20Z</time></trkpt><trkpt lat="49.929134" lon="6.616333"><ele>173.66</ele><time>2011-05-31T11:45:21Z</time></trkpt><trkpt lat="49.929096" lon="6.616391"><ele>173.66</ele><time>2011-05-31T11:45:22Z</time></trkpt><trkpt lat="49.929054" lon="6.616445"><ele>174.14</ele><time>2011-05-31T11:45:23Z</time></trkpt><trkpt lat="49.928848" lon="6.616670"><ele>174.62</ele><time>2011-05-31T11:45:28Z</time></trkpt><trkpt lat="49.928802" lon="6.616699"><ele>174.14</ele><time>2011-05-31T11:45:29Z</time></trkpt><trkpt lat="49.928757" lon="6.616724"><ele>174.14</ele><time>2011-05-31T11:45:30Z</time></trkpt><trkpt lat="49.928204" lon="6.616981"><ele>175.10</ele><time>2011-05-31T11:45:44Z</time></trkpt><trkpt lat="49.927555" lon="6.617564"><ele>175.10</ele><time>2011-05-31T11:46:01Z</time></trkpt><trkpt lat="49.927197" lon="6.617893"><ele>175.10</ele><time>2011-05-31T11:46:10Z</time></trkpt><trkpt lat="49.926865" lon="6.618289"><ele>175.10</ele><time>2011-05-31T11:46:19Z</time></trkpt><trkpt lat="49.926537" lon="6.618853"><ele>175.10</ele><time>2011-05-31T11:46:29Z</time></trkpt><trkpt lat="49.926514" lon="6.618914"><ele>175.10</ele><time>2011-05-31T11:46:30Z</time></trkpt><trkpt lat="49.926498" lon="6.618979"><ele>175.10</ele><time>2011-05-31T11:46:31Z</time></trkpt><trkpt lat="49.926479" lon="6.619043"><ele>175.10</ele><time>2011-05-31T11:46:32Z</time></trkpt><trkpt lat="49.926460" lon="6.619107"><ele>174.62</ele><time>2011-05-31T11:46:33Z</time></trkpt><trkpt lat="49.926434" lon="6.619171"><ele>175.10</ele><time>2011-05-31T11:46:34Z</time></trkpt><trkpt lat="49.926399" lon="6.619236"><ele>174.14</ele><time>2011-05-31T11:46:35Z</time></trkpt><trkpt lat="49.926014" lon="6.619953"><ele>173.17</ele><time>2011-05-31T11:46:46Z</time></trkpt><trkpt lat="49.925854" lon="6.620238"><ele>172.21</ele><time>2011-05-31T11:46:50Z</time></trkpt><trkpt lat="49.925762" lon="6.620382"><ele>172.21</ele><time>2011-05-31T11:46:52Z</time></trkpt><trkpt lat="49.925190" lon="6.621293"><ele>172.21</ele><time>2011-05-31T11:47:06Z</time></trkpt><trkpt lat="49.925014" lon="6.621485"><ele>172.21</ele><time>2011-05-31T11:47:10Z</time></trkpt><trkpt lat="49.924969" lon="6.621523"><ele>171.73</ele><time>2011-05-31T11:47:11Z</time></trkpt><trkpt lat="49.924580" lon="6.621789"><ele>171.73</ele><time>2011-05-31T11:47:19Z</time></trkpt><trkpt lat="49.924149" lon="6.621947"><ele>173.17</ele><time>2011-05-31T11:47:28Z</time></trkpt><trkpt lat="49.923603" lon="6.621886"><ele>173.66</ele><time>2011-05-31T11:47:41Z</time></trkpt><trkpt lat="49.923527" lon="6.621856"><ele>173.66</ele><time>2011-05-31T11:47:43Z</time></trkpt><trkpt lat="49.922974" lon="6.621473"><ele>174.14</ele><time>2011-05-31T11:47:58Z</time></trkpt><trkpt lat="49.922695" lon="6.621030"><ele>175.10</ele><time>2011-05-31T11:48:10Z</time></trkpt><trkpt lat="49.922466" lon="6.620652"><ele>176.54</ele><time>2011-05-31T11:48:22Z</time></trkpt><trkpt lat="49.922337" lon="6.620255"><ele>177.98</ele><time>2011-05-31T11:48:35Z</time></trkpt><trkpt lat="49.922142" lon="6.619763"><ele>179.42</ele><time>2011-05-31T11:48:50Z</time></trkpt><trkpt lat="49.922035" lon="6.619354"><ele>181.35</ele><time>2011-05-31T11:49:05Z</time></trkpt><trkpt lat="49.922012" lon="6.619235"><ele>181.83</ele><time>2011-05-31T11:49:11Z</time></trkpt><trkpt lat="49.922009" lon="6.619209"><ele>182.31</ele><time>2011-05-31T11:49:12Z</time></trkpt><trkpt lat="49.921993" lon="6.619139"><ele>182.31</ele><time>2011-05-31T11:49:15Z</time></trkpt><trkpt lat="49.921986" lon="6.619113"><ele>182.31</ele><time>2011-05-31T11:49:16Z</time></trkpt><trkpt lat="49.921974" lon="6.619092"><ele>182.79</ele><time>2011-05-31T11:49:17Z</time></trkpt><trkpt lat="49.921970" lon="6.619076"><ele>182.79</ele><time>2011-05-31T11:49:18Z</time></trkpt><trkpt lat="49.921963" lon="6.619060"><ele>183.27</ele><time>2011-05-31T11:49:19Z</time></trkpt><trkpt lat="49.921955" lon="6.619044"><ele>183.75</ele><time>2011-05-31T11:49:20Z</time></trkpt><trkpt lat="49.921871" lon="6.618718"><ele>185.19</ele><time>2011-05-31T11:49:37Z</time></trkpt><trkpt lat="49.921791" lon="6.618531"><ele>189.04</ele><time>2011-05-31T11:49:45Z</time></trkpt><trkpt lat="49.921730" lon="6.618258"><ele>186.63</ele><time>2011-05-31T11:49:56Z</time></trkpt><trkpt lat="49.921722" lon="6.618242"><ele>186.63</ele><time>2011-05-31T11:49:57Z</time></trkpt><trkpt lat="49.921581" lon="6.617846"><ele>189.04</ele><time>2011-05-31T11:50:14Z</time></trkpt><trkpt lat="49.921490" lon="6.617562"><ele>190.00</ele><time>2011-05-31T11:50:26Z</time></trkpt><trkpt lat="49.921429" lon="6.617329"><ele>191.44</ele><time>2011-05-31T11:50:36Z</time></trkpt><trkpt lat="49.921425" lon="6.617307"><ele>191.44</ele><time>2011-05-31T11:50:37Z</time></trkpt><trkpt lat="49.921413" lon="6.617265"><ele>191.44</ele><time>2011-05-31T11:50:39Z</time></trkpt><trkpt lat="49.921410" lon="6.617245"><ele>191.44</ele><time>2011-05-31T11:50:40Z</time></trkpt><trkpt lat="49.921410" lon="6.617221"><ele>191.44</ele><time>2011-05-31T11:50:41Z</time></trkpt><trkpt lat="49.921406" lon="6.617196"><ele>191.44</ele><time>2011-05-31T11:50:42Z</time></trkpt><trkpt lat="49.921402" lon="6.617175"><ele>191.44</ele><time>2011-05-31T11:50:43Z</time></trkpt><trkpt lat="49.921356" lon="6.616849"><ele>193.84</ele><time>2011-05-31T11:50:59Z</time></trkpt><trkpt lat="49.921326" lon="6.616486"><ele>194.80</ele><time>2011-05-31T11:51:16Z</time></trkpt><trkpt lat="49.921307" lon="6.616073"><ele>194.32</ele><time>2011-05-31T11:51:32Z</time></trkpt><trkpt lat="49.921368" lon="6.615886"><ele>192.40</ele><time>2011-05-31T11:51:36Z</time></trkpt><trkpt lat="49.921329" lon="6.615644"><ele>189.52</ele><time>2011-05-31T11:51:40Z</time></trkpt><trkpt lat="49.921310" lon="6.615364"><ele>186.15</ele><time>2011-05-31T11:51:44Z</time></trkpt><trkpt lat="49.921303" lon="6.615309"><ele>185.19</ele><time>2011-05-31T11:51:45Z</time></trkpt><trkpt lat="49.921265" lon="6.614463"><ele>182.79</ele><time>2011-05-31T11:51:49Z</time></trkpt><trkpt lat="49.921242" lon="6.614371"><ele>181.35</ele><time>2011-05-31T11:51:50Z</time></trkpt><trkpt lat="49.921135" lon="6.614038"><ele>177.50</ele><time>2011-05-31T11:51:53Z</time></trkpt><trkpt lat="49.920994" lon="6.613591"><ele>173.17</ele><time>2011-05-31T11:51:56Z</time></trkpt><trkpt lat="49.920944" lon="6.613446"><ele>171.25</ele><time>2011-05-31T11:51:57Z</time></trkpt><trkpt lat="49.920830" lon="6.613153"><ele>168.85</ele><time>2011-05-31T11:51:59Z</time></trkpt><trkpt lat="49.920765" lon="6.613011"><ele>167.89</ele><time>2011-05-31T11:52:00Z</time></trkpt><trkpt lat="49.920689" lon="6.612880"><ele>167.89</ele><time>2011-05-31T11:52:01Z</time></trkpt><trkpt lat="49.919750" lon="6.611560"><ele>165.48</ele><time>2011-05-31T11:52:14Z</time></trkpt><trkpt lat="49.919125" lon="6.610601"><ele>163.56</ele><time>2011-05-31T11:52:25Z</time></trkpt><trkpt lat="49.919060" lon="6.610541"><ele>163.56</ele><time>2011-05-31T11:52:26Z</time></trkpt><trkpt lat="49.918674" lon="6.610281"><ele>164.04</ele><time>2011-05-31T11:52:32Z</time></trkpt><trkpt lat="49.918613" lon="6.610268"><ele>164.52</ele><time>2011-05-31T11:52:33Z</time></trkpt><trkpt lat="49.918556" lon="6.610262"><ele>164.52</ele><time>2011-05-31T11:52:34Z</time></trkpt><trkpt lat="49.918495" lon="6.610260"><ele>164.52</ele><time>2011-05-31T11:52:35Z</time></trkpt><trkpt lat="49.918438" lon="6.610265"><ele>164.52</ele><time>2011-05-31T11:52:36Z</time></trkpt><trkpt lat="49.918385" lon="6.610277"><ele>165.48</ele><time>2011-05-31T11:52:37Z</time></trkpt><trkpt lat="49.918255" lon="6.610333"><ele>165.96</ele><time>2011-05-31T11:52:40Z</time></trkpt><trkpt lat="49.918224" lon="6.610362"><ele>166.45</ele><time>2011-05-31T11:52:41Z</time></trkpt><trkpt lat="49.918201" lon="6.610390"><ele>165.96</ele><time>2011-05-31T11:52:42Z</time></trkpt><trkpt lat="49.917988" lon="6.610877"><ele>167.41</ele><time>2011-05-31T11:52:55Z</time></trkpt><trkpt lat="49.917812" lon="6.611422"><ele>167.41</ele><time>2011-05-31T11:53:08Z</time></trkpt><trkpt lat="49.917622" lon="6.611948"><ele>167.89</ele><time>2011-05-31T11:53:18Z</time></trkpt><trkpt lat="49.917423" lon="6.612385"><ele>168.37</ele><time>2011-05-31T11:53:29Z</time></trkpt><trkpt lat="49.917068" lon="6.612807"><ele>169.81</ele><time>2011-05-31T11:53:44Z</time></trkpt><trkpt lat="49.916718" lon="6.612963"><ele>167.41</ele><time>2011-05-31T11:53:55Z</time></trkpt><trkpt lat="49.916607" lon="6.613015"><ele>166.45</ele><time>2011-05-31T11:53:57Z</time></trkpt><trkpt lat="49.915863" lon="6.613175"><ele>163.56</ele><time>2011-05-31T11:54:08Z</time></trkpt><trkpt lat="49.915802" lon="6.613152"><ele>163.56</ele><time>2011-05-31T11:54:09Z</time></trkpt><trkpt lat="49.915386" lon="6.612893"><ele>166.93</ele><time>2011-05-31T11:54:19Z</time></trkpt><trkpt lat="49.915157" lon="6.612580"><ele>167.41</ele><time>2011-05-31T11:54:31Z</time></trkpt><trkpt lat="49.915142" lon="6.612518"><ele>167.41</ele><time>2011-05-31T11:54:32Z</time></trkpt><trkpt lat="49.915043" lon="6.612197"><ele>164.52</ele><time>2011-05-31T11:54:36Z</time></trkpt><trkpt lat="49.914673" lon="6.611265"><ele>163.08</ele><time>2011-05-31T11:54:45Z</time></trkpt><trkpt lat="49.914566" lon="6.611009"><ele>163.08</ele><time>2011-05-31T11:54:48Z</time></trkpt><trkpt lat="49.914528" lon="6.610945"><ele>163.56</ele><time>2011-05-31T11:54:49Z</time></trkpt><trkpt lat="49.914486" lon="6.610894"><ele>163.56</ele><time>2011-05-31T11:54:50Z</time></trkpt><trkpt lat="49.914448" lon="6.610850"><ele>164.04</ele><time>2011-05-31T11:54:51Z</time></trkpt><trkpt lat="49.914406" lon="6.610825"><ele>164.52</ele><time>2011-05-31T11:54:52Z</time></trkpt><trkpt lat="49.914371" lon="6.610812"><ele>165.48</ele><time>2011-05-31T11:54:53Z</time></trkpt><trkpt lat="49.914337" lon="6.610806"><ele>165.96</ele><time>2011-05-31T11:54:54Z</time></trkpt><trkpt lat="49.914307" lon="6.610806"><ele>166.45</ele><time>2011-05-31T11:54:55Z</time></trkpt><trkpt lat="49.914276" lon="6.610805"><ele>166.45</ele><time>2011-05-31T11:54:56Z</time></trkpt><trkpt lat="49.914253" lon="6.610806"><ele>166.45</ele><time>2011-05-31T11:54:57Z</time></trkpt><trkpt lat="49.914230" lon="6.610811"><ele>166.93</ele><time>2011-05-31T11:54:58Z</time></trkpt><trkpt lat="49.913834" lon="6.610857"><ele>168.37</ele><time>2011-05-31T11:55:14Z</time></trkpt><trkpt lat="49.913448" lon="6.610952"><ele>168.37</ele><time>2011-05-31T11:55:27Z</time></trkpt><trkpt lat="49.912956" lon="6.611231"><ele>168.37</ele><time>2011-05-31T11:55:43Z</time></trkpt><trkpt lat="49.912598" lon="6.611561"><ele>168.85</ele><time>2011-05-31T11:55:58Z</time></trkpt><trkpt lat="49.912193" lon="6.612072"><ele>167.89</ele><time>2011-05-31T11:56:14Z</time></trkpt><trkpt lat="49.911774" lon="6.612750"><ele>168.37</ele><time>2011-05-31T11:56:30Z</time></trkpt><trkpt lat="49.911366" lon="6.613508"><ele>167.89</ele><time>2011-05-31T11:56:45Z</time></trkpt><trkpt lat="49.910915" lon="6.614403"><ele>167.89</ele><time>2011-05-31T11:57:01Z</time></trkpt><trkpt lat="49.910561" lon="6.615111"><ele>166.45</ele><time>2011-05-31T11:57:14Z</time></trkpt><trkpt lat="49.910534" lon="6.615165"><ele>166.45</ele><time>2011-05-31T11:57:15Z</time></trkpt><trkpt lat="49.910095" lon="6.616035"><ele>166.93</ele><time>2011-05-31T11:57:29Z</time></trkpt><trkpt lat="49.909866" lon="6.616413"><ele>166.45</ele><time>2011-05-31T11:57:36Z</time></trkpt><trkpt lat="49.909153" lon="6.617202"><ele>165.96</ele><time>2011-05-31T11:57:53Z</time></trkpt><trkpt lat="49.908913" lon="6.617386"><ele>162.60</ele><time>2011-05-31T11:57:58Z</time></trkpt><trkpt lat="49.908867" lon="6.617417"><ele>168.37</ele><time>2011-05-31T11:57:59Z</time></trkpt><trkpt lat="49.908817" lon="6.617446"><ele>168.37</ele><time>2011-05-31T11:58:00Z</time></trkpt><trkpt lat="49.908531" lon="6.617618"><ele>165.48</ele><time>2011-05-31T11:58:06Z</time></trkpt><trkpt lat="49.908443" lon="6.617688"><ele>165.48</ele><time>2011-05-31T11:58:08Z</time></trkpt><trkpt lat="49.908405" lon="6.617726"><ele>165.48</ele><time>2011-05-31T11:58:09Z</time></trkpt><trkpt lat="49.908165" lon="6.617961"><ele>168.37</ele><time>2011-05-31T11:58:19Z</time></trkpt><trkpt lat="49.907879" lon="6.618045"><ele>168.37</ele><time>2011-05-31T11:58:27Z</time></trkpt><trkpt lat="49.907452" lon="6.618075"><ele>167.89</ele><time>2011-05-31T11:58:36Z</time></trkpt><trkpt lat="49.907356" lon="6.618084"><ele>167.89</ele><time>2011-05-31T11:58:38Z</time></trkpt><trkpt lat="49.907177" lon="6.618067"><ele>167.89</ele><time>2011-05-31T11:58:42Z</time></trkpt><trkpt lat="49.907131" lon="6.618048"><ele>167.89</ele><time>2011-05-31T11:58:43Z</time></trkpt><trkpt lat="49.906792" lon="6.617864"><ele>166.93</ele><time>2011-05-31T11:58:50Z</time></trkpt><trkpt lat="49.906574" lon="6.617692"><ele>166.93</ele><time>2011-05-31T11:58:55Z</time></trkpt><trkpt lat="49.906227" lon="6.617201"><ele>167.41</ele><time>2011-05-31T11:59:07Z</time></trkpt><trkpt lat="49.905933" lon="6.616820"><ele>168.37</ele><time>2011-05-31T11:59:18Z</time></trkpt><trkpt lat="49.905697" lon="6.616566"><ele>169.81</ele><time>2011-05-31T11:59:28Z</time></trkpt><trkpt lat="49.905376" lon="6.616135"><ele>169.33</ele><time>2011-05-31T11:59:41Z</time></trkpt><trkpt lat="49.905308" lon="6.616043"><ele>169.33</ele><time>2011-05-31T11:59:43Z</time></trkpt><trkpt lat="49.905106" lon="6.616003"><ele>168.37</ele><time>2011-05-31T11:59:47Z</time></trkpt><trkpt lat="49.905136" lon="6.615768"><ele>167.89</ele><time>2011-05-31T11:59:48Z</time></trkpt><trkpt lat="49.905067" lon="6.615634"><ele>166.45</ele><time>2011-05-31T11:59:50Z</time></trkpt><trkpt lat="49.905022" lon="6.615577"><ele>166.45</ele><time>2011-05-31T11:59:51Z</time></trkpt><trkpt lat="49.904961" lon="6.615521"><ele>165.48</ele><time>2011-05-31T11:59:52Z</time></trkpt><trkpt lat="49.904892" lon="6.615461"><ele>165.48</ele><time>2011-05-31T11:59:53Z</time></trkpt><trkpt lat="49.904327" lon="6.615101"><ele>162.12</ele><time>2011-05-31T11:59:59Z</time></trkpt><trkpt lat="49.904148" lon="6.615020"><ele>162.12</ele><time>2011-05-31T12:00:01Z</time></trkpt><trkpt lat="49.903980" lon="6.614987"><ele>162.12</ele><time>2011-05-31T12:00:03Z</time></trkpt><trkpt lat="49.903900" lon="6.614989"><ele>162.60</ele><time>2011-05-31T12:00:04Z</time></trkpt><trkpt lat="49.903824" lon="6.615005"><ele>161.64</ele><time>2011-05-31T12:00:05Z</time></trkpt><trkpt lat="49.903751" lon="6.615028"><ele>162.12</ele><time>2011-05-31T12:00:06Z</time></trkpt><trkpt lat="49.903282" lon="6.615214"><ele>164.52</ele><time>2011-05-31T12:00:16Z</time></trkpt><trkpt lat="49.902969" lon="6.615302"><ele>164.52</ele><time>2011-05-31T12:00:25Z</time></trkpt><trkpt lat="49.902935" lon="6.615278"><ele>165.00</ele><time>2011-05-31T12:00:26Z</time></trkpt><trkpt lat="49.902897" lon="6.615247"><ele>164.52</ele><time>2011-05-31T12:00:27Z</time></trkpt><trkpt lat="49.902855" lon="6.615212"><ele>163.56</ele><time>2011-05-31T12:00:28Z</time></trkpt><trkpt lat="49.902809" lon="6.615174"><ele>163.56</ele><time>2011-05-31T12:00:29Z</time></trkpt><trkpt lat="49.902760" lon="6.615137"><ele>163.08</ele><time>2011-05-31T12:00:30Z</time></trkpt><trkpt lat="49.902088" lon="6.614716"><ele>162.60</ele><time>2011-05-31T12:00:44Z</time></trkpt><trkpt lat="49.901722" lon="6.614405"><ele>162.12</ele><time>2011-05-31T12:00:57Z</time></trkpt><trkpt lat="49.901489" lon="6.614130"><ele>160.68</ele><time>2011-05-31T12:01:03Z</time></trkpt><trkpt lat="49.900856" lon="6.613722"><ele>160.68</ele><time>2011-05-31T12:01:19Z</time></trkpt><trkpt lat="49.900131" lon="6.613196"><ele>159.24</ele><time>2011-05-31T12:01:35Z</time></trkpt><trkpt lat="49.899960" lon="6.613029"><ele>158.27</ele><time>2011-05-31T12:01:39Z</time></trkpt><trkpt lat="49.899452" lon="6.612312"><ele>158.75</ele><time>2011-05-31T12:01:56Z</time></trkpt><trkpt lat="49.899166" lon="6.611695"><ele>159.24</ele><time>2011-05-31T12:02:09Z</time></trkpt><trkpt lat="49.898975" lon="6.611312"><ele>159.24</ele><time>2011-05-31T12:02:16Z</time></trkpt><trkpt lat="49.898952" lon="6.611248"><ele>158.75</ele><time>2011-05-31T12:02:17Z</time></trkpt><trkpt lat="49.898895" lon="6.611067"><ele>158.75</ele><time>2011-05-31T12:02:20Z</time></trkpt><trkpt lat="49.898701" lon="6.610106"><ele>158.75</ele><time>2011-05-31T12:02:36Z</time></trkpt><trkpt lat="49.898533" lon="6.609092"><ele>159.24</ele><time>2011-05-31T12:02:53Z</time></trkpt><trkpt lat="49.898262" lon="6.608015"><ele>159.24</ele><time>2011-05-31T12:03:11Z</time></trkpt><trkpt lat="49.897964" lon="6.607334"><ele>159.24</ele><time>2011-05-31T12:03:24Z</time></trkpt><trkpt lat="49.897736" lon="6.606984"><ele>158.75</ele><time>2011-05-31T12:03:32Z</time></trkpt><trkpt lat="49.897369" lon="6.606616"><ele>158.27</ele><time>2011-05-31T12:03:42Z</time></trkpt><trkpt lat="49.896847" lon="6.606266"><ele>158.27</ele><time>2011-05-31T12:03:57Z</time></trkpt><trkpt lat="49.896412" lon="6.606101"><ele>158.27</ele><time>2011-05-31T12:04:08Z</time></trkpt><trkpt lat="49.896370" lon="6.606099"><ele>157.79</ele><time>2011-05-31T12:04:09Z</time></trkpt><trkpt lat="49.896332" lon="6.606096"><ele>158.27</ele><time>2011-05-31T12:04:10Z</time></trkpt><trkpt lat="49.896126" lon="6.606062"><ele>157.79</ele><time>2011-05-31T12:04:15Z</time></trkpt><trkpt lat="49.896084" lon="6.606065"><ele>157.79</ele><time>2011-05-31T12:04:16Z</time></trkpt><trkpt lat="49.895706" lon="6.606101"><ele>158.27</ele><time>2011-05-31T12:04:25Z</time></trkpt><trkpt lat="49.895119" lon="6.606258"><ele>158.75</ele><time>2011-05-31T12:04:41Z</time></trkpt><trkpt lat="49.894604" lon="6.606436"><ele>159.24</ele><time>2011-05-31T12:04:56Z</time></trkpt><trkpt lat="49.893917" lon="6.606688"><ele>158.27</ele><time>2011-05-31T12:05:14Z</time></trkpt><trkpt lat="49.893246" lon="6.606959"><ele>158.27</ele><time>2011-05-31T12:05:33Z</time></trkpt><trkpt lat="49.892685" lon="6.607154"><ele>158.75</ele><time>2011-05-31T12:05:48Z</time></trkpt><trkpt lat="49.892044" lon="6.607258"><ele>159.24</ele><time>2011-05-31T12:06:05Z</time></trkpt><trkpt lat="49.891499" lon="6.607240"><ele>159.24</ele><time>2011-05-31T12:06:21Z</time></trkpt><trkpt lat="49.890732" lon="6.607031"><ele>158.27</ele><time>2011-05-31T12:06:41Z</time></trkpt><trkpt lat="49.889999" lon="6.606782"><ele>158.75</ele><time>2011-05-31T12:07:00Z</time></trkpt><trkpt lat="49.889317" lon="6.606322"><ele>158.27</ele><time>2011-05-31T12:07:17Z</time></trkpt><trkpt lat="49.888844" lon="6.605764"><ele>158.27</ele><time>2011-05-31T12:07:32Z</time></trkpt><trkpt lat="49.888729" lon="6.605628"><ele>158.27</ele><time>2011-05-31T12:07:35Z</time></trkpt><trkpt lat="49.888641" lon="6.605485"><ele>158.27</ele><time>2011-05-31T12:07:38Z</time></trkpt><trkpt lat="49.888462" lon="6.605230"><ele>157.79</ele><time>2011-05-31T12:07:44Z</time></trkpt><trkpt lat="49.888046" lon="6.604301"><ele>157.79</ele><time>2011-05-31T12:08:01Z</time></trkpt><trkpt lat="49.887684" lon="6.603391"><ele>157.79</ele><time>2011-05-31T12:08:18Z</time></trkpt><trkpt lat="49.887283" lon="6.602662"><ele>157.31</ele><time>2011-05-31T12:08:32Z</time></trkpt><trkpt lat="49.886761" lon="6.601998"><ele>157.31</ele><time>2011-05-31T12:08:48Z</time></trkpt><trkpt lat="49.886700" lon="6.601947"><ele>157.31</ele><time>2011-05-31T12:08:50Z</time></trkpt><trkpt lat="49.886654" lon="6.601923"><ele>157.79</ele><time>2011-05-31T12:08:51Z</time></trkpt><trkpt lat="49.885960" lon="6.601644"><ele>156.35</ele><time>2011-05-31T12:09:05Z</time></trkpt><trkpt lat="49.885151" lon="6.601556"><ele>157.31</ele><time>2011-05-31T12:09:23Z</time></trkpt><trkpt lat="49.884514" lon="6.601576"><ele>157.31</ele><time>2011-05-31T12:09:39Z</time></trkpt><trkpt lat="49.883934" lon="6.601636"><ele>157.31</ele><time>2011-05-31T12:09:54Z</time></trkpt><trkpt lat="49.883801" lon="6.601627"><ele>156.83</ele><time>2011-05-31T12:09:57Z</time></trkpt><trkpt lat="49.882900" lon="6.601645"><ele>156.83</ele><time>2011-05-31T12:10:17Z</time></trkpt><trkpt lat="49.882217" lon="6.601620"><ele>157.31</ele><time>2011-05-31T12:10:34Z</time></trkpt><trkpt lat="49.881462" lon="6.601580"><ele>157.31</ele><time>2011-05-31T12:10:53Z</time></trkpt><trkpt lat="49.880783" lon="6.601671"><ele>156.83</ele><time>2011-05-31T12:11:10Z</time></trkpt><trkpt lat="49.880741" lon="6.601682"><ele>156.35</ele><time>2011-05-31T12:11:11Z</time></trkpt><trkpt lat="49.880127" lon="6.602053"><ele>154.91</ele><time>2011-05-31T12:11:26Z</time></trkpt><trkpt lat="49.879601" lon="6.602563"><ele>154.91</ele><time>2011-05-31T12:11:39Z</time></trkpt><trkpt lat="49.879532" lon="6.602646"><ele>154.91</ele><time>2011-05-31T12:11:41Z</time></trkpt><trkpt lat="49.879135" lon="6.603261"><ele>154.91</ele><time>2011-05-31T12:11:54Z</time></trkpt><trkpt lat="49.878738" lon="6.604006"><ele>154.91</ele><time>2011-05-31T12:12:09Z</time></trkpt><trkpt lat="49.878487" lon="6.604577"><ele>156.83</ele><time>2011-05-31T12:12:24Z</time></trkpt><trkpt lat="49.878338" lon="6.605086"><ele>156.35</ele><time>2011-05-31T12:12:39Z</time></trkpt><trkpt lat="49.878208" lon="6.605906"><ele>156.83</ele><time>2011-05-31T12:12:54Z</time></trkpt><trkpt lat="49.878345" lon="6.606095"><ele>156.35</ele><time>2011-05-31T12:12:57Z</time></trkpt><trkpt lat="49.878738" lon="6.607765"><ele>155.87</ele><time>2011-05-31T12:13:24Z</time></trkpt><trkpt lat="49.878738" lon="6.607796"><ele>155.39</ele><time>2011-05-31T12:13:25Z</time></trkpt><trkpt lat="49.878750" lon="6.607832"><ele>155.87</ele><time>2011-05-31T12:13:26Z</time></trkpt><trkpt lat="49.878773" lon="6.607905"><ele>155.39</ele><time>2011-05-31T12:13:27Z</time></trkpt><trkpt lat="49.878990" lon="6.608553"><ele>155.39</ele><time>2011-05-31T12:13:40Z</time></trkpt><trkpt lat="49.879421" lon="6.609217"><ele>153.95</ele><time>2011-05-31T12:13:53Z</time></trkpt><trkpt lat="49.879574" lon="6.609374"><ele>153.95</ele><time>2011-05-31T12:13:57Z</time></trkpt><trkpt lat="49.879753" lon="6.609511"><ele>150.10</ele><time>2011-05-31T12:14:01Z</time></trkpt><trkpt lat="49.879910" lon="6.609613"><ele>150.10</ele><time>2011-05-31T12:14:04Z</time></trkpt><trkpt lat="49.880081" lon="6.609688"><ele>150.10</ele><time>2011-05-31T12:14:07Z</time></trkpt><trkpt lat="49.880283" lon="6.609803"><ele>150.10</ele><time>2011-05-31T12:14:11Z</time></trkpt><trkpt lat="49.880608" lon="6.609946"><ele>150.10</ele><time>2011-05-31T12:14:18Z</time></trkpt><trkpt lat="49.880642" lon="6.609969"><ele>150.10</ele><time>2011-05-31T12:14:19Z</time></trkpt><trkpt lat="49.880985" lon="6.610125"><ele>150.58</ele><time>2011-05-31T12:14:28Z</time></trkpt><trkpt lat="49.881016" lon="6.610130"><ele>152.03</ele><time>2011-05-31T12:14:29Z</time></trkpt><trkpt lat="49.881062" lon="6.610162"><ele>152.51</ele><time>2011-05-31T12:14:30Z</time></trkpt><trkpt lat="49.881432" lon="6.610347"><ele>152.51</ele><time>2011-05-31T12:14:42Z</time></trkpt><trkpt lat="49.881752" lon="6.610578"><ele>152.51</ele><time>2011-05-31T12:14:54Z</time></trkpt><trkpt lat="49.882027" lon="6.610887"><ele>152.51</ele><time>2011-05-31T12:15:05Z</time></trkpt><trkpt lat="49.882370" lon="6.611365"><ele>152.03</ele><time>2011-05-31T12:15:17Z</time></trkpt><trkpt lat="49.882782" lon="6.611934"><ele>152.99</ele><time>2011-05-31T12:15:31Z</time></trkpt><trkpt lat="49.883053" lon="6.612578"><ele>154.43</ele><time>2011-05-31T12:15:47Z</time></trkpt><trkpt lat="49.883289" lon="6.613321"><ele>154.91</ele><time>2011-05-31T12:16:02Z</time></trkpt><trkpt lat="49.883484" lon="6.614183"><ele>154.43</ele><time>2011-05-31T12:16:17Z</time></trkpt><trkpt lat="49.883774" lon="6.615045"><ele>154.91</ele><time>2011-05-31T12:16:34Z</time></trkpt><trkpt lat="49.883888" lon="6.615621"><ele>155.39</ele><time>2011-05-31T12:16:48Z</time></trkpt><trkpt lat="49.883896" lon="6.615778"><ele>154.91</ele><time>2011-05-31T12:17:00Z</time></trkpt><trkpt lat="49.883881" lon="6.615755"><ele>154.91</ele><time>2011-05-31T12:17:17Z</time></trkpt><trkpt lat="49.883865" lon="6.615780"><ele>154.43</ele><time>2011-05-31T12:17:45Z</time></trkpt><trkpt lat="49.883831" lon="6.615778"><ele>154.43</ele><time>2011-05-31T12:17:50Z</time></trkpt><trkpt lat="49.883831" lon="6.615778"><ele>154.91</ele><time>2011-05-31T12:18:19Z</time></trkpt><trkpt lat="49.883827" lon="6.615828"><ele>154.43</ele><time>2011-05-31T12:18:31Z</time></trkpt><trkpt lat="49.883839" lon="6.615864"><ele>154.43</ele><time>2011-05-31T12:18:35Z</time></trkpt><trkpt lat="49.883877" lon="6.615909"><ele>154.43</ele><time>2011-05-31T12:18:38Z</time></trkpt><trkpt lat="49.883972" lon="6.616553"><ele>154.43</ele><time>2011-05-31T12:18:52Z</time></trkpt><trkpt lat="49.883999" lon="6.617542"><ele>152.51</ele><time>2011-05-31T12:19:06Z</time></trkpt><trkpt lat="49.883831" lon="6.618615"><ele>151.06</ele><time>2011-05-31T12:19:19Z</time></trkpt><trkpt lat="49.883812" lon="6.618690"><ele>151.54</ele><time>2011-05-31T12:19:20Z</time></trkpt><trkpt lat="49.883793" lon="6.618761"><ele>151.06</ele><time>2011-05-31T12:19:21Z</time></trkpt><trkpt lat="49.883724" lon="6.618999"><ele>151.06</ele><time>2011-05-31T12:19:24Z</time></trkpt><trkpt lat="49.883549" lon="6.619363"><ele>151.06</ele><time>2011-05-31T12:19:29Z</time></trkpt><trkpt lat="49.883518" lon="6.619432"><ele>150.10</ele><time>2011-05-31T12:19:30Z</time></trkpt><trkpt lat="49.883492" lon="6.619503"><ele>151.06</ele><time>2011-05-31T12:19:31Z</time></trkpt><trkpt lat="49.883465" lon="6.619572"><ele>150.58</ele><time>2011-05-31T12:19:32Z</time></trkpt><trkpt lat="49.883430" lon="6.619638"><ele>150.58</ele><time>2011-05-31T12:19:33Z</time></trkpt><trkpt lat="49.883255" lon="6.619995"><ele>151.06</ele><time>2011-05-31T12:19:39Z</time></trkpt><trkpt lat="49.883228" lon="6.620049"><ele>150.58</ele><time>2011-05-31T12:19:40Z</time></trkpt><trkpt lat="49.883133" lon="6.620203"><ele>151.06</ele><time>2011-05-31T12:19:43Z</time></trkpt><trkpt lat="49.882801" lon="6.620581"><ele>151.06</ele><time>2011-05-31T12:19:52Z</time></trkpt><trkpt lat="49.882126" lon="6.621302"><ele>151.06</ele><time>2011-05-31T12:20:09Z</time></trkpt><trkpt lat="49.881950" lon="6.621485"><ele>151.06</ele><time>2011-05-31T12:20:14Z</time></trkpt><trkpt lat="49.881302" lon="6.622188"><ele>151.06</ele><time>2011-05-31T12:20:32Z</time></trkpt><trkpt lat="49.880791" lon="6.622906"><ele>151.06</ele><time>2011-05-31T12:20:49Z</time></trkpt><trkpt lat="49.880356" lon="6.623742"><ele>151.54</ele><time>2011-05-31T12:21:07Z</time></trkpt><trkpt lat="49.879944" lon="6.624562"><ele>151.54</ele><time>2011-05-31T12:21:24Z</time></trkpt><trkpt lat="49.879459" lon="6.625452"><ele>151.54</ele><time>2011-05-31T12:21:42Z</time></trkpt><trkpt lat="49.879074" lon="6.626306"><ele>151.54</ele><time>2011-05-31T12:21:58Z</time></trkpt><trkpt lat="49.878593" lon="6.627242"><ele>152.03</ele><time>2011-05-31T12:22:17Z</time></trkpt><trkpt lat="49.878372" lon="6.627738"><ele>152.03</ele><time>2011-05-31T12:22:25Z</time></trkpt><trkpt lat="49.878342" lon="6.627796"><ele>152.03</ele><time>2011-05-31T12:22:26Z</time></trkpt><trkpt lat="49.878090" lon="6.628571"><ele>152.03</ele><time>2011-05-31T12:22:39Z</time></trkpt><trkpt lat="49.878056" lon="6.628883"><ele>152.03</ele><time>2011-05-31T12:22:52Z</time></trkpt><trkpt lat="49.878082" lon="6.628878"><ele>152.51</ele><time>2011-05-31T12:23:05Z</time></trkpt><trkpt lat="49.877735" lon="6.630050"><ele>145.30</ele><time>2011-05-31T13:11:31Z</time></trkpt><trkpt lat="49.877728" lon="6.630087"><ele>145.30</ele><time>2011-05-31T13:11:32Z</time></trkpt><trkpt lat="49.877663" lon="6.630383"><ele>149.14</ele><time>2011-05-31T13:11:38Z</time></trkpt><trkpt lat="49.877647" lon="6.630441"><ele>147.70</ele><time>2011-05-31T13:11:39Z</time></trkpt><trkpt lat="49.877621" lon="6.630565"><ele>149.14</ele><time>2011-05-31T13:11:41Z</time></trkpt><trkpt lat="49.877590" lon="6.630684"><ele>150.58</ele><time>2011-05-31T13:11:43Z</time></trkpt><trkpt lat="49.877525" lon="6.630854"><ele>151.54</ele><time>2011-05-31T13:11:46Z</time></trkpt><trkpt lat="49.877499" lon="6.630905"><ele>152.03</ele><time>2011-05-31T13:11:47Z</time></trkpt><trkpt lat="49.877003" lon="6.631512"><ele>153.95</ele><time>2011-05-31T13:12:02Z</time></trkpt><trkpt lat="49.876865" lon="6.631739"><ele>153.95</ele><time>2011-05-31T13:12:07Z</time></trkpt><trkpt lat="49.876770" lon="6.631956"><ele>154.43</ele><time>2011-05-31T13:12:11Z</time></trkpt><trkpt lat="49.876732" lon="6.632002"><ele>153.47</ele><time>2011-05-31T13:12:12Z</time></trkpt><trkpt lat="49.876572" lon="6.632323"><ele>153.47</ele><time>2011-05-31T13:12:18Z</time></trkpt><trkpt lat="49.876568" lon="6.632401"><ele>153.47</ele><time>2011-05-31T13:12:19Z</time></trkpt><trkpt lat="49.876511" lon="6.632870"><ele>152.99</ele><time>2011-05-31T13:12:25Z</time></trkpt><trkpt lat="49.876495" lon="6.632945"><ele>152.99</ele><time>2011-05-31T13:12:26Z</time></trkpt><trkpt lat="49.876453" lon="6.633324"><ele>152.51</ele><time>2011-05-31T13:12:31Z</time></trkpt><trkpt lat="49.876446" lon="6.633402"><ele>152.99</ele><time>2011-05-31T13:12:32Z</time></trkpt><trkpt lat="49.876404" lon="6.634326"><ele>152.51</ele><time>2011-05-31T13:12:46Z</time></trkpt><trkpt lat="49.876362" lon="6.635206"><ele>152.99</ele><time>2011-05-31T13:13:00Z</time></trkpt><trkpt lat="49.876343" lon="6.635607"><ele>152.99</ele><time>2011-05-31T13:13:06Z</time></trkpt><trkpt lat="49.876358" lon="6.636005"><ele>152.99</ele><time>2011-05-31T13:13:12Z</time></trkpt><trkpt lat="49.876465" lon="6.637242"><ele>153.47</ele><time>2011-05-31T13:13:30Z</time></trkpt><trkpt lat="49.876537" lon="6.638547"><ele>153.47</ele><time>2011-05-31T13:13:50Z</time></trkpt><trkpt lat="49.876503" lon="6.639396"><ele>154.91</ele><time>2011-05-31T13:14:06Z</time></trkpt><trkpt lat="49.876431" lon="6.639994"><ele>154.43</ele><time>2011-05-31T13:14:18Z</time></trkpt><trkpt lat="49.876431" lon="6.640062"><ele>153.95</ele><time>2011-05-31T13:14:19Z</time></trkpt><trkpt lat="49.876392" lon="6.640382"><ele>153.47</ele><time>2011-05-31T13:14:24Z</time></trkpt><trkpt lat="49.876209" lon="6.640660"><ele>152.99</ele><time>2011-05-31T13:14:30Z</time></trkpt><trkpt lat="49.876125" lon="6.640669"><ele>152.51</ele><time>2011-05-31T13:14:31Z</time></trkpt><trkpt lat="49.875443" lon="6.641362"><ele>151.54</ele><time>2011-05-31T13:14:46Z</time></trkpt><trkpt lat="49.875034" lon="6.641845"><ele>150.58</ele><time>2011-05-31T13:14:55Z</time></trkpt><trkpt lat="49.874992" lon="6.641907"><ele>150.58</ele><time>2011-05-31T13:14:56Z</time></trkpt><trkpt lat="49.874863" lon="6.642088"><ele>151.06</ele><time>2011-05-31T13:14:59Z</time></trkpt><trkpt lat="49.874203" lon="6.642599"><ele>150.58</ele><time>2011-05-31T13:15:12Z</time></trkpt><trkpt lat="49.873997" lon="6.642655"><ele>151.06</ele><time>2011-05-31T13:15:20Z</time></trkpt><trkpt lat="49.873997" lon="6.642655"><ele>150.10</ele><time>2011-05-31T13:15:37Z</time></trkpt><trkpt lat="49.873966" lon="6.642655"><ele>150.58</ele><time>2011-05-31T13:15:40Z</time></trkpt><trkpt lat="49.873955" lon="6.642661"><ele>150.58</ele><time>2011-05-31T13:15:41Z</time></trkpt><trkpt lat="49.873940" lon="6.642663"><ele>151.06</ele><time>2011-05-31T13:15:42Z</time></trkpt><trkpt lat="49.873920" lon="6.642661"><ele>150.58</ele><time>2011-05-31T13:15:43Z</time></trkpt><trkpt lat="49.873898" lon="6.642666"><ele>151.06</ele><time>2011-05-31T13:15:44Z</time></trkpt><trkpt lat="49.873875" lon="6.642673"><ele>150.58</ele><time>2011-05-31T13:15:45Z</time></trkpt><trkpt lat="49.873482" lon="6.642718"><ele>151.54</ele><time>2011-05-31T13:15:58Z</time></trkpt><trkpt lat="49.873158" lon="6.642712"><ele>152.03</ele><time>2011-05-31T13:16:09Z</time></trkpt><trkpt lat="49.873142" lon="6.642714"><ele>152.03</ele><time>2011-05-31T13:16:10Z</time></trkpt><trkpt lat="49.873116" lon="6.642706"><ele>152.51</ele><time>2011-05-31T13:16:11Z</time></trkpt><trkpt lat="49.873089" lon="6.642697"><ele>152.51</ele><time>2011-05-31T13:16:12Z</time></trkpt><trkpt lat="49.873055" lon="6.642689"><ele>152.51</ele><time>2011-05-31T13:16:13Z</time></trkpt><trkpt lat="49.872559" lon="6.642582"><ele>152.03</ele><time>2011-05-31T13:16:27Z</time></trkpt><trkpt lat="49.872406" lon="6.642538"><ele>152.51</ele><time>2011-05-31T13:16:31Z</time></trkpt><trkpt lat="49.871853" lon="6.642393"><ele>152.51</ele><time>2011-05-31T13:16:45Z</time></trkpt><trkpt lat="49.871243" lon="6.642203"><ele>151.54</ele><time>2011-05-31T13:16:57Z</time></trkpt><trkpt lat="49.870537" lon="6.641992"><ele>150.58</ele><time>2011-05-31T13:17:09Z</time></trkpt><trkpt lat="49.869961" lon="6.641940"><ele>151.06</ele><time>2011-05-31T13:17:19Z</time></trkpt><trkpt lat="49.869122" lon="6.642031"><ele>151.06</ele><time>2011-05-31T13:17:37Z</time></trkpt><trkpt lat="49.868359" lon="6.642359"><ele>150.10</ele><time>2011-05-31T13:17:53Z</time></trkpt><trkpt lat="49.867580" lon="6.642921"><ele>149.14</ele><time>2011-05-31T13:18:09Z</time></trkpt><trkpt lat="49.867344" lon="6.643149"><ele>149.14</ele><time>2011-05-31T13:18:14Z</time></trkpt><trkpt lat="49.867294" lon="6.643193"><ele>149.62</ele><time>2011-05-31T13:18:15Z</time></trkpt><trkpt lat="49.867249" lon="6.643242"><ele>149.14</ele><time>2011-05-31T13:18:16Z</time></trkpt><trkpt lat="49.866863" lon="6.643698"><ele>149.62</ele><time>2011-05-31T13:18:25Z</time></trkpt><trkpt lat="49.866817" lon="6.643739"><ele>149.62</ele><time>2011-05-31T13:18:26Z</time></trkpt><trkpt lat="49.866776" lon="6.643781"><ele>149.14</ele><time>2011-05-31T13:18:27Z</time></trkpt><trkpt lat="49.866394" lon="6.644270"><ele>150.58</ele><time>2011-05-31T13:18:38Z</time></trkpt><trkpt lat="49.866024" lon="6.645018"><ele>152.03</ele><time>2011-05-31T13:18:55Z</time></trkpt><trkpt lat="49.865723" lon="6.644998"><ele>150.58</ele><time>2011-05-31T13:19:06Z</time></trkpt><trkpt lat="49.865562" lon="6.644771"><ele>150.10</ele><time>2011-05-31T13:19:13Z</time></trkpt><trkpt lat="49.865269" lon="6.644414"><ele>148.66</ele><time>2011-05-31T13:19:23Z</time></trkpt><trkpt lat="49.865059" lon="6.644091"><ele>148.18</ele><time>2011-05-31T13:19:34Z</time></trkpt><trkpt lat="49.864849" lon="6.643597"><ele>149.62</ele><time>2011-05-31T13:19:47Z</time></trkpt><trkpt lat="49.864754" lon="6.643553"><ele>149.62</ele><time>2011-05-31T13:19:51Z</time></trkpt><trkpt lat="49.864731" lon="6.643563"><ele>150.10</ele><time>2011-05-31T13:19:52Z</time></trkpt><trkpt lat="49.864689" lon="6.643569"><ele>149.62</ele><time>2011-05-31T13:19:53Z</time></trkpt><trkpt lat="49.864658" lon="6.643580"><ele>150.10</ele><time>2011-05-31T13:19:54Z</time></trkpt><trkpt lat="49.864628" lon="6.643593"><ele>150.10</ele><time>2011-05-31T13:19:55Z</time></trkpt><trkpt lat="49.864594" lon="6.643611"><ele>150.10</ele><time>2011-05-31T13:19:56Z</time></trkpt><trkpt lat="49.864559" lon="6.643629"><ele>150.10</ele><time>2011-05-31T13:19:57Z</time></trkpt><trkpt lat="49.864296" lon="6.643956"><ele>151.54</ele><time>2011-05-31T13:20:11Z</time></trkpt><trkpt lat="49.864002" lon="6.644263"><ele>153.47</ele><time>2011-05-31T13:20:26Z</time></trkpt><trkpt lat="49.863705" lon="6.644649"><ele>152.03</ele><time>2011-05-31T13:20:39Z</time></trkpt><trkpt lat="49.863163" lon="6.645425"><ele>150.58</ele><time>2011-05-31T13:20:54Z</time></trkpt><trkpt lat="49.862926" lon="6.645748"><ele>150.10</ele><time>2011-05-31T13:21:00Z</time></trkpt><trkpt lat="49.862885" lon="6.645795"><ele>149.62</ele><time>2011-05-31T13:21:01Z</time></trkpt><trkpt lat="49.862568" lon="6.646242"><ele>148.18</ele><time>2011-05-31T13:21:08Z</time></trkpt><trkpt lat="49.862309" lon="6.646667"><ele>147.70</ele><time>2011-05-31T13:21:14Z</time></trkpt><trkpt lat="49.862263" lon="6.646700"><ele>147.22</ele><time>2011-05-31T13:21:15Z</time></trkpt><trkpt lat="49.862221" lon="6.646717"><ele>148.18</ele><time>2011-05-31T13:21:16Z</time></trkpt><trkpt lat="49.862179" lon="6.646723"><ele>148.66</ele><time>2011-05-31T13:21:17Z</time></trkpt><trkpt lat="49.862141" lon="6.646734"><ele>149.62</ele><time>2011-05-31T13:21:18Z</time></trkpt><trkpt lat="49.862114" lon="6.646743"><ele>150.10</ele><time>2011-05-31T13:21:19Z</time></trkpt><trkpt lat="49.862091" lon="6.646750"><ele>150.10</ele><time>2011-05-31T13:21:20Z</time></trkpt><trkpt lat="49.861862" lon="6.646826"><ele>152.51</ele><time>2011-05-31T13:21:34Z</time></trkpt><trkpt lat="49.861782" lon="6.646832"><ele>153.47</ele><time>2011-05-31T13:21:39Z</time></trkpt><trkpt lat="49.861767" lon="6.646840"><ele>153.47</ele><time>2011-05-31T13:21:40Z</time></trkpt><trkpt lat="49.861656" lon="6.646868"><ele>154.91</ele><time>2011-05-31T13:21:48Z</time></trkpt><trkpt lat="49.861641" lon="6.646871"><ele>154.91</ele><time>2011-05-31T13:21:49Z</time></trkpt><trkpt lat="49.861607" lon="6.646877"><ele>155.39</ele><time>2011-05-31T13:22:05Z</time></trkpt><trkpt lat="49.861595" lon="6.646877"><ele>156.35</ele><time>2011-05-31T13:22:20Z</time></trkpt><trkpt lat="49.861523" lon="6.646907"><ele>157.79</ele><time>2011-05-31T13:22:28Z</time></trkpt><trkpt lat="49.861317" lon="6.646961"><ele>160.68</ele><time>2011-05-31T13:22:43Z</time></trkpt><trkpt lat="49.861206" lon="6.646997"><ele>162.12</ele><time>2011-05-31T13:22:59Z</time></trkpt><trkpt lat="49.861053" lon="6.647038"><ele>164.52</ele><time>2011-05-31T13:23:16Z</time></trkpt><trkpt lat="49.860950" lon="6.646987"><ele>165.48</ele><time>2011-05-31T13:23:28Z</time></trkpt><trkpt lat="49.860806" lon="6.646866"><ele>166.93</ele><time>2011-05-31T13:23:40Z</time></trkpt><trkpt lat="49.860638" lon="6.646605"><ele>167.89</ele><time>2011-05-31T13:23:54Z</time></trkpt><trkpt lat="49.860470" lon="6.646264"><ele>169.33</ele><time>2011-05-31T13:24:09Z</time></trkpt><trkpt lat="49.860302" lon="6.645906"><ele>169.81</ele><time>2011-05-31T13:24:23Z</time></trkpt><trkpt lat="49.860226" lon="6.645625"><ele>165.96</ele><time>2011-05-31T13:24:29Z</time></trkpt><trkpt lat="49.860188" lon="6.645490"><ele>162.12</ele><time>2011-05-31T13:24:31Z</time></trkpt><trkpt lat="49.860153" lon="6.645321"><ele>159.72</ele><time>2011-05-31T13:24:33Z</time></trkpt><trkpt lat="49.860146" lon="6.645271"><ele>159.24</ele><time>2011-05-31T13:24:34Z</time></trkpt><trkpt lat="49.860088" lon="6.644935"><ele>156.83</ele><time>2011-05-31T13:24:37Z</time></trkpt><trkpt lat="49.860012" lon="6.644578"><ele>151.54</ele><time>2011-05-31T13:24:41Z</time></trkpt><trkpt lat="49.859955" lon="6.644294"><ele>148.66</ele><time>2011-05-31T13:24:44Z</time></trkpt><trkpt lat="49.859909" lon="6.644109"><ele>147.70</ele><time>2011-05-31T13:24:46Z</time></trkpt><trkpt lat="49.859890" lon="6.643998"><ele>147.22</ele><time>2011-05-31T13:24:47Z</time></trkpt><trkpt lat="49.859829" lon="6.643650"><ele>146.74</ele><time>2011-05-31T13:24:50Z</time></trkpt><trkpt lat="49.859802" lon="6.643532"><ele>146.74</ele><time>2011-05-31T13:24:51Z</time></trkpt><trkpt lat="49.859753" lon="6.643308"><ele>146.74</ele><time>2011-05-31T13:24:53Z</time></trkpt><trkpt lat="49.859730" lon="6.643203"><ele>146.26</ele><time>2011-05-31T13:24:54Z</time></trkpt><trkpt lat="49.859447" lon="6.641888"><ele>146.26</ele><time>2011-05-31T13:25:08Z</time></trkpt><trkpt lat="49.859352" lon="6.641664"><ele>146.74</ele><time>2011-05-31T13:25:11Z</time></trkpt><trkpt lat="49.859314" lon="6.641598"><ele>146.74</ele><time>2011-05-31T13:25:12Z</time></trkpt><trkpt lat="49.859287" lon="6.641537"><ele>146.74</ele><time>2011-05-31T13:25:13Z</time></trkpt><trkpt lat="49.859222" lon="6.641413"><ele>147.22</ele><time>2011-05-31T13:25:15Z</time></trkpt><trkpt lat="49.859192" lon="6.641353"><ele>146.74</ele><time>2011-05-31T13:25:16Z</time></trkpt><trkpt lat="49.859161" lon="6.641294"><ele>146.74</ele><time>2011-05-31T13:25:17Z</time></trkpt><trkpt lat="49.858784" lon="6.640732"><ele>145.78</ele><time>2011-05-31T13:25:26Z</time></trkpt><trkpt lat="49.858746" lon="6.640676"><ele>145.78</ele><time>2011-05-31T13:25:27Z</time></trkpt><trkpt lat="49.858227" lon="6.639920"><ele>145.30</ele><time>2011-05-31T13:25:40Z</time></trkpt><trkpt lat="49.858101" lon="6.639738"><ele>144.34</ele><time>2011-05-31T13:25:43Z</time></trkpt><trkpt lat="49.857708" lon="6.639192"><ele>144.82</ele><time>2011-05-31T13:25:53Z</time></trkpt><trkpt lat="49.857334" lon="6.638702"><ele>144.34</ele><time>2011-05-31T13:26:02Z</time></trkpt><trkpt lat="49.856697" lon="6.638095"><ele>144.34</ele><time>2011-05-31T13:26:15Z</time></trkpt><trkpt lat="49.856133" lon="6.637703"><ele>144.34</ele><time>2011-05-31T13:26:27Z</time></trkpt><trkpt lat="49.856087" lon="6.637670"><ele>144.34</ele><time>2011-05-31T13:26:28Z</time></trkpt><trkpt lat="49.855999" lon="6.637604"><ele>144.34</ele><time>2011-05-31T13:26:30Z</time></trkpt><trkpt lat="49.855949" lon="6.637582"><ele>144.34</ele><time>2011-05-31T13:26:31Z</time></trkpt><trkpt lat="49.855900" lon="6.637568"><ele>144.34</ele><time>2011-05-31T13:26:32Z</time></trkpt><trkpt lat="49.855083" lon="6.637413"><ele>143.85</ele><time>2011-05-31T13:26:47Z</time></trkpt><trkpt lat="49.854439" lon="6.637486"><ele>143.37</ele><time>2011-05-31T13:27:00Z</time></trkpt><trkpt lat="49.853844" lon="6.637740"><ele>143.85</ele><time>2011-05-31T13:27:13Z</time></trkpt><trkpt lat="49.853764" lon="6.637802"><ele>143.37</ele><time>2011-05-31T13:27:15Z</time></trkpt><trkpt lat="49.853573" lon="6.637922"><ele>143.85</ele><time>2011-05-31T13:27:20Z</time></trkpt><trkpt lat="49.853230" lon="6.638179"><ele>143.37</ele><time>2011-05-31T13:27:31Z</time></trkpt><trkpt lat="49.852913" lon="6.638432"><ele>143.85</ele><time>2011-05-31T13:27:43Z</time></trkpt><trkpt lat="49.852547" lon="6.638688"><ele>143.85</ele><time>2011-05-31T13:27:55Z</time></trkpt><trkpt lat="49.852207" lon="6.638896"><ele>143.85</ele><time>2011-05-31T13:28:06Z</time></trkpt><trkpt lat="49.851715" lon="6.639200"><ele>144.82</ele><time>2011-05-31T13:28:20Z</time></trkpt><trkpt lat="49.851379" lon="6.639306"><ele>146.26</ele><time>2011-05-31T13:28:33Z</time></trkpt><trkpt lat="49.850986" lon="6.639606"><ele>147.22</ele><time>2011-05-31T13:28:46Z</time></trkpt><trkpt lat="49.850552" lon="6.639866"><ele>147.22</ele><time>2011-05-31T13:29:00Z</time></trkpt><trkpt lat="49.850060" lon="6.640052"><ele>147.22</ele><time>2011-05-31T13:29:13Z</time></trkpt><trkpt lat="49.849548" lon="6.640085"><ele>147.22</ele><time>2011-05-31T13:29:26Z</time></trkpt><trkpt lat="49.848999" lon="6.639978"><ele>146.26</ele><time>2011-05-31T13:29:39Z</time></trkpt><trkpt lat="49.848335" lon="6.639888"><ele>146.74</ele><time>2011-05-31T13:29:54Z</time></trkpt><trkpt lat="49.847916" lon="6.639898"><ele>146.26</ele><time>2011-05-31T13:30:04Z</time></trkpt><trkpt lat="49.847870" lon="6.639916"><ele>145.78</ele><time>2011-05-31T13:30:05Z</time></trkpt><trkpt lat="49.847824" lon="6.639947"><ele>145.30</ele><time>2011-05-31T13:30:06Z</time></trkpt><trkpt lat="49.847347" lon="6.640419"><ele>142.41</ele><time>2011-05-31T13:30:15Z</time></trkpt><trkpt lat="49.847023" lon="6.640675"><ele>141.45</ele><time>2011-05-31T13:30:20Z</time></trkpt><trkpt lat="49.846954" lon="6.640703"><ele>141.93</ele><time>2011-05-31T13:30:21Z</time></trkpt><trkpt lat="49.846882" lon="6.640718"><ele>141.45</ele><time>2011-05-31T13:30:22Z</time></trkpt><trkpt lat="49.846088" lon="6.640720"><ele>141.45</ele><time>2011-05-31T13:30:35Z</time></trkpt><trkpt lat="49.845089" lon="6.640666"><ele>141.45</ele><time>2011-05-31T13:30:53Z</time></trkpt><trkpt lat="49.844391" lon="6.640624"><ele>140.97</ele><time>2011-05-31T13:31:06Z</time></trkpt><trkpt lat="49.843960" lon="6.640616"><ele>142.41</ele><time>2011-05-31T13:31:17Z</time></trkpt><trkpt lat="49.843632" lon="6.640613"><ele>143.85</ele><time>2011-05-31T13:31:31Z</time></trkpt><trkpt lat="49.843311" lon="6.640500"><ele>145.30</ele><time>2011-05-31T13:31:46Z</time></trkpt><trkpt lat="49.843002" lon="6.640317"><ele>145.78</ele><time>2011-05-31T13:32:02Z</time></trkpt><trkpt lat="49.842606" lon="6.639958"><ele>146.26</ele><time>2011-05-31T13:32:17Z</time></trkpt><trkpt lat="49.842213" lon="6.639238"><ele>145.78</ele><time>2011-05-31T13:32:34Z</time></trkpt><trkpt lat="49.841873" lon="6.638478"><ele>144.82</ele><time>2011-05-31T13:32:50Z</time></trkpt><trkpt lat="49.841553" lon="6.637808"><ele>142.89</ele><time>2011-05-31T13:33:03Z</time></trkpt><trkpt lat="49.841507" lon="6.637680"><ele>143.37</ele><time>2011-05-31T13:33:05Z</time></trkpt><trkpt lat="49.841488" lon="6.637616"><ele>143.37</ele><time>2011-05-31T13:33:06Z</time></trkpt><trkpt lat="49.841419" lon="6.637279"><ele>142.89</ele><time>2011-05-31T13:33:11Z</time></trkpt><trkpt lat="49.841373" lon="6.637076"><ele>142.41</ele><time>2011-05-31T13:33:14Z</time></trkpt><trkpt lat="49.841072" lon="6.636050"><ele>140.97</ele><time>2011-05-31T13:33:28Z</time></trkpt><trkpt lat="49.841007" lon="6.635242"><ele>142.41</ele><time>2011-05-31T13:33:43Z</time></trkpt><trkpt lat="49.840919" lon="6.634693"><ele>143.37</ele><time>2011-05-31T13:33:57Z</time></trkpt><trkpt lat="49.840786" lon="6.634146"><ele>142.89</ele><time>2011-05-31T13:34:11Z</time></trkpt><trkpt lat="49.840591" lon="6.633793"><ele>142.41</ele><time>2011-05-31T13:34:19Z</time></trkpt><trkpt lat="49.840565" lon="6.633768"><ele>142.41</ele><time>2011-05-31T13:34:20Z</time></trkpt><trkpt lat="49.840538" lon="6.633743"><ele>141.93</ele><time>2011-05-31T13:34:21Z</time></trkpt><trkpt lat="49.840508" lon="6.633705"><ele>141.45</ele><time>2011-05-31T13:34:22Z</time></trkpt><trkpt lat="49.840485" lon="6.633645"><ele>140.97</ele><time>2011-05-31T13:34:23Z</time></trkpt><trkpt lat="49.840466" lon="6.633577"><ele>140.97</ele><time>2011-05-31T13:34:24Z</time></trkpt><trkpt lat="49.840446" lon="6.633507"><ele>140.49</ele><time>2011-05-31T13:34:25Z</time></trkpt><trkpt lat="49.840427" lon="6.633437"><ele>140.49</ele><time>2011-05-31T13:34:26Z</time></trkpt><trkpt lat="49.840401" lon="6.633372"><ele>140.49</ele><time>2011-05-31T13:34:27Z</time></trkpt><trkpt lat="49.839989" lon="6.633343"><ele>140.49</ele><time>2011-05-31T13:34:37Z</time></trkpt><trkpt lat="49.839561" lon="6.633453"><ele>140.49</ele><time>2011-05-31T13:34:51Z</time></trkpt><trkpt lat="49.839405" lon="6.633630"><ele>140.49</ele><time>2011-05-31T13:35:01Z</time></trkpt><trkpt lat="49.839046" lon="6.634003"><ele>140.97</ele><time>2011-05-31T13:35:15Z</time></trkpt><trkpt lat="49.838650" lon="6.634126"><ele>140.97</ele><time>2011-05-31T13:35:28Z</time></trkpt><trkpt lat="49.838070" lon="6.634057"><ele>141.45</ele><time>2011-05-31T13:35:44Z</time></trkpt><trkpt lat="49.837944" lon="6.634408"><ele>141.93</ele><time>2011-05-31T13:35:54Z</time></trkpt><trkpt lat="49.837658" lon="6.634415"><ele>141.45</ele><time>2011-05-31T13:36:04Z</time></trkpt><trkpt lat="49.837688" lon="6.634402"><ele>141.93</ele><time>2011-05-31T13:36:13Z</time></trkpt><trkpt lat="49.837715" lon="6.634397"><ele>141.45</ele><time>2011-05-31T13:36:14Z</time></trkpt><trkpt lat="49.837986" lon="6.634222"><ele>141.93</ele><time>2011-05-31T13:36:25Z</time></trkpt><trkpt lat="49.837994" lon="6.634159"><ele>141.93</ele><time>2011-05-31T13:36:27Z</time></trkpt><trkpt lat="49.837990" lon="6.634133"><ele>141.93</ele><time>2011-05-31T13:36:28Z</time></trkpt><trkpt lat="49.837978" lon="6.634109"><ele>141.45</ele><time>2011-05-31T13:36:29Z</time></trkpt><trkpt lat="49.837955" lon="6.634089"><ele>141.45</ele><time>2011-05-31T13:36:30Z</time></trkpt><trkpt lat="49.837933" lon="6.634076"><ele>141.45</ele><time>2011-05-31T13:36:31Z</time></trkpt><trkpt lat="49.837910" lon="6.634058"><ele>141.45</ele><time>2011-05-31T13:36:32Z</time></trkpt><trkpt lat="49.837524" lon="6.634150"><ele>140.97</ele><time>2011-05-31T13:36:43Z</time></trkpt><trkpt lat="49.837013" lon="6.634379"><ele>141.45</ele><time>2011-05-31T13:36:58Z</time></trkpt><trkpt lat="49.836952" lon="6.634353"><ele>141.93</ele><time>2011-05-31T13:37:02Z</time></trkpt><trkpt lat="49.836937" lon="6.634343"><ele>141.93</ele><time>2011-05-31T13:37:03Z</time></trkpt><trkpt lat="49.836948" lon="6.634288"><ele>141.45</ele><time>2011-05-31T13:37:14Z</time></trkpt><trkpt lat="49.836975" lon="6.634287"><ele>141.45</ele><time>2011-05-31T13:37:16Z</time></trkpt><trkpt lat="49.836987" lon="6.634304"><ele>141.93</ele><time>2011-05-31T13:37:17Z</time></trkpt><trkpt lat="49.836994" lon="6.634329"><ele>141.45</ele><time>2011-05-31T13:37:18Z</time></trkpt><trkpt lat="49.836994" lon="6.634358"><ele>141.45</ele><time>2011-05-31T13:37:19Z</time></trkpt><trkpt lat="49.836990" lon="6.634386"><ele>141.93</ele><time>2011-05-31T13:37:20Z</time></trkpt><trkpt lat="49.836922" lon="6.634455"><ele>141.93</ele><time>2011-05-31T13:37:23Z</time></trkpt><trkpt lat="49.836895" lon="6.634473"><ele>141.45</ele><time>2011-05-31T13:37:24Z</time></trkpt><trkpt lat="49.836868" lon="6.634485"><ele>141.93</ele><time>2011-05-31T13:37:25Z</time></trkpt><trkpt lat="49.836838" lon="6.634494"><ele>141.45</ele><time>2011-05-31T13:37:26Z</time></trkpt><trkpt lat="49.836807" lon="6.634503"><ele>141.93</ele><time>2011-05-31T13:37:27Z</time></trkpt><trkpt lat="49.836300" lon="6.634688"><ele>141.45</ele><time>2011-05-31T13:37:42Z</time></trkpt><trkpt lat="49.835857" lon="6.634914"><ele>141.93</ele><time>2011-05-31T13:37:56Z</time></trkpt><trkpt lat="49.835522" lon="6.635469"><ele>142.41</ele><time>2011-05-31T13:38:11Z</time></trkpt><trkpt lat="49.835178" lon="6.636261"><ele>142.41</ele><time>2011-05-31T13:38:27Z</time></trkpt><trkpt lat="49.834846" lon="6.637228"><ele>142.41</ele><time>2011-05-31T13:38:44Z</time></trkpt><trkpt lat="49.834694" lon="6.638334"><ele>142.41</ele><time>2011-05-31T13:39:01Z</time></trkpt><trkpt lat="49.834682" lon="6.638395"><ele>142.41</ele><time>2011-05-31T13:39:02Z</time></trkpt><trkpt lat="49.834698" lon="6.639408"><ele>142.41</ele><time>2011-05-31T13:39:18Z</time></trkpt><trkpt lat="49.834789" lon="6.640606"><ele>141.93</ele><time>2011-05-31T13:39:35Z</time></trkpt><trkpt lat="49.834766" lon="6.640769"><ele>141.93</ele><time>2011-05-31T13:39:37Z</time></trkpt><trkpt lat="49.834728" lon="6.641002"><ele>141.93</ele><time>2011-05-31T13:39:40Z</time></trkpt><trkpt lat="49.834698" lon="6.641147"><ele>141.93</ele><time>2011-05-31T13:39:42Z</time></trkpt><trkpt lat="49.834675" lon="6.641215"><ele>141.93</ele><time>2011-05-31T13:39:43Z</time></trkpt><trkpt lat="49.834534" lon="6.641532"><ele>141.45</ele><time>2011-05-31T13:39:48Z</time></trkpt><trkpt lat="49.834503" lon="6.641588"><ele>141.45</ele><time>2011-05-31T13:39:49Z</time></trkpt><trkpt lat="49.834164" lon="6.642526"><ele>140.97</ele><time>2011-05-31T13:40:03Z</time></trkpt><trkpt lat="49.834148" lon="6.642598"><ele>140.97</ele><time>2011-05-31T13:40:04Z</time></trkpt><trkpt lat="49.834133" lon="6.642672"><ele>140.49</ele><time>2011-05-31T13:40:05Z</time></trkpt><trkpt lat="49.834080" lon="6.642974"><ele>140.49</ele><time>2011-05-31T13:40:09Z</time></trkpt><trkpt lat="49.834030" lon="6.644032"><ele>140.01</ele><time>2011-05-31T13:40:23Z</time></trkpt><trkpt lat="49.833973" lon="6.644945"><ele>140.97</ele><time>2011-05-31T13:40:36Z</time></trkpt><trkpt lat="49.833897" lon="6.645456"><ele>141.93</ele><time>2011-05-31T13:40:46Z</time></trkpt><trkpt lat="49.833649" lon="6.646049"><ele>142.89</ele><time>2011-05-31T13:41:01Z</time></trkpt><trkpt lat="49.833374" lon="6.646631"><ele>141.93</ele><time>2011-05-31T13:41:13Z</time></trkpt><trkpt lat="49.833172" lon="6.647069"><ele>141.45</ele><time>2011-05-31T13:41:20Z</time></trkpt><trkpt lat="49.832958" lon="6.647488"><ele>140.97</ele><time>2011-05-31T13:41:27Z</time></trkpt><trkpt lat="49.832531" lon="6.648323"><ele>140.49</ele><time>2011-05-31T13:41:41Z</time></trkpt><trkpt lat="49.832096" lon="6.648903"><ele>140.97</ele><time>2011-05-31T13:41:53Z</time></trkpt><trkpt lat="49.831383" lon="6.649570"><ele>138.57</ele><time>2011-05-31T13:42:09Z</time></trkpt><trkpt lat="49.830566" lon="6.650042"><ele>138.57</ele><time>2011-05-31T13:42:25Z</time></trkpt><trkpt lat="49.830421" lon="6.650073"><ele>138.57</ele><time>2011-05-31T13:42:28Z</time></trkpt><trkpt lat="49.830372" lon="6.650079"><ele>139.05</ele><time>2011-05-31T13:42:29Z</time></trkpt><trkpt lat="49.830326" lon="6.650085"><ele>139.05</ele><time>2011-05-31T13:42:30Z</time></trkpt><trkpt lat="49.830284" lon="6.650090"><ele>139.05</ele><time>2011-05-31T13:42:31Z</time></trkpt><trkpt lat="49.830246" lon="6.650100"><ele>138.57</ele><time>2011-05-31T13:42:32Z</time></trkpt><trkpt lat="49.830204" lon="6.650107"><ele>139.05</ele><time>2011-05-31T13:42:33Z</time></trkpt><trkpt lat="49.830162" lon="6.650116"><ele>139.05</ele><time>2011-05-31T13:42:34Z</time></trkpt><trkpt lat="49.829845" lon="6.650169"><ele>140.49</ele><time>2011-05-31T13:42:44Z</time></trkpt><trkpt lat="49.829433" lon="6.650176"><ele>140.49</ele><time>2011-05-31T13:42:55Z</time></trkpt><trkpt lat="49.829010" lon="6.650125"><ele>140.01</ele><time>2011-05-31T13:43:05Z</time></trkpt><trkpt lat="49.828835" lon="6.650076"><ele>139.53</ele><time>2011-05-31T13:43:09Z</time></trkpt><trkpt lat="49.828747" lon="6.650065"><ele>139.53</ele><time>2011-05-31T13:43:11Z</time></trkpt><trkpt lat="49.828659" lon="6.650058"><ele>139.53</ele><time>2011-05-31T13:43:13Z</time></trkpt><trkpt lat="49.828613" lon="6.650053"><ele>139.53</ele><time>2011-05-31T13:43:14Z</time></trkpt><trkpt lat="49.828510" lon="6.650036"><ele>139.53</ele><time>2011-05-31T13:43:16Z</time></trkpt><trkpt lat="49.827827" lon="6.649909"><ele>140.01</ele><time>2011-05-31T13:43:30Z</time></trkpt><trkpt lat="49.827415" lon="6.649700"><ele>139.05</ele><time>2011-05-31T13:43:40Z</time></trkpt><trkpt lat="49.826935" lon="6.649341"><ele>139.05</ele><time>2011-05-31T13:43:51Z</time></trkpt><trkpt lat="49.826740" lon="6.649237"><ele>139.05</ele><time>2011-05-31T13:43:55Z</time></trkpt><trkpt lat="49.826694" lon="6.649208"><ele>139.05</ele><time>2011-05-31T13:43:56Z</time></trkpt><trkpt lat="49.826180" lon="6.648672"><ele>139.53</ele><time>2011-05-31T13:44:11Z</time></trkpt><trkpt lat="49.825920" lon="6.648269"><ele>140.49</ele><time>2011-05-31T13:44:24Z</time></trkpt><trkpt lat="49.825714" lon="6.647804"><ele>142.41</ele><time>2011-05-31T13:44:39Z</time></trkpt><trkpt lat="49.825535" lon="6.647295"><ele>142.89</ele><time>2011-05-31T13:44:55Z</time></trkpt><trkpt lat="49.825291" lon="6.646777"><ele>143.37</ele><time>2011-05-31T13:45:11Z</time></trkpt><trkpt lat="49.825020" lon="6.646152"><ele>142.89</ele><time>2011-05-31T13:45:26Z</time></trkpt><trkpt lat="49.824978" lon="6.646048"><ele>142.41</ele><time>2011-05-31T13:45:28Z</time></trkpt><trkpt lat="49.824848" lon="6.645710"><ele>142.41</ele><time>2011-05-31T13:45:37Z</time></trkpt><trkpt lat="49.824829" lon="6.645700"><ele>142.41</ele><time>2011-05-31T13:45:38Z</time></trkpt><trkpt lat="49.824802" lon="6.645695"><ele>142.41</ele><time>2011-05-31T13:45:39Z</time></trkpt><trkpt lat="49.824421" lon="6.645641"><ele>142.89</ele><time>2011-05-31T13:45:53Z</time></trkpt><trkpt lat="49.823990" lon="6.645512"><ele>142.41</ele><time>2011-05-31T13:46:08Z</time></trkpt><trkpt lat="49.823586" lon="6.645299"><ele>142.89</ele><time>2011-05-31T13:46:22Z</time></trkpt><trkpt lat="49.823242" lon="6.645161"><ele>142.41</ele><time>2011-05-31T13:46:31Z</time></trkpt><trkpt lat="49.822945" lon="6.645108"><ele>141.93</ele><time>2011-05-31T13:46:38Z</time></trkpt><trkpt lat="49.822769" lon="6.645135"><ele>141.93</ele><time>2011-05-31T13:46:42Z</time></trkpt><trkpt lat="49.822552" lon="6.645190"><ele>141.45</ele><time>2011-05-31T13:46:47Z</time></trkpt><trkpt lat="49.822350" lon="6.645210"><ele>140.49</ele><time>2011-05-31T13:46:51Z</time></trkpt><trkpt lat="49.822178" lon="6.645274"><ele>140.01</ele><time>2011-05-31T13:46:54Z</time></trkpt><trkpt lat="49.822063" lon="6.645367"><ele>139.53</ele><time>2011-05-31T13:46:56Z</time></trkpt><trkpt lat="49.822010" lon="6.645429"><ele>139.53</ele><time>2011-05-31T13:46:57Z</time></trkpt><trkpt lat="49.821335" lon="6.646426"><ele>138.09</ele><time>2011-05-31T13:47:12Z</time></trkpt><trkpt lat="49.821301" lon="6.646481"><ele>138.09</ele><time>2011-05-31T13:47:13Z</time></trkpt><trkpt lat="49.820805" lon="6.647261"><ele>138.57</ele><time>2011-05-31T13:47:28Z</time></trkpt><trkpt lat="49.820564" lon="6.647950"><ele>138.57</ele><time>2011-05-31T13:47:41Z</time></trkpt><trkpt lat="49.820511" lon="6.648214"><ele>138.09</ele><time>2011-05-31T13:47:45Z</time></trkpt><trkpt lat="49.820492" lon="6.648276"><ele>137.61</ele><time>2011-05-31T13:47:46Z</time></trkpt><trkpt lat="49.820332" lon="6.648996"><ele>137.13</ele><time>2011-05-31T13:47:56Z</time></trkpt><trkpt lat="49.820202" lon="6.650296"><ele>135.68</ele><time>2011-05-31T13:48:12Z</time></trkpt><trkpt lat="49.820183" lon="6.650454"><ele>135.68</ele><time>2011-05-31T13:48:14Z</time></trkpt><trkpt lat="49.820175" lon="6.650529"><ele>136.16</ele><time>2011-05-31T13:48:15Z</time></trkpt><trkpt lat="49.820168" lon="6.650600"><ele>135.68</ele><time>2011-05-31T13:48:16Z</time></trkpt><trkpt lat="49.820202" lon="6.651229"><ele>134.72</ele><time>2011-05-31T13:48:25Z</time></trkpt><trkpt lat="49.820332" lon="6.651999"><ele>134.72</ele><time>2011-05-31T13:48:37Z</time></trkpt><trkpt lat="49.820377" lon="6.652074"><ele>134.24</ele><time>2011-05-31T13:48:39Z</time></trkpt><trkpt lat="49.820370" lon="6.651970"><ele>134.72</ele><time>2011-05-31T13:48:48Z</time></trkpt><trkpt lat="49.820320" lon="6.651937"><ele>134.72</ele><time>2011-05-31T13:48:51Z</time></trkpt><trkpt lat="49.820179" lon="6.651711"><ele>134.72</ele><time>2011-05-31T13:49:04Z</time></trkpt><trkpt lat="49.820175" lon="6.651687"><ele>134.72</ele><time>2011-05-31T13:49:17Z</time></trkpt><trkpt lat="49.820175" lon="6.651687"><ele>134.24</ele><time>2011-05-31T13:49:48Z</time></trkpt><trkpt lat="49.820171" lon="6.651686"><ele>134.72</ele><time>2011-05-31T13:50:20Z</time></trkpt><trkpt lat="49.820145" lon="6.651665"><ele>134.24</ele><time>2011-05-31T13:50:44Z</time></trkpt><trkpt lat="49.820141" lon="6.651673"><ele>134.24</ele><time>2011-05-31T13:50:46Z</time></trkpt><trkpt lat="49.820145" lon="6.651732"><ele>134.24</ele><time>2011-05-31T13:50:49Z</time></trkpt><trkpt lat="49.820244" lon="6.652248"><ele>134.24</ele><time>2011-05-31T13:51:03Z</time></trkpt><trkpt lat="49.820454" lon="6.652846"><ele>134.72</ele><time>2011-05-31T13:51:16Z</time></trkpt><trkpt lat="49.820831" lon="6.653654"><ele>134.24</ele><time>2011-05-31T13:51:31Z</time></trkpt><trkpt lat="49.821068" lon="6.654369"><ele>133.76</ele><time>2011-05-31T13:51:44Z</time></trkpt><trkpt lat="49.821373" lon="6.655498"><ele>134.24</ele><time>2011-05-31T13:52:00Z</time></trkpt><trkpt lat="49.821571" lon="6.656505"><ele>135.20</ele><time>2011-05-31T13:52:15Z</time></trkpt><trkpt lat="49.821789" lon="6.657177"><ele>136.16</ele><time>2011-05-31T13:52:30Z</time></trkpt><trkpt lat="49.822048" lon="6.657929"><ele>135.20</ele><time>2011-05-31T13:52:46Z</time></trkpt><trkpt lat="49.822094" lon="6.658657"><ele>136.64</ele><time>2011-05-31T13:52:58Z</time></trkpt><trkpt lat="49.821754" lon="6.659360"><ele>136.64</ele><time>2011-05-31T13:53:12Z</time></trkpt><trkpt lat="49.821411" lon="6.659767"><ele>134.72</ele><time>2011-05-31T13:53:21Z</time></trkpt><trkpt lat="49.821362" lon="6.659802"><ele>135.20</ele><time>2011-05-31T13:53:22Z</time></trkpt><trkpt lat="49.821312" lon="6.659832"><ele>134.72</ele><time>2011-05-31T13:53:23Z</time></trkpt><trkpt lat="49.821201" lon="6.659892"><ele>134.72</ele><time>2011-05-31T13:53:25Z</time></trkpt><trkpt lat="49.821018" lon="6.659970"><ele>134.24</ele><time>2011-05-31T13:53:28Z</time></trkpt><trkpt lat="49.820965" lon="6.660003"><ele>134.24</ele><time>2011-05-31T13:53:29Z</time></trkpt><trkpt lat="49.820904" lon="6.660026"><ele>134.24</ele><time>2011-05-31T13:53:30Z</time></trkpt><trkpt lat="49.820774" lon="6.660066"><ele>134.24</ele><time>2011-05-31T13:53:32Z</time></trkpt><trkpt lat="49.820717" lon="6.660102"><ele>133.76</ele><time>2011-05-31T13:53:33Z</time></trkpt><trkpt lat="49.820660" lon="6.660133"><ele>133.76</ele><time>2011-05-31T13:53:34Z</time></trkpt><trkpt lat="49.820415" lon="6.660222"><ele>133.28</ele><time>2011-05-31T13:53:38Z</time></trkpt><trkpt lat="49.820259" lon="6.660311"><ele>133.28</ele><time>2011-05-31T13:53:41Z</time></trkpt><trkpt lat="49.820210" lon="6.660346"><ele>133.28</ele><time>2011-05-31T13:53:42Z</time></trkpt><trkpt lat="49.820049" lon="6.660449"><ele>132.80</ele><time>2011-05-31T13:53:45Z</time></trkpt><trkpt lat="49.819912" lon="6.660573"><ele>132.80</ele><time>2011-05-31T13:53:48Z</time></trkpt><trkpt lat="49.819862" lon="6.660613"><ele>133.28</ele><time>2011-05-31T13:53:49Z</time></trkpt><trkpt lat="49.819817" lon="6.660655"><ele>132.80</ele><time>2011-05-31T13:53:50Z</time></trkpt><trkpt lat="49.819775" lon="6.660697"><ele>132.80</ele><time>2011-05-31T13:53:51Z</time></trkpt><trkpt lat="49.819736" lon="6.660741"><ele>133.28</ele><time>2011-05-31T13:53:52Z</time></trkpt><trkpt lat="49.819618" lon="6.660892"><ele>134.24</ele><time>2011-05-31T13:53:55Z</time></trkpt><trkpt lat="49.819244" lon="6.661369"><ele>135.68</ele><time>2011-05-31T13:54:07Z</time></trkpt><trkpt lat="49.819221" lon="6.661391"><ele>135.68</ele><time>2011-05-31T13:54:08Z</time></trkpt><trkpt lat="49.818981" lon="6.661670"><ele>136.64</ele><time>2011-05-31T13:54:20Z</time></trkpt><trkpt lat="49.818867" lon="6.661850"><ele>137.61</ele><time>2011-05-31T13:54:28Z</time></trkpt><trkpt lat="49.818661" lon="6.662082"><ele>138.09</ele><time>2011-05-31T13:54:41Z</time></trkpt><trkpt lat="49.818478" lon="6.662316"><ele>140.49</ele><time>2011-05-31T13:54:56Z</time></trkpt><trkpt lat="49.818428" lon="6.662399"><ele>140.49</ele><time>2011-05-31T13:55:01Z</time></trkpt><trkpt lat="49.818420" lon="6.662419"><ele>140.49</ele><time>2011-05-31T13:55:02Z</time></trkpt><trkpt lat="49.818413" lon="6.662444"><ele>140.97</ele><time>2011-05-31T13:55:03Z</time></trkpt><trkpt lat="49.818405" lon="6.662465"><ele>140.97</ele><time>2011-05-31T13:55:04Z</time></trkpt><trkpt lat="49.818398" lon="6.662488"><ele>140.97</ele><time>2011-05-31T13:55:05Z</time></trkpt><trkpt lat="49.818394" lon="6.662513"><ele>140.49</ele><time>2011-05-31T13:55:06Z</time></trkpt><trkpt lat="49.818390" lon="6.662530"><ele>140.97</ele><time>2011-05-31T13:55:07Z</time></trkpt><trkpt lat="49.818382" lon="6.662550"><ele>140.97</ele><time>2011-05-31T13:55:08Z</time></trkpt><trkpt lat="49.818378" lon="6.662574"><ele>140.97</ele><time>2011-05-31T13:55:09Z</time></trkpt><trkpt lat="49.818378" lon="6.662604"><ele>140.97</ele><time>2011-05-31T13:55:10Z</time></trkpt><trkpt lat="49.818550" lon="6.663241"><ele>139.05</ele><time>2011-05-31T13:55:24Z</time></trkpt><trkpt lat="49.818623" lon="6.663489"><ele>138.09</ele><time>2011-05-31T13:55:27Z</time></trkpt><trkpt lat="49.818645" lon="6.663574"><ele>137.61</ele><time>2011-05-31T13:55:28Z</time></trkpt><trkpt lat="49.818985" lon="6.664590"><ele>134.24</ele><time>2011-05-31T13:55:40Z</time></trkpt><trkpt lat="49.819042" lon="6.664758"><ele>133.28</ele><time>2011-05-31T13:55:42Z</time></trkpt><trkpt lat="49.819450" lon="6.665687"><ele>133.28</ele><time>2011-05-31T13:55:53Z</time></trkpt><trkpt lat="49.819653" lon="6.666099"><ele>133.28</ele><time>2011-05-31T13:55:59Z</time></trkpt><trkpt lat="49.819675" lon="6.666162"><ele>132.80</ele><time>2011-05-31T13:56:00Z</time></trkpt><trkpt lat="49.819748" lon="6.666440"><ele>132.80</ele><time>2011-05-31T13:56:04Z</time></trkpt><trkpt lat="49.819778" lon="6.666602"><ele>132.80</ele><time>2011-05-31T13:56:06Z</time></trkpt><trkpt lat="49.819778" lon="6.666684"><ele>132.80</ele><time>2011-05-31T13:56:07Z</time></trkpt><trkpt lat="49.819782" lon="6.666953"><ele>133.28</ele><time>2011-05-31T13:56:10Z</time></trkpt><trkpt lat="49.819782" lon="6.667044"><ele>132.80</ele><time>2011-05-31T13:56:11Z</time></trkpt><trkpt lat="49.819782" lon="6.667136"><ele>132.32</ele><time>2011-05-31T13:56:12Z</time></trkpt><trkpt lat="49.819775" lon="6.667222"><ele>132.80</ele><time>2011-05-31T13:56:13Z</time></trkpt><trkpt lat="49.819771" lon="6.667310"><ele>132.80</ele><time>2011-05-31T13:56:14Z</time></trkpt><trkpt lat="49.819775" lon="6.667404"><ele>132.80</ele><time>2011-05-31T13:56:15Z</time></trkpt><trkpt lat="49.819763" lon="6.667840"><ele>132.32</ele><time>2011-05-31T13:56:19Z</time></trkpt><trkpt lat="49.819725" lon="6.668088"><ele>132.80</ele><time>2011-05-31T13:56:22Z</time></trkpt><trkpt lat="49.819691" lon="6.668225"><ele>132.32</ele><time>2011-05-31T13:56:24Z</time></trkpt><trkpt lat="49.819664" lon="6.668286"><ele>132.80</ele><time>2011-05-31T13:56:25Z</time></trkpt><trkpt lat="49.819614" lon="6.668405"><ele>133.28</ele><time>2011-05-31T13:56:27Z</time></trkpt><trkpt lat="49.819508" lon="6.668556"><ele>132.80</ele><time>2011-05-31T13:56:30Z</time></trkpt><trkpt lat="49.819466" lon="6.668602"><ele>132.80</ele><time>2011-05-31T13:56:31Z</time></trkpt><trkpt lat="49.819420" lon="6.668633"><ele>132.80</ele><time>2011-05-31T13:56:32Z</time></trkpt><trkpt lat="49.819370" lon="6.668656"><ele>132.32</ele><time>2011-05-31T13:56:33Z</time></trkpt><trkpt lat="49.819321" lon="6.668674"><ele>132.32</ele><time>2011-05-31T13:56:34Z</time></trkpt><trkpt lat="49.819275" lon="6.668679"><ele>132.32</ele><time>2011-05-31T13:56:35Z</time></trkpt><trkpt lat="49.819176" lon="6.668684"><ele>132.32</ele><time>2011-05-31T13:56:37Z</time></trkpt><trkpt lat="49.819126" lon="6.668678"><ele>132.32</ele><time>2011-05-31T13:56:38Z</time></trkpt><trkpt lat="49.818882" lon="6.668587"><ele>132.32</ele><time>2011-05-31T13:56:43Z</time></trkpt><trkpt lat="49.818832" lon="6.668562"><ele>131.84</ele><time>2011-05-31T13:56:44Z</time></trkpt><trkpt lat="49.818405" lon="6.668369"><ele>131.84</ele><time>2011-05-31T13:56:53Z</time></trkpt><trkpt lat="49.818272" lon="6.668328"><ele>131.84</ele><time>2011-05-31T13:56:56Z</time></trkpt><trkpt lat="49.817730" lon="6.667997"><ele>132.80</ele><time>2011-05-31T13:57:09Z</time></trkpt><trkpt lat="49.817360" lon="6.667803"><ele>133.28</ele><time>2011-05-31T13:57:20Z</time></trkpt><trkpt lat="49.817055" lon="6.667655"><ele>134.72</ele><time>2011-05-31T13:57:32Z</time></trkpt><trkpt lat="49.817005" lon="6.667633"><ele>134.72</ele><time>2011-05-31T13:57:35Z</time></trkpt><trkpt lat="49.816822" lon="6.667578"><ele>136.16</ele><time>2011-05-31T13:57:45Z</time></trkpt><trkpt lat="49.816605" lon="6.667511"><ele>137.61</ele><time>2011-05-31T13:57:55Z</time></trkpt><trkpt lat="49.816341" lon="6.667587"><ele>138.57</ele><time>2011-05-31T13:58:10Z</time></trkpt><trkpt lat="49.816196" lon="6.667558"><ele>140.97</ele><time>2011-05-31T13:58:19Z</time></trkpt><trkpt lat="49.815956" lon="6.667466"><ele>139.53</ele><time>2011-05-31T13:58:35Z</time></trkpt><trkpt lat="49.815605" lon="6.667676"><ele>139.53</ele><time>2011-05-31T13:58:50Z</time></trkpt><trkpt lat="49.815186" lon="6.667958"><ele>136.64</ele><time>2011-05-31T13:58:59Z</time></trkpt><trkpt lat="49.815128" lon="6.667997"><ele>136.16</ele><time>2011-05-31T13:59:00Z</time></trkpt><trkpt lat="49.814545" lon="6.668480"><ele>133.28</ele><time>2011-05-31T13:59:09Z</time></trkpt><trkpt lat="49.813782" lon="6.669271"><ele>131.36</ele><time>2011-05-31T13:59:22Z</time></trkpt><trkpt lat="49.813107" lon="6.670416"><ele>130.88</ele><time>2011-05-31T13:59:40Z</time></trkpt><trkpt lat="49.812958" lon="6.670781"><ele>131.36</ele><time>2011-05-31T13:59:46Z</time></trkpt><trkpt lat="49.812931" lon="6.670835"><ele>131.36</ele><time>2011-05-31T13:59:47Z</time></trkpt><trkpt lat="49.812920" lon="6.670891"><ele>131.36</ele><time>2011-05-31T13:59:48Z</time></trkpt><trkpt lat="49.812912" lon="6.670945"><ele>131.84</ele><time>2011-05-31T13:59:49Z</time></trkpt><trkpt lat="49.812904" lon="6.670991"><ele>131.36</ele><time>2011-05-31T13:59:50Z</time></trkpt><trkpt lat="49.812893" lon="6.671026"><ele>131.36</ele><time>2011-05-31T13:59:51Z</time></trkpt><trkpt lat="49.812881" lon="6.671058"><ele>131.36</ele><time>2011-05-31T13:59:52Z</time></trkpt><trkpt lat="49.812714" lon="6.671564"><ele>131.36</ele><time>2011-05-31T14:00:05Z</time></trkpt><trkpt lat="49.812511" lon="6.672208"><ele>131.36</ele><time>2011-05-31T14:00:19Z</time></trkpt><trkpt lat="49.812321" lon="6.672791"><ele>131.84</ele><time>2011-05-31T14:00:32Z</time></trkpt><trkpt lat="49.812153" lon="6.673387"><ele>132.80</ele><time>2011-05-31T14:00:45Z</time></trkpt><trkpt lat="49.811951" lon="6.674252"><ele>132.32</ele><time>2011-05-31T14:01:01Z</time></trkpt><trkpt lat="49.811661" lon="6.675117"><ele>130.40</ele><time>2011-05-31T14:01:16Z</time></trkpt><trkpt lat="49.811558" lon="6.675405"><ele>129.43</ele><time>2011-05-31T14:01:20Z</time></trkpt><trkpt lat="49.811150" lon="6.676310"><ele>128.95</ele><time>2011-05-31T14:01:33Z</time></trkpt><trkpt lat="49.811111" lon="6.676373"><ele>128.47</ele><time>2011-05-31T14:01:34Z</time></trkpt><trkpt lat="49.811081" lon="6.676438"><ele>128.47</ele><time>2011-05-31T14:01:35Z</time></trkpt><trkpt lat="49.810783" lon="6.677052"><ele>128.47</ele><time>2011-05-31T14:01:45Z</time></trkpt><trkpt lat="49.810528" lon="6.677678"><ele>128.95</ele><time>2011-05-31T14:01:56Z</time></trkpt><trkpt lat="49.810482" lon="6.677794"><ele>126.55</ele><time>2011-05-31T14:01:58Z</time></trkpt><trkpt lat="49.810455" lon="6.677850"><ele>126.55</ele><time>2011-05-31T14:01:59Z</time></trkpt><trkpt lat="49.810375" lon="6.678019"><ele>126.55</ele><time>2011-05-31T14:02:02Z</time></trkpt><trkpt lat="49.810318" lon="6.678129"><ele>127.99</ele><time>2011-05-31T14:02:04Z</time></trkpt><trkpt lat="49.809692" lon="6.679052"><ele>127.03</ele><time>2011-05-31T14:02:22Z</time></trkpt><trkpt lat="49.809147" lon="6.679844"><ele>127.51</ele><time>2011-05-31T14:02:38Z</time></trkpt><trkpt lat="49.808838" lon="6.680558"><ele>128.47</ele><time>2011-05-31T14:02:52Z</time></trkpt><trkpt lat="49.808575" lon="6.681348"><ele>128.47</ele><time>2011-05-31T14:03:08Z</time></trkpt><trkpt lat="49.808327" lon="6.681891"><ele>128.47</ele><time>2011-05-31T14:03:20Z</time></trkpt><trkpt lat="49.807999" lon="6.682548"><ele>128.47</ele><time>2011-05-31T14:03:34Z</time></trkpt><trkpt lat="49.807667" lon="6.683174"><ele>128.47</ele><time>2011-05-31T14:03:48Z</time></trkpt><trkpt lat="49.807198" lon="6.683968"><ele>128.47</ele><time>2011-05-31T14:04:07Z</time></trkpt><trkpt lat="49.806767" lon="6.684461"><ele>127.51</ele><time>2011-05-31T14:04:23Z</time></trkpt><trkpt lat="49.806667" lon="6.684527"><ele>127.03</ele><time>2011-05-31T14:04:37Z</time></trkpt><trkpt lat="49.806667" lon="6.684527"><ele>127.03</ele><time>2011-05-31T14:05:06Z</time></trkpt><trkpt lat="49.806664" lon="6.684553"><ele>127.03</ele><time>2011-05-31T14:05:08Z</time></trkpt><trkpt lat="49.806656" lon="6.684573"><ele>127.03</ele><time>2011-05-31T14:05:09Z</time></trkpt><trkpt lat="49.806641" lon="6.684591"><ele>127.03</ele><time>2011-05-31T14:05:10Z</time></trkpt><trkpt lat="49.806625" lon="6.684612"><ele>127.03</ele><time>2011-05-31T14:05:11Z</time></trkpt><trkpt lat="49.806618" lon="6.684629"><ele>126.55</ele><time>2011-05-31T14:05:12Z</time></trkpt><trkpt lat="49.806610" lon="6.684645"><ele>126.55</ele><time>2011-05-31T14:05:13Z</time></trkpt><trkpt lat="49.806602" lon="6.684677"><ele>127.03</ele><time>2011-05-31T14:05:26Z</time></trkpt><trkpt lat="49.806610" lon="6.684686"><ele>127.03</ele><time>2011-05-31T14:05:37Z</time></trkpt><trkpt lat="49.806625" lon="6.684691"><ele>127.03</ele><time>2011-05-31T14:05:38Z</time></trkpt><trkpt lat="49.806641" lon="6.684703"><ele>127.03</ele><time>2011-05-31T14:05:39Z</time></trkpt><trkpt lat="49.806660" lon="6.684708"><ele>127.03</ele><time>2011-05-31T14:05:40Z</time></trkpt><trkpt lat="49.806679" lon="6.684711"><ele>127.03</ele><time>2011-05-31T14:05:41Z</time></trkpt><trkpt lat="49.806698" lon="6.684714"><ele>127.03</ele><time>2011-05-31T14:05:42Z</time></trkpt><trkpt lat="49.806717" lon="6.684722"><ele>127.03</ele><time>2011-05-31T14:05:43Z</time></trkpt><trkpt lat="49.806740" lon="6.684730"><ele>127.03</ele><time>2011-05-31T14:05:44Z</time></trkpt><trkpt lat="49.806759" lon="6.684731"><ele>127.51</ele><time>2011-05-31T14:05:45Z</time></trkpt><trkpt lat="49.806740" lon="6.684918"><ele>126.55</ele><time>2011-05-31T14:05:54Z</time></trkpt><trkpt lat="49.806698" lon="6.684955"><ele>126.55</ele><time>2011-05-31T14:05:55Z</time></trkpt><trkpt lat="49.806660" lon="6.684989"><ele>126.07</ele><time>2011-05-31T14:05:56Z</time></trkpt><trkpt lat="49.806625" lon="6.685024"><ele>126.55</ele><time>2011-05-31T14:05:57Z</time></trkpt><trkpt lat="49.806587" lon="6.685062"><ele>126.07</ele><time>2011-05-31T14:05:58Z</time></trkpt><trkpt lat="49.806557" lon="6.685092"><ele>126.07</ele><time>2011-05-31T14:05:59Z</time></trkpt><trkpt lat="49.806217" lon="6.685419"><ele>126.55</ele><time>2011-05-31T14:06:10Z</time></trkpt><trkpt lat="49.805931" lon="6.685757"><ele>124.15</ele><time>2011-05-31T14:06:21Z</time></trkpt><trkpt lat="49.805847" lon="6.685855"><ele>124.15</ele><time>2011-05-31T14:06:23Z</time></trkpt><trkpt lat="49.805817" lon="6.685921"><ele>123.67</ele><time>2011-05-31T14:06:24Z</time></trkpt><trkpt lat="49.805798" lon="6.685998"><ele>123.67</ele><time>2011-05-31T14:06:25Z</time></trkpt><trkpt lat="49.805798" lon="6.686077"><ele>123.19</ele><time>2011-05-31T14:06:26Z</time></trkpt><trkpt lat="49.805809" lon="6.686155"><ele>123.67</ele><time>2011-05-31T14:06:27Z</time></trkpt><trkpt lat="49.805813" lon="6.686235"><ele>123.19</ele><time>2011-05-31T14:06:28Z</time></trkpt><trkpt lat="49.805813" lon="6.686319"><ele>122.71</ele><time>2011-05-31T14:06:29Z</time></trkpt><trkpt lat="49.805809" lon="6.686409"><ele>122.22</ele><time>2011-05-31T14:06:30Z</time></trkpt><trkpt lat="49.805794" lon="6.686794"><ele>121.74</ele><time>2011-05-31T14:06:34Z</time></trkpt><trkpt lat="49.805782" lon="6.686991"><ele>122.71</ele><time>2011-05-31T14:06:39Z</time></trkpt><trkpt lat="49.805798" lon="6.687004"><ele>123.19</ele><time>2011-05-31T14:06:40Z</time></trkpt><trkpt lat="49.805820" lon="6.687005"><ele>123.19</ele><time>2011-05-31T14:06:41Z</time></trkpt><trkpt lat="49.805847" lon="6.687016"><ele>123.19</ele><time>2011-05-31T14:06:42Z</time></trkpt><trkpt lat="49.805874" lon="6.687033"><ele>123.67</ele><time>2011-05-31T14:06:43Z</time></trkpt><trkpt lat="49.805897" lon="6.687055"><ele>123.19</ele><time>2011-05-31T14:06:44Z</time></trkpt><trkpt lat="49.805927" lon="6.687079"><ele>123.19</ele><time>2011-05-31T14:06:45Z</time></trkpt><trkpt lat="49.805954" lon="6.687103"><ele>123.19</ele><time>2011-05-31T14:06:46Z</time></trkpt><trkpt lat="49.806065" lon="6.687573"><ele>122.71</ele><time>2011-05-31T14:06:56Z</time></trkpt><trkpt lat="49.805984" lon="6.688768"><ele>123.19</ele><time>2011-05-31T14:07:14Z</time></trkpt><trkpt lat="49.805992" lon="6.689174"><ele>122.71</ele><time>2011-05-31T14:07:20Z</time></trkpt><trkpt lat="49.805981" lon="6.689242"><ele>123.19</ele><time>2011-05-31T14:07:21Z</time></trkpt><trkpt lat="49.805969" lon="6.689307"><ele>123.19</ele><time>2011-05-31T14:07:22Z</time></trkpt><trkpt lat="49.805950" lon="6.689370"><ele>122.71</ele><time>2011-05-31T14:07:23Z</time></trkpt><trkpt lat="49.805931" lon="6.689429"><ele>123.19</ele><time>2011-05-31T14:07:24Z</time></trkpt><trkpt lat="49.805908" lon="6.689487"><ele>122.71</ele><time>2011-05-31T14:07:25Z</time></trkpt><trkpt lat="49.805859" lon="6.689597"><ele>122.71</ele><time>2011-05-31T14:07:27Z</time></trkpt><trkpt lat="49.805832" lon="6.689647"><ele>122.71</ele><time>2011-05-31T14:07:28Z</time></trkpt><trkpt lat="49.805679" lon="6.689888"><ele>123.19</ele><time>2011-05-31T14:07:33Z</time></trkpt><trkpt lat="49.805656" lon="6.689941"><ele>122.71</ele><time>2011-05-31T14:07:34Z</time></trkpt><trkpt lat="49.805634" lon="6.690001"><ele>122.71</ele><time>2011-05-31T14:07:35Z</time></trkpt><trkpt lat="49.805515" lon="6.690404"><ele>122.22</ele><time>2011-05-31T14:07:41Z</time></trkpt><trkpt lat="49.805481" lon="6.690454"><ele>122.71</ele><time>2011-05-31T14:07:42Z</time></trkpt><trkpt lat="49.805447" lon="6.690494"><ele>122.71</ele><time>2011-05-31T14:07:43Z</time></trkpt><trkpt lat="49.805408" lon="6.690527"><ele>122.71</ele><time>2011-05-31T14:07:44Z</time></trkpt><trkpt lat="49.805363" lon="6.690544"><ele>122.71</ele><time>2011-05-31T14:07:45Z</time></trkpt><trkpt lat="49.805317" lon="6.690557"><ele>122.71</ele><time>2011-05-31T14:07:46Z</time></trkpt><trkpt lat="49.804951" lon="6.691057"><ele>122.71</ele><time>2011-05-31T14:07:57Z</time></trkpt><trkpt lat="49.804813" lon="6.691257"><ele>122.22</ele><time>2011-05-31T14:08:01Z</time></trkpt><trkpt lat="49.804779" lon="6.691312"><ele>122.71</ele><time>2011-05-31T14:08:02Z</time></trkpt><trkpt lat="49.804749" lon="6.691376"><ele>122.71</ele><time>2011-05-31T14:08:03Z</time></trkpt><trkpt lat="49.804684" lon="6.691510"><ele>122.71</ele><time>2011-05-31T14:08:05Z</time></trkpt><trkpt lat="49.804642" lon="6.691566"><ele>122.22</ele><time>2011-05-31T14:08:06Z</time></trkpt><trkpt lat="49.804600" lon="6.691611"><ele>122.22</ele><time>2011-05-31T14:08:07Z</time></trkpt><trkpt lat="49.804558" lon="6.691636"><ele>122.22</ele><time>2011-05-31T14:08:08Z</time></trkpt><trkpt lat="49.804508" lon="6.691645"><ele>122.22</ele><time>2011-05-31T14:08:09Z</time></trkpt><trkpt lat="49.804459" lon="6.691648"><ele>122.22</ele><time>2011-05-31T14:08:10Z</time></trkpt><trkpt lat="49.804146" lon="6.691610"><ele>122.22</ele><time>2011-05-31T14:08:17Z</time></trkpt><trkpt lat="49.804104" lon="6.691613"><ele>122.22</ele><time>2011-05-31T14:08:18Z</time></trkpt><trkpt lat="49.804062" lon="6.691621"><ele>122.22</ele><time>2011-05-31T14:08:19Z</time></trkpt><trkpt lat="49.804020" lon="6.691635"><ele>122.71</ele><time>2011-05-31T14:08:20Z</time></trkpt><trkpt lat="49.803978" lon="6.691653"><ele>122.22</ele><time>2011-05-31T14:08:21Z</time></trkpt><trkpt lat="49.803894" lon="6.691685"><ele>122.22</ele><time>2011-05-31T14:08:23Z</time></trkpt><trkpt lat="49.803303" lon="6.692140"><ele>122.22</ele><time>2011-05-31T14:08:37Z</time></trkpt><trkpt lat="49.803154" lon="6.692308"><ele>122.22</ele><time>2011-05-31T14:08:41Z</time></trkpt><trkpt lat="49.802738" lon="6.692838"><ele>122.71</ele><time>2011-05-31T14:08:53Z</time></trkpt><trkpt lat="49.802704" lon="6.692883"><ele>122.22</ele><time>2011-05-31T14:08:54Z</time></trkpt><trkpt lat="49.802612" lon="6.693004"><ele>122.71</ele><time>2011-05-31T14:08:57Z</time></trkpt><trkpt lat="49.802593" lon="6.693058"><ele>122.71</ele><time>2011-05-31T14:08:58Z</time></trkpt><trkpt lat="49.802433" lon="6.693731"><ele>123.19</ele><time>2011-05-31T14:09:10Z</time></trkpt><trkpt lat="49.802277" lon="6.694670"><ele>122.71</ele><time>2011-05-31T14:09:25Z</time></trkpt><trkpt lat="49.802155" lon="6.695632"><ele>122.22</ele><time>2011-05-31T14:09:39Z</time></trkpt><trkpt lat="49.802135" lon="6.695767"><ele>122.22</ele><time>2011-05-31T14:09:41Z</time></trkpt><trkpt lat="49.802132" lon="6.695840"><ele>122.71</ele><time>2011-05-31T14:09:42Z</time></trkpt><trkpt lat="49.801964" lon="6.697080"><ele>123.67</ele><time>2011-05-31T14:10:00Z</time></trkpt><trkpt lat="49.801849" lon="6.697845"><ele>124.15</ele><time>2011-05-31T14:10:14Z</time></trkpt><trkpt lat="49.801769" lon="6.698560"><ele>126.07</ele><time>2011-05-31T14:10:31Z</time></trkpt><trkpt lat="49.801590" lon="6.699121"><ele>126.55</ele><time>2011-05-31T14:10:45Z</time></trkpt><trkpt lat="49.801243" lon="6.699058"><ele>126.55</ele><time>2011-05-31T14:10:58Z</time></trkpt><trkpt lat="49.801125" lon="6.698997"><ele>126.55</ele><time>2011-05-31T14:11:11Z</time></trkpt><trkpt lat="49.801125" lon="6.699015"><ele>126.55</ele><time>2011-05-31T14:11:48Z</time></trkpt><trkpt lat="49.801151" lon="6.699016"><ele>127.03</ele><time>2011-05-31T14:11:53Z</time></trkpt><trkpt lat="49.801228" lon="6.698795"><ele>126.07</ele><time>2011-05-31T14:12:01Z</time></trkpt><trkpt lat="49.801300" lon="6.698194"><ele>125.59</ele><time>2011-05-31T14:12:15Z</time></trkpt><trkpt lat="49.801281" lon="6.698208"><ele>126.07</ele><time>2011-05-31T14:12:18Z</time></trkpt><trkpt lat="49.801289" lon="6.698337"><ele>126.07</ele><time>2011-05-31T14:12:23Z</time></trkpt><trkpt lat="49.801208" lon="6.698932"><ele>126.55</ele><time>2011-05-31T14:12:40Z</time></trkpt><trkpt lat="49.801182" lon="6.698976"><ele>127.03</ele><time>2011-05-31T14:12:42Z</time></trkpt><trkpt lat="49.801125" lon="6.698985"><ele>126.55</ele><time>2011-05-31T14:12:46Z</time></trkpt><trkpt lat="49.801056" lon="6.698972"><ele>126.55</ele><time>2011-05-31T14:12:52Z</time></trkpt><trkpt lat="49.800896" lon="6.698933"><ele>126.55</ele><time>2011-05-31T14:13:01Z</time></trkpt><trkpt lat="49.800903" lon="6.698908"><ele>126.55</ele><time>2011-05-31T14:13:10Z</time></trkpt><trkpt lat="49.801151" lon="6.698972"><ele>127.03</ele><time>2011-05-31T14:13:23Z</time></trkpt><trkpt lat="49.801193" lon="6.698956"><ele>126.55</ele><time>2011-05-31T14:13:25Z</time></trkpt><trkpt lat="49.801235" lon="6.698830"><ele>126.55</ele><time>2011-05-31T14:13:29Z</time></trkpt><trkpt lat="49.801327" lon="6.698034"><ele>125.59</ele><time>2011-05-31T14:13:45Z</time></trkpt><trkpt lat="49.801338" lon="6.697970"><ele>125.59</ele><time>2011-05-31T14:13:46Z</time></trkpt><trkpt lat="49.801365" lon="6.697783"><ele>125.59</ele><time>2011-05-31T14:13:49Z</time></trkpt><trkpt lat="49.801525" lon="6.696794"><ele>125.59</ele><time>2011-05-31T14:14:05Z</time></trkpt><trkpt lat="49.801670" lon="6.695637"><ele>125.59</ele><time>2011-05-31T14:14:23Z</time></trkpt><trkpt lat="49.801746" lon="6.694668"><ele>126.55</ele><time>2011-05-31T14:14:39Z</time></trkpt><trkpt lat="49.801613" lon="6.694521"><ele>126.07</ele><time>2011-05-31T14:14:44Z</time></trkpt><trkpt lat="49.801403" lon="6.694520"><ele>125.59</ele><time>2011-05-31T14:14:48Z</time></trkpt><trkpt lat="49.800743" lon="6.694467"><ele>125.59</ele><time>2011-05-31T14:15:04Z</time></trkpt><trkpt lat="49.800232" lon="6.694499"><ele>125.59</ele><time>2011-05-31T14:15:17Z</time></trkpt><trkpt lat="49.800194" lon="6.694532"><ele>126.07</ele><time>2011-05-31T14:15:18Z</time></trkpt><trkpt lat="49.800117" lon="6.694594"><ele>125.59</ele><time>2011-05-31T14:15:20Z</time></trkpt><trkpt lat="49.800076" lon="6.694606"><ele>125.59</ele><time>2011-05-31T14:15:21Z</time></trkpt><trkpt lat="49.799263" lon="6.694593"><ele>126.07</ele><time>2011-05-31T14:15:39Z</time></trkpt><trkpt lat="49.798382" lon="6.694675"><ele>126.55</ele><time>2011-05-31T14:15:59Z</time></trkpt><trkpt lat="49.797485" lon="6.694886"><ele>126.07</ele><time>2011-05-31T14:16:18Z</time></trkpt><trkpt lat="49.796597" lon="6.695106"><ele>126.07</ele><time>2011-05-31T14:16:37Z</time></trkpt><trkpt lat="49.795628" lon="6.695333"><ele>126.07</ele><time>2011-05-31T14:16:57Z</time></trkpt><trkpt lat="49.794693" lon="6.695556"><ele>126.07</ele><time>2011-05-31T14:17:16Z</time></trkpt><trkpt lat="49.793854" lon="6.695758"><ele>126.55</ele><time>2011-05-31T14:17:33Z</time></trkpt><trkpt lat="49.793465" lon="6.695836"><ele>126.55</ele><time>2011-05-31T14:17:41Z</time></trkpt><trkpt lat="49.793415" lon="6.695820"><ele>126.07</ele><time>2011-05-31T14:17:42Z</time></trkpt><trkpt lat="49.793369" lon="6.695782"><ele>126.55</ele><time>2011-05-31T14:17:43Z</time></trkpt><trkpt lat="49.793339" lon="6.695727"><ele>126.07</ele><time>2011-05-31T14:17:44Z</time></trkpt><trkpt lat="49.793316" lon="6.695662"><ele>125.59</ele><time>2011-05-31T14:17:45Z</time></trkpt><trkpt lat="49.793301" lon="6.695593"><ele>126.07</ele><time>2011-05-31T14:17:46Z</time></trkpt><trkpt lat="49.793285" lon="6.695523"><ele>126.55</ele><time>2011-05-31T14:17:47Z</time></trkpt><trkpt lat="49.792961" lon="6.694148"><ele>126.07</ele><time>2011-05-31T14:18:08Z</time></trkpt><trkpt lat="49.792858" lon="6.693769"><ele>126.55</ele><time>2011-05-31T14:18:15Z</time></trkpt><trkpt lat="49.792835" lon="6.693764"><ele>126.55</ele><time>2011-05-31T14:18:16Z</time></trkpt><trkpt lat="49.792816" lon="6.693780"><ele>126.55</ele><time>2011-05-31T14:18:17Z</time></trkpt><trkpt lat="49.792801" lon="6.693808"><ele>126.07</ele><time>2011-05-31T14:18:18Z</time></trkpt><trkpt lat="49.792782" lon="6.693841"><ele>126.07</ele><time>2011-05-31T14:18:19Z</time></trkpt><trkpt lat="49.792755" lon="6.693868"><ele>126.55</ele><time>2011-05-31T14:18:20Z</time></trkpt><trkpt lat="49.792717" lon="6.693892"><ele>126.07</ele><time>2011-05-31T14:18:21Z</time></trkpt><trkpt lat="49.792679" lon="6.693913"><ele>126.55</ele><time>2011-05-31T14:18:22Z</time></trkpt><trkpt lat="49.792641" lon="6.693933"><ele>126.07</ele><time>2011-05-31T14:18:23Z</time></trkpt><trkpt lat="49.792599" lon="6.693953"><ele>126.07</ele><time>2011-05-31T14:18:24Z</time></trkpt><trkpt lat="49.791874" lon="6.694193"><ele>126.55</ele><time>2011-05-31T14:18:41Z</time></trkpt><trkpt lat="49.791248" lon="6.694401"><ele>126.55</ele><time>2011-05-31T14:18:55Z</time></trkpt><trkpt lat="49.790424" lon="6.694679"><ele>127.03</ele><time>2011-05-31T14:19:13Z</time></trkpt><trkpt lat="49.789429" lon="6.695006"><ele>127.03</ele><time>2011-05-31T14:19:35Z</time></trkpt><trkpt lat="49.788563" lon="6.695227"><ele>127.03</ele><time>2011-05-31T14:19:54Z</time></trkpt><trkpt lat="49.787762" lon="6.694985"><ele>127.03</ele><time>2011-05-31T14:20:12Z</time></trkpt><trkpt lat="49.787422" lon="6.694711"><ele>127.51</ele><time>2011-05-31T14:20:21Z</time></trkpt><trkpt lat="49.786907" lon="6.694231"><ele>127.51</ele><time>2011-05-31T14:20:38Z</time></trkpt><trkpt lat="49.786892" lon="6.694240"><ele>127.99</ele><time>2011-05-31T14:20:39Z</time></trkpt><trkpt lat="49.786873" lon="6.694241"><ele>127.03</ele><time>2011-05-31T14:20:40Z</time></trkpt><trkpt lat="49.786858" lon="6.694238"><ele>127.51</ele><time>2011-05-31T14:20:41Z</time></trkpt><trkpt lat="49.786842" lon="6.694235"><ele>127.51</ele><time>2011-05-31T14:20:42Z</time></trkpt><trkpt lat="49.786831" lon="6.694238"><ele>127.99</ele><time>2011-05-31T14:20:43Z</time></trkpt><trkpt lat="49.786823" lon="6.694249"><ele>127.51</ele><time>2011-05-31T14:20:44Z</time></trkpt><trkpt lat="49.786812" lon="6.694264"><ele>127.51</ele><time>2011-05-31T14:20:45Z</time></trkpt><trkpt lat="49.786797" lon="6.694277"><ele>127.51</ele><time>2011-05-31T14:20:46Z</time></trkpt><trkpt lat="49.786777" lon="6.694292"><ele>127.99</ele><time>2011-05-31T14:20:47Z</time></trkpt><trkpt lat="49.786762" lon="6.694311"><ele>127.99</ele><time>2011-05-31T14:20:48Z</time></trkpt><trkpt lat="49.786747" lon="6.694335"><ele>127.99</ele><time>2011-05-31T14:20:49Z</time></trkpt><trkpt lat="49.786499" lon="6.694698"><ele>127.51</ele><time>2011-05-31T14:21:03Z</time></trkpt><trkpt lat="49.786503" lon="6.695189"><ele>127.51</ele><time>2011-05-31T14:21:15Z</time></trkpt><trkpt lat="49.786449" lon="6.696130"><ele>127.51</ele><time>2011-05-31T14:21:31Z</time></trkpt><trkpt lat="49.786324" lon="6.696826"><ele>127.51</ele><time>2011-05-31T14:21:42Z</time></trkpt><trkpt lat="49.786297" lon="6.696881"><ele>127.51</ele><time>2011-05-31T14:21:43Z</time></trkpt><trkpt lat="49.786266" lon="6.696932"><ele>127.51</ele><time>2011-05-31T14:21:44Z</time></trkpt><trkpt lat="49.785854" lon="6.696767"><ele>127.51</ele><time>2011-05-31T14:21:54Z</time></trkpt><trkpt lat="49.785797" lon="6.696721"><ele>127.51</ele><time>2011-05-31T14:21:55Z</time></trkpt><trkpt lat="49.785748" lon="6.696681"><ele>127.51</ele><time>2011-05-31T14:21:56Z</time></trkpt><trkpt lat="49.785702" lon="6.696643"><ele>127.51</ele><time>2011-05-31T14:21:57Z</time></trkpt><trkpt lat="49.785660" lon="6.696610"><ele>127.51</ele><time>2011-05-31T14:21:58Z</time></trkpt><trkpt lat="49.784916" lon="6.696204"><ele>127.51</ele><time>2011-05-31T14:22:15Z</time></trkpt><trkpt lat="49.784531" lon="6.695986"><ele>127.51</ele><time>2011-05-31T14:22:24Z</time></trkpt><trkpt lat="49.784489" lon="6.695962"><ele>127.99</ele><time>2011-05-31T14:22:25Z</time></trkpt><trkpt lat="49.784359" lon="6.695887"><ele>127.51</ele><time>2011-05-31T14:22:28Z</time></trkpt><trkpt lat="49.784325" lon="6.695848"><ele>127.03</ele><time>2011-05-31T14:22:29Z</time></trkpt><trkpt lat="49.783974" lon="6.695396"><ele>127.51</ele><time>2011-05-31T14:22:39Z</time></trkpt><trkpt lat="49.783947" lon="6.695339"><ele>127.51</ele><time>2011-05-31T14:22:40Z</time></trkpt><trkpt lat="49.783920" lon="6.695281"><ele>127.99</ele><time>2011-05-31T14:22:41Z</time></trkpt><trkpt lat="49.783894" lon="6.695224"><ele>127.03</ele><time>2011-05-31T14:22:42Z</time></trkpt><trkpt lat="49.783863" lon="6.695171"><ele>127.51</ele><time>2011-05-31T14:22:43Z</time></trkpt><trkpt lat="49.783360" lon="6.694265"><ele>127.99</ele><time>2011-05-31T14:23:01Z</time></trkpt><trkpt lat="49.783016" lon="6.693995"><ele>127.51</ele><time>2011-05-31T14:23:12Z</time></trkpt><trkpt lat="49.782841" lon="6.694402"><ele>127.03</ele><time>2011-05-31T14:23:18Z</time></trkpt><trkpt lat="49.782810" lon="6.694481"><ele>126.55</ele><time>2011-05-31T14:23:19Z</time></trkpt><trkpt lat="49.782452" lon="6.695260"><ele>126.55</ele><time>2011-05-31T14:23:31Z</time></trkpt><trkpt lat="49.782085" lon="6.695791"><ele>126.55</ele><time>2011-05-31T14:23:41Z</time></trkpt><trkpt lat="49.782047" lon="6.695840"><ele>126.55</ele><time>2011-05-31T14:23:42Z</time></trkpt><trkpt lat="49.782013" lon="6.695895"><ele>126.55</ele><time>2011-05-31T14:23:43Z</time></trkpt><trkpt lat="49.781380" lon="6.696619"><ele>126.55</ele><time>2011-05-31T14:24:00Z</time></trkpt><trkpt lat="49.780910" lon="6.696987"><ele>126.07</ele><time>2011-05-31T14:24:11Z</time></trkpt><trkpt lat="49.780807" lon="6.697029"><ele>126.07</ele><time>2011-05-31T14:24:13Z</time></trkpt><trkpt lat="49.780762" lon="6.697031"><ele>125.59</ele><time>2011-05-31T14:24:14Z</time></trkpt><trkpt lat="49.780712" lon="6.697018"><ele>125.59</ele><time>2011-05-31T14:24:15Z</time></trkpt><trkpt lat="49.780666" lon="6.696986"><ele>125.59</ele><time>2011-05-31T14:24:16Z</time></trkpt><trkpt lat="49.780628" lon="6.696944"><ele>125.11</ele><time>2011-05-31T14:24:17Z</time></trkpt><trkpt lat="49.780590" lon="6.696897"><ele>125.11</ele><time>2011-05-31T14:24:18Z</time></trkpt><trkpt lat="49.780556" lon="6.696841"><ele>125.11</ele><time>2011-05-31T14:24:19Z</time></trkpt><trkpt lat="49.780533" lon="6.696776"><ele>125.11</ele><time>2011-05-31T14:24:20Z</time></trkpt><trkpt lat="49.780510" lon="6.696706"><ele>125.11</ele><time>2011-05-31T14:24:21Z</time></trkpt><trkpt lat="49.780113" lon="6.695611"><ele>124.63</ele><time>2011-05-31T14:24:37Z</time></trkpt><trkpt lat="49.779854" lon="6.694915"><ele>124.15</ele><time>2011-05-31T14:24:47Z</time></trkpt><trkpt lat="49.779831" lon="6.694849"><ele>123.67</ele><time>2011-05-31T14:24:48Z</time></trkpt><trkpt lat="49.779812" lon="6.694776"><ele>124.15</ele><time>2011-05-31T14:24:49Z</time></trkpt><trkpt lat="49.779594" lon="6.693910"><ele>123.67</ele><time>2011-05-31T14:25:03Z</time></trkpt><trkpt lat="49.779560" lon="6.693876"><ele>123.67</ele><time>2011-05-31T14:25:08Z</time></trkpt><trkpt lat="49.779549" lon="6.693892"><ele>124.15</ele><time>2011-05-31T14:25:09Z</time></trkpt><trkpt lat="49.779533" lon="6.693907"><ele>124.15</ele><time>2011-05-31T14:25:10Z</time></trkpt><trkpt lat="49.779514" lon="6.693921"><ele>123.67</ele><time>2011-05-31T14:25:11Z</time></trkpt><trkpt lat="49.779491" lon="6.693931"><ele>123.67</ele><time>2011-05-31T14:25:12Z</time></trkpt><trkpt lat="49.779465" lon="6.693935"><ele>123.67</ele><time>2011-05-31T14:25:13Z</time></trkpt><trkpt lat="49.779438" lon="6.693930"><ele>124.15</ele><time>2011-05-31T14:25:14Z</time></trkpt><trkpt lat="49.779411" lon="6.693917"><ele>123.67</ele><time>2011-05-31T14:25:15Z</time></trkpt><trkpt lat="49.779392" lon="6.693892"><ele>123.67</ele><time>2011-05-31T14:25:16Z</time></trkpt><trkpt lat="49.779381" lon="6.693852"><ele>123.67</ele><time>2011-05-31T14:25:17Z</time></trkpt><trkpt lat="49.779377" lon="6.693807"><ele>123.67</ele><time>2011-05-31T14:25:18Z</time></trkpt><trkpt lat="49.779308" lon="6.693062"><ele>123.67</ele><time>2011-05-31T14:25:34Z</time></trkpt><trkpt lat="49.779320" lon="6.692974"><ele>124.63</ele><time>2011-05-31T14:25:46Z</time></trkpt><trkpt lat="49.779343" lon="6.692818"><ele>124.63</ele><time>2011-05-31T14:25:51Z</time></trkpt><trkpt lat="49.779362" lon="6.692795"><ele>124.63</ele><time>2011-05-31T14:25:52Z</time></trkpt><trkpt lat="49.779381" lon="6.692779"><ele>124.15</ele><time>2011-05-31T14:25:53Z</time></trkpt><trkpt lat="49.779400" lon="6.692764"><ele>124.63</ele><time>2011-05-31T14:25:54Z</time></trkpt><trkpt lat="49.779415" lon="6.692748"><ele>124.63</ele><time>2011-05-31T14:25:55Z</time></trkpt><trkpt lat="49.779423" lon="6.692724"><ele>124.63</ele><time>2011-05-31T14:25:56Z</time></trkpt><trkpt lat="49.779427" lon="6.692693"><ele>124.63</ele><time>2011-05-31T14:25:57Z</time></trkpt><trkpt lat="49.779427" lon="6.692654"><ele>124.15</ele><time>2011-05-31T14:25:58Z</time></trkpt><trkpt lat="49.779419" lon="6.692611"><ele>124.63</ele><time>2011-05-31T14:25:59Z</time></trkpt><trkpt lat="49.779408" lon="6.692564"><ele>124.63</ele><time>2011-05-31T14:26:00Z</time></trkpt><trkpt lat="49.779396" lon="6.692519"><ele>124.63</ele><time>2011-05-31T14:26:01Z</time></trkpt><trkpt lat="49.779385" lon="6.692478"><ele>124.63</ele><time>2011-05-31T14:26:02Z</time></trkpt><trkpt lat="49.779259" lon="6.691781"><ele>121.26</ele><time>2011-05-31T14:26:14Z</time></trkpt><trkpt lat="49.779213" lon="6.691196"><ele>124.63</ele><time>2011-05-31T14:26:24Z</time></trkpt><trkpt lat="49.779213" lon="6.691096"><ele>125.11</ele><time>2011-05-31T14:26:26Z</time></trkpt><trkpt lat="49.779213" lon="6.691013"><ele>126.07</ele><time>2011-05-31T14:26:28Z</time></trkpt><trkpt lat="49.779148" lon="6.690369"><ele>126.07</ele><time>2011-05-31T14:26:42Z</time></trkpt><trkpt lat="49.779053" lon="6.689414"><ele>126.55</ele><time>2011-05-31T14:26:59Z</time></trkpt><trkpt lat="49.778961" lon="6.688289"><ele>126.07</ele><time>2011-05-31T14:27:17Z</time></trkpt><trkpt lat="49.778915" lon="6.687818"><ele>125.11</ele><time>2011-05-31T14:27:24Z</time></trkpt><trkpt lat="49.778824" lon="6.686557"><ele>126.07</ele><time>2011-05-31T14:27:42Z</time></trkpt><trkpt lat="49.778728" lon="6.685252"><ele>125.59</ele><time>2011-05-31T14:28:00Z</time></trkpt><trkpt lat="49.778679" lon="6.684623"><ele>125.59</ele><time>2011-05-31T14:28:09Z</time></trkpt><trkpt lat="49.778660" lon="6.684556"><ele>125.11</ele><time>2011-05-31T14:28:10Z</time></trkpt><trkpt lat="49.778637" lon="6.684487"><ele>125.11</ele><time>2011-05-31T14:28:11Z</time></trkpt><trkpt lat="49.778419" lon="6.683988"><ele>121.74</ele><time>2011-05-31T14:28:17Z</time></trkpt><trkpt lat="49.778362" lon="6.683798"><ele>122.71</ele><time>2011-05-31T14:28:19Z</time></trkpt><trkpt lat="49.778328" lon="6.683613"><ele>122.22</ele><time>2011-05-31T14:28:21Z</time></trkpt><trkpt lat="49.778324" lon="6.683524"><ele>122.22</ele><time>2011-05-31T14:28:22Z</time></trkpt><trkpt lat="49.778324" lon="6.683445"><ele>122.71</ele><time>2011-05-31T14:28:23Z</time></trkpt><trkpt lat="49.778355" lon="6.683231"><ele>122.71</ele><time>2011-05-31T14:28:26Z</time></trkpt><trkpt lat="49.778358" lon="6.683160"><ele>123.19</ele><time>2011-05-31T14:28:27Z</time></trkpt><trkpt lat="49.778240" lon="6.681864"><ele>121.74</ele><time>2011-05-31T14:28:43Z</time></trkpt><trkpt lat="49.778130" lon="6.680669"><ele>121.26</ele><time>2011-05-31T14:28:58Z</time></trkpt><trkpt lat="49.778114" lon="6.680522"><ele>121.26</ele><time>2011-05-31T14:29:00Z</time></trkpt><trkpt lat="49.777981" lon="6.679154"><ele>121.74</ele><time>2011-05-31T14:29:20Z</time></trkpt><trkpt lat="49.777802" lon="6.677661"><ele>121.74</ele><time>2011-05-31T14:29:42Z</time></trkpt><trkpt lat="49.777584" lon="6.676235"><ele>121.74</ele><time>2011-05-31T14:30:03Z</time></trkpt><trkpt lat="49.777328" lon="6.674852"><ele>122.22</ele><time>2011-05-31T14:30:24Z</time></trkpt><trkpt lat="49.776997" lon="6.673303"><ele>121.74</ele><time>2011-05-31T14:30:47Z</time></trkpt><trkpt lat="49.776711" lon="6.671995"><ele>122.22</ele><time>2011-05-31T14:31:07Z</time></trkpt><trkpt lat="49.776608" lon="6.671399"><ele>122.22</ele><time>2011-05-31T14:31:16Z</time></trkpt><trkpt lat="49.776604" lon="6.671328"><ele>122.22</ele><time>2011-05-31T14:31:17Z</time></trkpt><trkpt lat="49.776608" lon="6.671258"><ele>122.22</ele><time>2011-05-31T14:31:18Z</time></trkpt><trkpt lat="49.776615" lon="6.671190"><ele>122.22</ele><time>2011-05-31T14:31:19Z</time></trkpt><trkpt lat="49.776627" lon="6.671128"><ele>122.22</ele><time>2011-05-31T14:31:20Z</time></trkpt><trkpt lat="49.776638" lon="6.671068"><ele>122.71</ele><time>2011-05-31T14:31:21Z</time></trkpt><trkpt lat="49.776577" lon="6.670476"><ele>123.19</ele><time>2011-05-31T14:31:33Z</time></trkpt><trkpt lat="49.776474" lon="6.670378"><ele>123.19</ele><time>2011-05-31T14:31:36Z</time></trkpt><trkpt lat="49.776443" lon="6.670333"><ele>122.71</ele><time>2011-05-31T14:31:37Z</time></trkpt><trkpt lat="49.776417" lon="6.670281"><ele>122.71</ele><time>2011-05-31T14:31:38Z</time></trkpt><trkpt lat="49.776394" lon="6.670224"><ele>121.74</ele><time>2011-05-31T14:31:39Z</time></trkpt><trkpt lat="49.776371" lon="6.670154"><ele>121.74</ele><time>2011-05-31T14:31:40Z</time></trkpt><trkpt lat="49.776360" lon="6.670075"><ele>122.22</ele><time>2011-05-31T14:31:41Z</time></trkpt><trkpt lat="49.776348" lon="6.669987"><ele>121.74</ele><time>2011-05-31T14:31:42Z</time></trkpt><trkpt lat="49.776180" lon="6.668688"><ele>122.22</ele><time>2011-05-31T14:31:59Z</time></trkpt><trkpt lat="49.775986" lon="6.667337"><ele>122.22</ele><time>2011-05-31T14:32:19Z</time></trkpt><trkpt lat="49.775822" lon="6.666174"><ele>122.22</ele><time>2011-05-31T14:32:36Z</time></trkpt><trkpt lat="49.775742" lon="6.665384"><ele>122.22</ele><time>2011-05-31T14:32:48Z</time></trkpt><trkpt lat="49.775532" lon="6.664102"><ele>122.71</ele><time>2011-05-31T14:33:08Z</time></trkpt><trkpt lat="49.775322" lon="6.662730"><ele>123.19</ele><time>2011-05-31T14:33:29Z</time></trkpt><trkpt lat="49.775093" lon="6.661463"><ele>123.19</ele><time>2011-05-31T14:33:48Z</time></trkpt><trkpt lat="49.774845" lon="6.660157"><ele>122.22</ele><time>2011-05-31T14:34:08Z</time></trkpt><trkpt lat="49.774734" lon="6.659571"><ele>122.22</ele><time>2011-05-31T14:34:17Z</time></trkpt><trkpt lat="49.774483" lon="6.658186"><ele>122.22</ele><time>2011-05-31T14:34:38Z</time></trkpt><trkpt lat="49.774456" lon="6.658055"><ele>122.22</ele><time>2011-05-31T14:34:40Z</time></trkpt><trkpt lat="49.774437" lon="6.657993"><ele>122.22</ele><time>2011-05-31T14:34:41Z</time></trkpt><trkpt lat="49.774403" lon="6.657861"><ele>123.19</ele><time>2011-05-31T14:34:43Z</time></trkpt><trkpt lat="49.774387" lon="6.657793"><ele>122.71</ele><time>2011-05-31T14:34:44Z</time></trkpt><trkpt lat="49.774208" lon="6.656754"><ele>123.19</ele><time>2011-05-31T14:34:59Z</time></trkpt><trkpt lat="49.774071" lon="6.655432"><ele>123.19</ele><time>2011-05-31T14:35:17Z</time></trkpt><trkpt lat="49.773945" lon="6.654255"><ele>123.19</ele><time>2011-05-31T14:35:33Z</time></trkpt><trkpt lat="49.773891" lon="6.653555"><ele>124.15</ele><time>2011-05-31T14:35:46Z</time></trkpt><trkpt lat="49.773701" lon="6.652558"><ele>124.63</ele><time>2011-05-31T14:36:01Z</time></trkpt><trkpt lat="49.773476" lon="6.651384"><ele>123.67</ele><time>2011-05-31T14:36:18Z</time></trkpt><trkpt lat="49.773468" lon="6.651316"><ele>124.15</ele><time>2011-05-31T14:36:19Z</time></trkpt><trkpt lat="49.773418" lon="6.651033"><ele>123.67</ele><time>2011-05-31T14:36:23Z</time></trkpt><trkpt lat="49.773376" lon="6.650819"><ele>123.67</ele><time>2011-05-31T14:36:26Z</time></trkpt><trkpt lat="49.773357" lon="6.650749"><ele>123.67</ele><time>2011-05-31T14:36:27Z</time></trkpt><trkpt lat="49.773182" lon="6.649769"><ele>124.15</ele><time>2011-05-31T14:36:40Z</time></trkpt><trkpt lat="49.773163" lon="6.649696"><ele>123.67</ele><time>2011-05-31T14:36:41Z</time></trkpt><trkpt lat="49.773148" lon="6.649623"><ele>123.67</ele><time>2011-05-31T14:36:42Z</time></trkpt><trkpt lat="49.773003" lon="6.648825"><ele>123.67</ele><time>2011-05-31T14:36:53Z</time></trkpt><trkpt lat="49.772751" lon="6.647485"><ele>123.67</ele><time>2011-05-31T14:37:11Z</time></trkpt><trkpt lat="49.772682" lon="6.647106"><ele>123.67</ele><time>2011-05-31T14:37:16Z</time></trkpt><trkpt lat="49.772671" lon="6.647031"><ele>123.67</ele><time>2011-05-31T14:37:17Z</time></trkpt><trkpt lat="49.772652" lon="6.646961"><ele>124.15</ele><time>2011-05-31T14:37:18Z</time></trkpt><trkpt lat="49.772633" lon="6.646894"><ele>123.67</ele><time>2011-05-31T14:37:19Z</time></trkpt><trkpt lat="49.772617" lon="6.646824"><ele>123.67</ele><time>2011-05-31T14:37:20Z</time></trkpt><trkpt lat="49.772400" lon="6.645993"><ele>123.67</ele><time>2011-05-31T14:37:32Z</time></trkpt><trkpt lat="49.772377" lon="6.645929"><ele>123.67</ele><time>2011-05-31T14:37:33Z</time></trkpt><trkpt lat="49.772354" lon="6.645860"><ele>123.67</ele><time>2011-05-31T14:37:34Z</time></trkpt><trkpt lat="49.771999" lon="6.644684"><ele>123.67</ele><time>2011-05-31T14:37:51Z</time></trkpt><trkpt lat="49.771629" lon="6.643445"><ele>123.67</ele><time>2011-05-31T14:38:09Z</time></trkpt><trkpt lat="49.771328" lon="6.642464"><ele>123.67</ele><time>2011-05-31T14:38:24Z</time></trkpt><trkpt lat="49.771183" lon="6.642001"><ele>123.67</ele><time>2011-05-31T14:38:31Z</time></trkpt><trkpt lat="49.771156" lon="6.641933"><ele>123.67</ele><time>2011-05-31T14:38:32Z</time></trkpt><trkpt lat="49.770691" lon="6.640700"><ele>123.67</ele><time>2011-05-31T14:38:50Z</time></trkpt><trkpt lat="49.770226" lon="6.639508"><ele>123.19</ele><time>2011-05-31T14:39:08Z</time></trkpt><trkpt lat="49.769981" lon="6.638943"><ele>123.19</ele><time>2011-05-31T14:39:17Z</time></trkpt><trkpt lat="49.769905" lon="6.638778"><ele>123.19</ele><time>2011-05-31T14:39:20Z</time></trkpt><trkpt lat="49.769478" lon="6.637979"><ele>123.67</ele><time>2011-05-31T14:39:35Z</time></trkpt><trkpt lat="49.769444" lon="6.637930"><ele>123.67</ele><time>2011-05-31T14:39:36Z</time></trkpt><trkpt lat="49.769001" lon="6.637130"><ele>123.19</ele><time>2011-05-31T14:39:50Z</time></trkpt><trkpt lat="49.768536" lon="6.636314"><ele>123.19</ele><time>2011-05-31T14:40:05Z</time></trkpt><trkpt lat="49.768509" lon="6.636256"><ele>123.19</ele><time>2011-05-31T14:40:06Z</time></trkpt><trkpt lat="49.768478" lon="6.636201"><ele>122.22</ele><time>2011-05-31T14:40:07Z</time></trkpt><trkpt lat="49.767941" lon="6.635265"><ele>123.19</ele><time>2011-05-31T14:40:25Z</time></trkpt><trkpt lat="49.767242" lon="6.634199"><ele>123.67</ele><time>2011-05-31T14:40:47Z</time></trkpt><trkpt lat="49.767208" lon="6.634148"><ele>123.67</ele><time>2011-05-31T14:40:48Z</time></trkpt><trkpt lat="49.766548" lon="6.633249"><ele>123.19</ele><time>2011-05-31T14:41:08Z</time></trkpt><trkpt lat="49.766079" lon="6.632581"><ele>123.19</ele><time>2011-05-31T14:41:24Z</time></trkpt><trkpt lat="49.765568" lon="6.631942"><ele>123.19</ele><time>2011-05-31T14:41:41Z</time></trkpt><trkpt lat="49.765224" lon="6.631516"><ele>123.19</ele><time>2011-05-31T14:41:56Z</time></trkpt><trkpt lat="49.765221" lon="6.631486"><ele>123.67</ele><time>2011-05-31T14:41:57Z</time></trkpt><trkpt lat="49.765221" lon="6.631458"><ele>123.19</ele><time>2011-05-31T14:41:58Z</time></trkpt><trkpt lat="49.765228" lon="6.631433"><ele>123.67</ele><time>2011-05-31T14:41:59Z</time></trkpt><trkpt lat="49.765240" lon="6.631413"><ele>123.19</ele><time>2011-05-31T14:42:00Z</time></trkpt><trkpt lat="49.765385" lon="6.631305"><ele>124.63</ele><time>2011-05-31T14:42:14Z</time></trkpt><trkpt lat="49.765442" lon="6.631364"><ele>126.07</ele><time>2011-05-31T14:42:23Z</time></trkpt><trkpt lat="49.765499" lon="6.631237"><ele>126.55</ele><time>2011-05-31T14:42:31Z</time></trkpt><trkpt lat="49.765491" lon="6.631217"><ele>126.55</ele><time>2011-05-31T14:42:32Z</time></trkpt><trkpt lat="49.765453" lon="6.631203"><ele>126.55</ele><time>2011-05-31T14:42:35Z</time></trkpt><trkpt lat="49.765442" lon="6.631197"><ele>126.55</ele><time>2011-05-31T14:42:36Z</time></trkpt><trkpt lat="49.765388" lon="6.631054"><ele>127.03</ele><time>2011-05-31T14:42:47Z</time></trkpt><trkpt lat="49.765396" lon="6.631045"><ele>127.03</ele><time>2011-05-31T14:42:48Z</time></trkpt><trkpt lat="49.765507" lon="6.630869"><ele>129.43</ele><time>2011-05-31T14:43:05Z</time></trkpt><trkpt lat="49.765507" lon="6.630851"><ele>129.43</ele><time>2011-05-31T14:43:06Z</time></trkpt><trkpt lat="49.765541" lon="6.630846"><ele>129.43</ele><time>2011-05-31T14:43:11Z</time></trkpt><trkpt lat="49.765678" lon="6.631044"><ele>130.88</ele><time>2011-05-31T14:43:23Z</time></trkpt><trkpt lat="49.765911" lon="6.631298"><ele>132.32</ele><time>2011-05-31T14:43:41Z</time></trkpt><trkpt lat="49.766079" lon="6.631476"><ele>132.80</ele><time>2011-05-31T14:43:56Z</time></trkpt><trkpt lat="49.766098" lon="6.631481"><ele>132.80</ele><time>2011-05-31T14:44:01Z</time></trkpt><trkpt lat="49.766151" lon="6.631381"><ele>133.76</ele><time>2011-05-31T14:44:12Z</time></trkpt><trkpt lat="49.766163" lon="6.631371"><ele>134.24</ele><time>2011-05-31T14:44:13Z</time></trkpt><trkpt lat="49.766148" lon="6.631371"><ele>133.76</ele><time>2011-05-31T14:44:26Z</time></trkpt><trkpt lat="49.765919" lon="6.631375"><ele>132.80</ele><time>2011-05-31T14:44:37Z</time></trkpt><trkpt lat="49.765526" lon="6.630898"><ele>130.40</ele><time>2011-05-31T14:44:50Z</time></trkpt><trkpt lat="49.765011" lon="6.630508"><ele>127.51</ele><time>2011-05-31T14:45:04Z</time></trkpt><trkpt lat="49.764652" lon="6.630298"><ele>127.03</ele><time>2011-05-31T14:45:15Z</time></trkpt><trkpt lat="49.764160" lon="6.629872"><ele>126.55</ele><time>2011-05-31T14:45:30Z</time></trkpt><trkpt lat="49.763885" lon="6.629450"><ele>128.47</ele><time>2011-05-31T14:45:44Z</time></trkpt><trkpt lat="49.763935" lon="6.629387"><ele>128.95</ele><time>2011-05-31T14:45:47Z</time></trkpt><trkpt lat="49.763958" lon="6.629386"><ele>128.95</ele><time>2011-05-31T14:45:48Z</time></trkpt><trkpt lat="49.763977" lon="6.629390"><ele>128.95</ele><time>2011-05-31T14:45:49Z</time></trkpt><trkpt lat="49.764027" lon="6.629399"><ele>128.95</ele><time>2011-05-31T14:45:52Z</time></trkpt><trkpt lat="49.764038" lon="6.629407"><ele>129.43</ele><time>2011-05-31T14:45:53Z</time></trkpt><trkpt lat="49.764095" lon="6.629452"><ele>129.92</ele><time>2011-05-31T14:45:57Z</time></trkpt><trkpt lat="49.764332" lon="6.629522"><ele>131.36</ele><time>2011-05-31T14:46:13Z</time></trkpt><trkpt lat="49.764599" lon="6.629568"><ele>132.80</ele><time>2011-05-31T14:46:29Z</time></trkpt><trkpt lat="49.764862" lon="6.629674"><ele>134.72</ele><time>2011-05-31T14:46:45Z</time></trkpt><trkpt lat="49.764912" lon="6.630034"><ele>137.61</ele><time>2011-05-31T14:47:00Z</time></trkpt><trkpt lat="49.764709" lon="6.630578"><ele>136.64</ele><time>2011-05-31T14:47:15Z</time></trkpt><trkpt lat="49.764404" lon="6.631440"><ele>134.72</ele><time>2011-05-31T14:47:34Z</time></trkpt><trkpt lat="49.764038" lon="6.632435"><ele>132.80</ele><time>2011-05-31T14:47:51Z</time></trkpt><trkpt lat="49.763893" lon="6.632854"><ele>130.88</ele><time>2011-05-31T14:47:59Z</time></trkpt><trkpt lat="49.763634" lon="6.633578"><ele>130.88</ele><time>2011-05-31T14:48:18Z</time></trkpt><trkpt lat="49.763538" lon="6.633748"><ele>128.47</ele><time>2011-05-31T14:48:24Z</time></trkpt><trkpt lat="49.763508" lon="6.633811"><ele>128.95</ele><time>2011-05-31T14:48:31Z</time></trkpt><trkpt lat="49.763512" lon="6.633835"><ele>128.47</ele><time>2011-05-31T14:48:32Z</time></trkpt><trkpt lat="49.763542" lon="6.633999"><ele>128.47</ele><time>2011-05-31T14:48:38Z</time></trkpt><trkpt lat="49.763542" lon="6.634010"><ele>129.92</ele><time>2011-05-31T14:48:51Z</time></trkpt><trkpt lat="49.763535" lon="6.634023"><ele>127.99</ele><time>2011-05-31T14:49:19Z</time></trkpt><trkpt lat="49.763523" lon="6.634039"><ele>127.99</ele><time>2011-05-31T14:49:20Z</time></trkpt><trkpt lat="49.763508" lon="6.634057"><ele>127.99</ele><time>2011-05-31T14:49:21Z</time></trkpt><trkpt lat="49.763458" lon="6.634097"><ele>127.99</ele><time>2011-05-31T14:49:25Z</time></trkpt><trkpt lat="49.763447" lon="6.634113"><ele>127.51</ele><time>2011-05-31T14:49:26Z</time></trkpt><trkpt lat="49.763435" lon="6.634128"><ele>127.51</ele><time>2011-05-31T14:49:27Z</time></trkpt><trkpt lat="49.763424" lon="6.634142"><ele>127.99</ele><time>2011-05-31T14:49:28Z</time></trkpt><trkpt lat="49.763409" lon="6.634159"><ele>127.51</ele><time>2011-05-31T14:49:29Z</time></trkpt><trkpt lat="49.763397" lon="6.634175"><ele>127.99</ele><time>2011-05-31T14:49:30Z</time></trkpt><trkpt lat="49.763184" lon="6.634468"><ele>126.55</ele><time>2011-05-31T14:49:42Z</time></trkpt><trkpt lat="49.762798" lon="6.634798"><ele>127.03</ele><time>2011-05-31T14:49:58Z</time></trkpt><trkpt lat="49.762409" lon="6.635034"><ele>127.03</ele><time>2011-05-31T14:50:12Z</time></trkpt><trkpt lat="49.762070" lon="6.635481"><ele>127.51</ele><time>2011-05-31T14:50:26Z</time></trkpt><trkpt lat="49.761761" lon="6.635981"><ele>127.51</ele><time>2011-05-31T14:50:40Z</time></trkpt><trkpt lat="49.761436" lon="6.636129"><ele>127.03</ele><time>2011-05-31T14:50:52Z</time></trkpt><trkpt lat="49.761196" lon="6.636217"><ele>127.03</ele><time>2011-05-31T14:51:04Z</time></trkpt><trkpt lat="49.761219" lon="6.636778"><ele>126.55</ele><time>2011-05-31T14:51:18Z</time></trkpt><trkpt lat="49.761383" lon="6.637420"><ele>126.55</ele><time>2011-05-31T14:51:30Z</time></trkpt><trkpt lat="49.761551" lon="6.637909"><ele>126.55</ele><time>2011-05-31T14:51:43Z</time></trkpt><trkpt lat="49.761551" lon="6.637964"><ele>126.55</ele><time>2011-05-31T14:51:47Z</time></trkpt><trkpt lat="49.761551" lon="6.637967"><ele>126.55</ele><time>2011-05-31T14:52:01Z</time></trkpt><trkpt lat="49.761555" lon="6.637987"><ele>126.55</ele><time>2011-05-31T14:52:02Z</time></trkpt><trkpt lat="49.761555" lon="6.638008"><ele>126.55</ele><time>2011-05-31T14:52:03Z</time></trkpt><trkpt lat="49.761559" lon="6.638027"><ele>127.03</ele><time>2011-05-31T14:52:04Z</time></trkpt><trkpt lat="49.761536" lon="6.638161"><ele>126.55</ele><time>2011-05-31T14:52:18Z</time></trkpt><trkpt lat="49.761471" lon="6.638672"><ele>126.55</ele><time>2011-05-31T14:52:31Z</time></trkpt><trkpt lat="49.761387" lon="6.639225"><ele>126.07</ele><time>2011-05-31T14:52:45Z</time></trkpt><trkpt lat="49.761261" lon="6.639737"><ele>126.07</ele><time>2011-05-31T14:53:00Z</time></trkpt><trkpt lat="49.761105" lon="6.640337"><ele>126.07</ele><time>2011-05-31T14:53:14Z</time></trkpt><trkpt lat="49.760838" lon="6.640932"><ele>127.03</ele><time>2011-05-31T14:53:29Z</time></trkpt><trkpt lat="49.760670" lon="6.641524"><ele>127.99</ele><time>2011-05-31T14:53:44Z</time></trkpt><trkpt lat="49.760506" lon="6.642076"><ele>127.51</ele><time>2011-05-31T14:53:59Z</time></trkpt><trkpt lat="49.760452" lon="6.642211"><ele>128.95</ele><time>2011-05-31T14:54:03Z</time></trkpt><trkpt lat="49.760353" lon="6.642426"><ele>129.43</ele><time>2011-05-31T14:54:11Z</time></trkpt><trkpt lat="49.760338" lon="6.642433"><ele>129.43</ele><time>2011-05-31T14:54:12Z</time></trkpt><trkpt lat="49.760029" lon="6.642418"><ele>129.43</ele><time>2011-05-31T14:54:26Z</time></trkpt><trkpt lat="49.759602" lon="6.642398"><ele>129.43</ele><time>2011-05-31T14:54:43Z</time></trkpt><trkpt lat="49.759495" lon="6.642309"><ele>129.92</ele><time>2011-05-31T14:54:56Z</time></trkpt><trkpt lat="49.759464" lon="6.642268"><ele>129.43</ele><time>2011-05-31T14:55:10Z</time></trkpt><trkpt lat="49.759449" lon="6.642262"><ele>129.43</ele><time>2011-05-31T14:55:11Z</time></trkpt><trkpt lat="49.759441" lon="6.642246"><ele>129.43</ele><time>2011-05-31T14:55:12Z</time></trkpt><trkpt lat="49.759426" lon="6.642243"><ele>129.43</ele><time>2011-05-31T14:55:13Z</time></trkpt><trkpt lat="49.759415" lon="6.642249"><ele>129.92</ele><time>2011-05-31T14:55:14Z</time></trkpt><trkpt lat="49.759403" lon="6.642255"><ele>129.43</ele><time>2011-05-31T14:55:15Z</time></trkpt><trkpt lat="49.759384" lon="6.642256"><ele>129.92</ele><time>2011-05-31T14:55:16Z</time></trkpt><trkpt lat="49.759373" lon="6.642246"><ele>129.43</ele><time>2011-05-31T14:55:17Z</time></trkpt><trkpt lat="49.759361" lon="6.642233"><ele>129.92</ele><time>2011-05-31T14:55:18Z</time></trkpt><trkpt lat="49.759106" lon="6.642015"><ele>129.92</ele><time>2011-05-31T14:55:34Z</time></trkpt><trkpt lat="49.758846" lon="6.641841"><ele>130.40</ele><time>2011-05-31T14:55:48Z</time></trkpt><trkpt lat="49.758602" lon="6.641732"><ele>131.36</ele><time>2011-05-31T14:56:03Z</time></trkpt><trkpt lat="49.758442" lon="6.641440"><ele>131.36</ele><time>2011-05-31T14:56:18Z</time></trkpt><trkpt lat="49.758286" lon="6.641155"><ele>132.32</ele><time>2011-05-31T14:56:33Z</time></trkpt><trkpt lat="49.758289" lon="6.641131"><ele>131.84</ele><time>2011-05-31T14:56:34Z</time></trkpt><trkpt lat="49.758297" lon="6.641105"><ele>131.84</ele><time>2011-05-31T14:56:35Z</time></trkpt><trkpt lat="49.758228" lon="6.640720"><ele>131.36</ele><time>2011-05-31T14:56:47Z</time></trkpt><trkpt lat="49.758125" lon="6.640391"><ele>131.36</ele><time>2011-05-31T14:57:01Z</time></trkpt><trkpt lat="49.758125" lon="6.640383"><ele>131.36</ele><time>2011-05-31T14:57:17Z</time></trkpt><trkpt lat="49.758118" lon="6.640378"><ele>130.88</ele><time>2011-05-31T14:57:53Z</time></trkpt><trkpt lat="49.758118" lon="6.640380"><ele>130.88</ele><time>2011-05-31T14:58:30Z</time></trkpt><trkpt lat="49.758114" lon="6.640378"><ele>131.36</ele><time>2011-05-31T14:59:08Z</time></trkpt><trkpt lat="49.758114" lon="6.640378"><ele>130.88</ele><time>2011-05-31T14:59:39Z</time></trkpt><trkpt lat="49.758118" lon="6.640385"><ele>131.36</ele><time>2011-05-31T15:00:14Z</time></trkpt><trkpt lat="49.758114" lon="6.640384"><ele>130.88</ele><time>2011-05-31T15:00:51Z</time></trkpt><trkpt lat="49.758114" lon="6.640392"><ele>130.40</ele><time>2011-05-31T15:01:20Z</time></trkpt><trkpt lat="49.758118" lon="6.640389"><ele>130.88</ele><time>2011-05-31T15:01:51Z</time></trkpt><trkpt lat="49.758118" lon="6.640389"><ele>130.88</ele><time>2011-05-31T15:02:13Z</time></trkpt><trkpt lat="49.758137" lon="6.640346"><ele>130.40</ele><time>2011-05-31T15:02:14Z</time></trkpt><trkpt lat="49.758156" lon="6.640310"><ele>130.40</ele><time>2011-05-31T15:02:15Z</time></trkpt><trkpt lat="49.758423" lon="6.639691"><ele>128.47</ele><time>2011-05-31T15:02:29Z</time></trkpt><trkpt lat="49.758553" lon="6.639133"><ele>127.99</ele><time>2011-05-31T15:02:41Z</time></trkpt><trkpt lat="49.758614" lon="6.638855"><ele>127.51</ele><time>2011-05-31T15:02:54Z</time></trkpt><trkpt lat="49.758667" lon="6.638931"><ele>127.51</ele><time>2011-05-31T15:02:59Z</time></trkpt><trkpt lat="49.758705" lon="6.638979"><ele>127.51</ele><time>2011-05-31T15:03:00Z</time></trkpt><trkpt lat="49.759087" lon="6.639361"><ele>127.03</ele><time>2011-05-31T15:03:14Z</time></trkpt><trkpt lat="49.759178" lon="6.639375"><ele>127.03</ele><time>2011-05-31T15:03:19Z</time></trkpt><trkpt lat="49.759201" lon="6.639371"><ele>127.03</ele><time>2011-05-31T15:03:20Z</time></trkpt><trkpt lat="49.759224" lon="6.639369"><ele>127.03</ele><time>2011-05-31T15:03:21Z</time></trkpt><trkpt lat="49.759247" lon="6.639368"><ele>127.03</ele><time>2011-05-31T15:03:22Z</time></trkpt><trkpt lat="49.759274" lon="6.639363"><ele>127.03</ele><time>2011-05-31T15:03:23Z</time></trkpt><trkpt lat="49.759827" lon="6.639069"><ele>127.03</ele><time>2011-05-31T15:03:39Z</time></trkpt><trkpt lat="49.760342" lon="6.638654"><ele>126.55</ele><time>2011-05-31T15:03:54Z</time></trkpt><trkpt lat="49.760952" lon="6.638318"><ele>127.03</ele><time>2011-05-31T15:04:12Z</time></trkpt><trkpt lat="49.761307" lon="6.638039"><ele>127.03</ele><time>2011-05-31T15:04:26Z</time></trkpt><trkpt lat="49.761524" lon="6.637650"><ele>127.03</ele><time>2011-05-31T15:04:36Z</time></trkpt><trkpt lat="49.761383" lon="6.637094"><ele>126.55</ele><time>2011-05-31T15:04:47Z</time></trkpt><trkpt lat="49.761181" lon="6.636284"><ele>127.03</ele><time>2011-05-31T15:05:02Z</time></trkpt><trkpt lat="49.761074" lon="6.635661"><ele>127.99</ele><time>2011-05-31T15:05:16Z</time></trkpt><trkpt lat="49.761017" lon="6.635342"><ele>127.99</ele><time>2011-05-31T15:05:27Z</time></trkpt><trkpt lat="49.760887" lon="6.634790"><ele>128.47</ele><time>2011-05-31T15:05:42Z</time></trkpt><trkpt lat="49.760643" lon="6.634187"><ele>128.47</ele><time>2011-05-31T15:05:56Z</time></trkpt><trkpt lat="49.760334" lon="6.633329"><ele>128.47</ele><time>2011-05-31T15:06:14Z</time></trkpt><trkpt lat="49.760117" lon="6.632748"><ele>128.95</ele><time>2011-05-31T15:06:28Z</time></trkpt><trkpt lat="49.760025" lon="6.632302"><ele>128.47</ele><time>2011-05-31T15:06:43Z</time></trkpt><trkpt lat="49.759689" lon="6.632080"><ele>127.99</ele><time>2011-05-31T15:06:55Z</time></trkpt><trkpt lat="49.759212" lon="6.631851"><ele>128.47</ele><time>2011-05-31T15:07:10Z</time></trkpt><trkpt lat="49.758896" lon="6.631560"><ele>127.99</ele><time>2011-05-31T15:07:25Z</time></trkpt><trkpt lat="49.758835" lon="6.631565"><ele>127.99</ele><time>2011-05-31T15:07:29Z</time></trkpt><trkpt lat="49.758820" lon="6.631555"><ele>127.51</ele><time>2011-05-31T15:07:30Z</time></trkpt><trkpt lat="49.758804" lon="6.631542"><ele>127.99</ele><time>2011-05-31T15:07:31Z</time></trkpt><trkpt lat="49.758785" lon="6.631526"><ele>127.51</ele><time>2011-05-31T15:07:32Z</time></trkpt><trkpt lat="49.758770" lon="6.631508"><ele>127.99</ele><time>2011-05-31T15:07:33Z</time></trkpt><trkpt lat="49.758751" lon="6.631491"><ele>127.99</ele><time>2011-05-31T15:07:34Z</time></trkpt><trkpt lat="49.758690" lon="6.631388"><ele>127.51</ele><time>2011-05-31T15:07:46Z</time></trkpt><trkpt lat="49.758690" lon="6.631388"><ele>127.99</ele><time>2011-05-31T15:08:10Z</time></trkpt><trkpt lat="49.758698" lon="6.631369"><ele>127.99</ele><time>2011-05-31T15:08:11Z</time></trkpt><trkpt lat="49.758705" lon="6.631352"><ele>127.51</ele><time>2011-05-31T15:08:12Z</time></trkpt><trkpt lat="49.758720" lon="6.631337"><ele>127.99</ele><time>2011-05-31T15:08:13Z</time></trkpt><trkpt lat="49.758728" lon="6.631318"><ele>127.51</ele><time>2011-05-31T15:08:14Z</time></trkpt><trkpt lat="49.758739" lon="6.631301"><ele>127.99</ele><time>2011-05-31T15:08:15Z</time></trkpt><trkpt lat="49.758747" lon="6.631280"><ele>127.99</ele><time>2011-05-31T15:08:33Z</time></trkpt><trkpt lat="49.758747" lon="6.631280"><ele>127.99</ele><time>2011-05-31T15:09:03Z</time></trkpt><trkpt lat="49.758747" lon="6.631280"><ele>127.99</ele><time>2011-05-31T15:09:32Z</time></trkpt><trkpt lat="49.758751" lon="6.631264"><ele>128.47</ele><time>2011-05-31T15:09:36Z</time></trkpt><trkpt lat="49.758759" lon="6.631231"><ele>127.99</ele><time>2011-05-31T15:09:37Z</time></trkpt><trkpt lat="49.758770" lon="6.631195"><ele>127.51</ele><time>2011-05-31T15:09:38Z</time></trkpt><trkpt lat="49.758827" lon="6.630812"><ele>128.95</ele><time>2011-05-31T15:09:53Z</time></trkpt><trkpt lat="49.758545" lon="6.630616"><ele>128.47</ele><time>2011-05-31T15:10:04Z</time></trkpt><trkpt lat="49.758198" lon="6.630325"><ele>128.47</ele><time>2011-05-31T15:10:17Z</time></trkpt><trkpt lat="49.757675" lon="6.629958"><ele>127.99</ele><time>2011-05-31T15:10:34Z</time></trkpt><trkpt lat="49.757187" lon="6.629706"><ele>128.47</ele><time>2011-05-31T15:10:48Z</time></trkpt><trkpt lat="49.756989" lon="6.629770"><ele>127.51</ele><time>2011-05-31T15:10:56Z</time></trkpt><trkpt lat="49.756969" lon="6.629751"><ele>127.51</ele><time>2011-05-31T15:10:57Z</time></trkpt><trkpt lat="49.756947" lon="6.629719"><ele>127.51</ele><time>2011-05-31T15:10:58Z</time></trkpt><trkpt lat="49.756927" lon="6.629694"><ele>127.03</ele><time>2011-05-31T15:10:59Z</time></trkpt><trkpt lat="49.756912" lon="6.629674"><ele>127.03</ele><time>2011-05-31T15:11:00Z</time></trkpt><trkpt lat="49.756569" lon="6.629373"><ele>125.11</ele><time>2011-05-31T15:11:15Z</time></trkpt><trkpt lat="49.756313" lon="6.629025"><ele>124.15</ele><time>2011-05-31T15:11:27Z</time></trkpt><trkpt lat="49.755867" lon="6.628794"><ele>124.63</ele><time>2011-05-31T15:11:41Z</time></trkpt><trkpt lat="49.755177" lon="6.628541"><ele>124.15</ele><time>2011-05-31T15:11:59Z</time></trkpt><trkpt lat="49.754436" lon="6.628269"><ele>123.67</ele><time>2011-05-31T15:12:17Z</time></trkpt><trkpt lat="49.753773" lon="6.628067"><ele>124.15</ele><time>2011-05-31T15:12:33Z</time></trkpt><trkpt lat="49.753735" lon="6.628061"><ele>124.15</ele><time>2011-05-31T15:12:34Z</time></trkpt><trkpt lat="49.752842" lon="6.627914"><ele>123.67</ele><time>2011-05-31T15:12:55Z</time></trkpt><trkpt lat="49.752155" lon="6.627924"><ele>125.11</ele><time>2011-05-31T15:13:12Z</time></trkpt><trkpt lat="49.752075" lon="6.627923"><ele>125.11</ele><time>2011-05-31T15:13:14Z</time></trkpt><trkpt lat="49.751320" lon="6.627842"><ele>124.63</ele><time>2011-05-31T15:13:32Z</time></trkpt><trkpt lat="49.750763" lon="6.627744"><ele>125.59</ele><time>2011-05-31T15:13:46Z</time></trkpt><trkpt lat="49.749962" lon="6.627581"><ele>125.11</ele><time>2011-05-31T15:14:05Z</time></trkpt><trkpt lat="49.749207" lon="6.627488"><ele>125.11</ele><time>2011-05-31T15:14:23Z</time></trkpt><trkpt lat="49.748356" lon="6.627450"><ele>125.11</ele><time>2011-05-31T15:14:43Z</time></trkpt><trkpt lat="49.747395" lon="6.627487"><ele>125.11</ele><time>2011-05-31T15:15:04Z</time></trkpt><trkpt lat="49.746441" lon="6.627577"><ele>125.11</ele><time>2011-05-31T15:15:24Z</time></trkpt><trkpt lat="49.745403" lon="6.627688"><ele>125.11</ele><time>2011-05-31T15:15:46Z</time></trkpt><trkpt lat="49.745029" lon="6.627750"><ele>125.59</ele><time>2011-05-31T15:15:54Z</time></trkpt><trkpt lat="49.744373" lon="6.627837"><ele>125.11</ele><time>2011-05-31T15:16:09Z</time></trkpt><trkpt lat="49.743900" lon="6.627893"><ele>125.11</ele><time>2011-05-31T15:16:20Z</time></trkpt><trkpt lat="49.743858" lon="6.627900"><ele>125.11</ele><time>2011-05-31T15:16:21Z</time></trkpt><trkpt lat="49.743816" lon="6.627907"><ele>124.63</ele><time>2011-05-31T15:16:22Z</time></trkpt><trkpt lat="49.743061" lon="6.627969"><ele>125.11</ele><time>2011-05-31T15:16:39Z</time></trkpt><trkpt lat="49.742172" lon="6.628064"><ele>124.63</ele><time>2011-05-31T15:16:59Z</time></trkpt><trkpt lat="49.742001" lon="6.628089"><ele>125.11</ele><time>2011-05-31T15:17:03Z</time></trkpt><trkpt lat="49.741959" lon="6.628095"><ele>125.11</ele><time>2011-05-31T15:17:04Z</time></trkpt><trkpt lat="49.741394" lon="6.628129"><ele>124.63</ele><time>2011-05-31T15:17:20Z</time></trkpt><trkpt lat="49.740818" lon="6.628183"><ele>125.11</ele><time>2011-05-31T15:17:39Z</time></trkpt><trkpt lat="49.740677" lon="6.628268"><ele>127.51</ele><time>2011-05-31T15:17:45Z</time></trkpt><trkpt lat="49.740623" lon="6.628289"><ele>128.47</ele><time>2011-05-31T15:17:48Z</time></trkpt><trkpt lat="49.740501" lon="6.628322"><ele>128.95</ele><time>2011-05-31T15:17:56Z</time></trkpt><trkpt lat="49.740490" lon="6.628310"><ele>128.95</ele><time>2011-05-31T15:17:57Z</time></trkpt><trkpt lat="49.740475" lon="6.628297"><ele>128.95</ele><time>2011-05-31T15:17:58Z</time></trkpt><trkpt lat="49.740459" lon="6.628284"><ele>128.95</ele><time>2011-05-31T15:17:59Z</time></trkpt><trkpt lat="49.740437" lon="6.628273"><ele>128.95</ele><time>2011-05-31T15:18:00Z</time></trkpt><trkpt lat="49.740414" lon="6.628264"><ele>129.43</ele><time>2011-05-31T15:18:01Z</time></trkpt><trkpt lat="49.740059" lon="6.628258"><ele>128.47</ele><time>2011-05-31T15:18:15Z</time></trkpt><trkpt lat="49.739635" lon="6.628390"><ele>129.43</ele><time>2011-05-31T15:18:31Z</time></trkpt><trkpt lat="49.739174" lon="6.628438"><ele>129.43</ele><time>2011-05-31T15:18:48Z</time></trkpt><trkpt lat="49.738758" lon="6.628273"><ele>129.43</ele><time>2011-05-31T15:19:02Z</time></trkpt><trkpt lat="49.738266" lon="6.628209"><ele>128.95</ele><time>2011-05-31T15:19:16Z</time></trkpt><trkpt lat="49.737610" lon="6.628229"><ele>128.47</ele><time>2011-05-31T15:19:33Z</time></trkpt><trkpt lat="49.736912" lon="6.628189"><ele>128.47</ele><time>2011-05-31T15:19:51Z</time></trkpt><trkpt lat="49.736263" lon="6.628093"><ele>128.95</ele><time>2011-05-31T15:20:08Z</time></trkpt><trkpt lat="49.735569" lon="6.627967"><ele>128.95</ele><time>2011-05-31T15:20:25Z</time></trkpt><trkpt lat="49.734875" lon="6.627831"><ele>128.47</ele><time>2011-05-31T15:20:42Z</time></trkpt><trkpt lat="49.734634" lon="6.627772"><ele>128.47</ele><time>2011-05-31T15:20:48Z</time></trkpt><trkpt lat="49.734592" lon="6.627766"><ele>128.95</ele><time>2011-05-31T15:20:49Z</time></trkpt><trkpt lat="49.733871" lon="6.627609"><ele>128.47</ele><time>2011-05-31T15:21:07Z</time></trkpt><trkpt lat="49.733196" lon="6.627424"><ele>127.99</ele><time>2011-05-31T15:21:24Z</time></trkpt><trkpt lat="49.732521" lon="6.627239"><ele>128.47</ele><time>2011-05-31T15:21:41Z</time></trkpt><trkpt lat="49.731915" lon="6.627028"><ele>128.95</ele><time>2011-05-31T15:21:57Z</time></trkpt><trkpt lat="49.731323" lon="6.626805"><ele>128.95</ele><time>2011-05-31T15:22:13Z</time></trkpt><trkpt lat="49.730762" lon="6.626596"><ele>129.92</ele><time>2011-05-31T15:22:30Z</time></trkpt><trkpt lat="49.730396" lon="6.626301"><ele>129.43</ele><time>2011-05-31T15:22:43Z</time></trkpt><trkpt lat="49.730221" lon="6.626178"><ele>128.95</ele><time>2011-05-31T15:22:48Z</time></trkpt><trkpt lat="49.729534" lon="6.625803"><ele>128.47</ele><time>2011-05-31T15:23:04Z</time></trkpt><trkpt lat="49.729496" lon="6.625785"><ele>128.95</ele><time>2011-05-31T15:23:05Z</time></trkpt><trkpt lat="49.729332" lon="6.625732"><ele>128.47</ele><time>2011-05-31T15:23:09Z</time></trkpt><trkpt lat="49.728863" lon="6.625659"><ele>128.95</ele><time>2011-05-31T15:23:21Z</time></trkpt><trkpt lat="49.728825" lon="6.625659"><ele>128.95</ele><time>2011-05-31T15:23:22Z</time></trkpt><trkpt lat="49.728611" lon="6.625635"><ele>128.95</ele><time>2011-05-31T15:23:27Z</time></trkpt><trkpt lat="49.728302" lon="6.625448"><ele>128.95</ele><time>2011-05-31T15:23:35Z</time></trkpt><trkpt lat="49.728256" lon="6.625434"><ele>128.95</ele><time>2011-05-31T15:23:36Z</time></trkpt><trkpt lat="49.728214" lon="6.625427"><ele>128.95</ele><time>2011-05-31T15:23:37Z</time></trkpt><trkpt lat="49.727951" lon="6.625428"><ele>128.95</ele><time>2011-05-31T15:23:43Z</time></trkpt><trkpt lat="49.727905" lon="6.625419"><ele>128.47</ele><time>2011-05-31T15:23:44Z</time></trkpt><trkpt lat="49.727859" lon="6.625401"><ele>128.47</ele><time>2011-05-31T15:23:45Z</time></trkpt><trkpt lat="49.727814" lon="6.625370"><ele>128.95</ele><time>2011-05-31T15:23:46Z</time></trkpt><trkpt lat="49.727776" lon="6.625335"><ele>128.95</ele><time>2011-05-31T15:23:47Z</time></trkpt><trkpt lat="49.727737" lon="6.625298"><ele>128.95</ele><time>2011-05-31T15:23:48Z</time></trkpt><trkpt lat="49.727409" lon="6.624939"><ele>128.95</ele><time>2011-05-31T15:23:57Z</time></trkpt><trkpt lat="49.727249" lon="6.624634"><ele>128.47</ele><time>2011-05-31T15:24:02Z</time></trkpt><trkpt lat="49.727158" lon="6.624444"><ele>127.99</ele><time>2011-05-31T15:24:05Z</time></trkpt><trkpt lat="49.726757" lon="6.623846"><ele>127.99</ele><time>2011-05-31T15:24:16Z</time></trkpt><trkpt lat="49.725994" lon="6.623222"><ele>127.99</ele><time>2011-05-31T15:24:33Z</time></trkpt><trkpt lat="49.725304" lon="6.622622"><ele>128.47</ele><time>2011-05-31T15:24:49Z</time></trkpt><trkpt lat="49.724682" lon="6.621850"><ele>127.99</ele><time>2011-05-31T15:25:05Z</time></trkpt><trkpt lat="49.724064" lon="6.621006"><ele>127.99</ele><time>2011-05-31T15:25:22Z</time></trkpt><trkpt lat="49.723488" lon="6.620090"><ele>127.99</ele><time>2011-05-31T15:25:39Z</time></trkpt><trkpt lat="49.723331" lon="6.619802"><ele>127.99</ele><time>2011-05-31T15:25:44Z</time></trkpt><trkpt lat="49.722816" lon="6.619182"><ele>127.99</ele><time>2011-05-31T15:25:58Z</time></trkpt><trkpt lat="49.722233" lon="6.618392"><ele>127.99</ele><time>2011-05-31T15:26:14Z</time></trkpt><trkpt lat="49.721775" lon="6.617681"><ele>127.51</ele><time>2011-05-31T15:26:27Z</time></trkpt><trkpt lat="49.721176" lon="6.616739"><ele>127.03</ele><time>2011-05-31T15:26:44Z</time></trkpt><trkpt lat="49.720531" lon="6.615743"><ele>127.51</ele><time>2011-05-31T15:27:03Z</time></trkpt><trkpt lat="49.719959" lon="6.614847"><ele>127.03</ele><time>2011-05-31T15:27:20Z</time></trkpt><trkpt lat="49.719383" lon="6.613947"><ele>127.51</ele><time>2011-05-31T15:27:37Z</time></trkpt><trkpt lat="49.718845" lon="6.613045"><ele>127.51</ele><time>2011-05-31T15:27:54Z</time></trkpt><trkpt lat="49.718815" lon="6.612992"><ele>127.51</ele><time>2011-05-31T15:27:55Z</time></trkpt><trkpt lat="49.718784" lon="6.612934"><ele>127.03</ele><time>2011-05-31T15:27:56Z</time></trkpt><trkpt lat="49.718754" lon="6.612875"><ele>127.03</ele><time>2011-05-31T15:27:57Z</time></trkpt><trkpt lat="49.718723" lon="6.612820"><ele>127.03</ele><time>2011-05-31T15:27:58Z</time></trkpt><trkpt lat="49.718693" lon="6.612767"><ele>127.03</ele><time>2011-05-31T15:27:59Z</time></trkpt><trkpt lat="49.718182" lon="6.611734"><ele>127.99</ele><time>2011-05-31T15:28:17Z</time></trkpt><trkpt lat="49.717705" lon="6.610700"><ele>127.99</ele><time>2011-05-31T15:28:34Z</time></trkpt><trkpt lat="49.717434" lon="6.610104"><ele>127.99</ele><time>2011-05-31T15:28:44Z</time></trkpt><trkpt lat="49.717293" lon="6.609763"><ele>127.51</ele><time>2011-05-31T15:28:50Z</time></trkpt><trkpt lat="49.717049" lon="6.608995"><ele>126.55</ele><time>2011-05-31T15:29:01Z</time></trkpt><trkpt lat="49.716919" lon="6.608613"><ele>126.07</ele><time>2011-05-31T15:29:07Z</time></trkpt><trkpt lat="49.716660" lon="6.607793"><ele>126.55</ele><time>2011-05-31T15:29:20Z</time></trkpt><trkpt lat="49.716599" lon="6.607600"><ele>126.07</ele><time>2011-05-31T15:29:23Z</time></trkpt><trkpt lat="49.716576" lon="6.607537"><ele>126.55</ele><time>2011-05-31T15:29:24Z</time></trkpt><trkpt lat="49.716557" lon="6.607471"><ele>126.55</ele><time>2011-05-31T15:29:25Z</time></trkpt><trkpt lat="49.716324" lon="6.606694"><ele>126.55</ele><time>2011-05-31T15:29:37Z</time></trkpt><trkpt lat="49.715996" lon="6.605672"><ele>126.55</ele><time>2011-05-31T15:29:53Z</time></trkpt><trkpt lat="49.715729" lon="6.604789"><ele>126.07</ele><time>2011-05-31T15:30:08Z</time></trkpt><trkpt lat="49.715530" lon="6.604157"><ele>126.55</ele><time>2011-05-31T15:30:21Z</time></trkpt><trkpt lat="49.715275" lon="6.603332"><ele>126.07</ele><time>2011-05-31T15:30:36Z</time></trkpt><trkpt lat="49.715057" lon="6.602643"><ele>126.07</ele><time>2011-05-31T15:30:48Z</time></trkpt><trkpt lat="49.714737" lon="6.601638"><ele>126.07</ele><time>2011-05-31T15:31:05Z</time></trkpt><trkpt lat="49.714561" lon="6.601092"><ele>125.59</ele><time>2011-05-31T15:31:14Z</time></trkpt><trkpt lat="49.714340" lon="6.600380"><ele>125.59</ele><time>2011-05-31T15:31:28Z</time></trkpt><trkpt lat="49.714241" lon="6.600019"><ele>126.07</ele><time>2011-05-31T15:31:42Z</time></trkpt><trkpt lat="49.714241" lon="6.600019"><ele>126.07</ele><time>2011-05-31T15:32:16Z</time></trkpt><trkpt lat="49.714172" lon="6.599802"><ele>126.07</ele><time>2011-05-31T15:32:26Z</time></trkpt><trkpt lat="49.713913" lon="6.599000"><ele>126.07</ele><time>2011-05-31T15:32:41Z</time></trkpt><trkpt lat="49.713596" lon="6.597993"><ele>126.07</ele><time>2011-05-31T15:32:58Z</time></trkpt><trkpt lat="49.713295" lon="6.597046"><ele>126.07</ele><time>2011-05-31T15:33:14Z</time></trkpt><trkpt lat="49.712917" lon="6.595819"><ele>126.07</ele><time>2011-05-31T15:33:34Z</time></trkpt><trkpt lat="49.712898" lon="6.595759"><ele>126.07</ele><time>2011-05-31T15:33:35Z</time></trkpt><trkpt lat="49.712490" lon="6.594480"><ele>126.07</ele><time>2011-05-31T15:33:56Z</time></trkpt><trkpt lat="49.712341" lon="6.593981"><ele>126.07</ele><time>2011-05-31T15:34:04Z</time></trkpt><trkpt lat="49.712036" lon="6.593003"><ele>126.07</ele><time>2011-05-31T15:34:20Z</time></trkpt><trkpt lat="49.711712" lon="6.591956"><ele>126.55</ele><time>2011-05-31T15:34:37Z</time></trkpt><trkpt lat="49.711609" lon="6.591647"><ele>126.55</ele><time>2011-05-31T15:34:42Z</time></trkpt><trkpt lat="49.711494" lon="6.591282"><ele>126.55</ele><time>2011-05-31T15:34:48Z</time></trkpt><trkpt lat="49.711197" lon="6.590320"><ele>126.55</ele><time>2011-05-31T15:35:03Z</time></trkpt><trkpt lat="49.711174" lon="6.590259"><ele>126.07</ele><time>2011-05-31T15:35:04Z</time></trkpt><trkpt lat="49.711159" lon="6.590194"><ele>126.55</ele><time>2011-05-31T15:35:05Z</time></trkpt><trkpt lat="49.710804" lon="6.589053"><ele>126.55</ele><time>2011-05-31T15:35:23Z</time></trkpt><trkpt lat="49.710762" lon="6.588924"><ele>126.07</ele><time>2011-05-31T15:35:25Z</time></trkpt><trkpt lat="49.710720" lon="6.588797"><ele>126.55</ele><time>2011-05-31T15:35:27Z</time></trkpt><trkpt lat="49.710487" lon="6.588020"><ele>126.55</ele><time>2011-05-31T15:35:42Z</time></trkpt><trkpt lat="49.710384" lon="6.587721"><ele>127.03</ele><time>2011-05-31T15:35:57Z</time></trkpt><trkpt lat="49.710354" lon="6.587682"><ele>126.55</ele><time>2011-05-31T15:36:28Z</time></trkpt><trkpt lat="49.710213" lon="6.587147"><ele>126.55</ele><time>2011-05-31T15:36:40Z</time></trkpt><trkpt lat="49.709911" lon="6.586223"><ele>127.03</ele><time>2011-05-31T15:36:57Z</time></trkpt><trkpt lat="49.709637" lon="6.585352"><ele>127.03</ele><time>2011-05-31T15:37:13Z</time></trkpt><trkpt lat="49.709301" lon="6.584238"><ele>127.03</ele><time>2011-05-31T15:37:33Z</time></trkpt><trkpt lat="49.709042" lon="6.583400"><ele>127.03</ele><time>2011-05-31T15:37:48Z</time></trkpt><trkpt lat="49.708702" lon="6.582303"><ele>127.03</ele><time>2011-05-31T15:38:08Z</time></trkpt><trkpt lat="49.708485" lon="6.581649"><ele>126.55</ele><time>2011-05-31T15:38:20Z</time></trkpt><trkpt lat="49.708149" lon="6.580535"><ele>126.55</ele><time>2011-05-31T15:38:39Z</time></trkpt><trkpt lat="49.707760" lon="6.579369"><ele>126.55</ele><time>2011-05-31T15:39:00Z</time></trkpt><trkpt lat="49.707714" lon="6.579260"><ele>127.03</ele><time>2011-05-31T15:39:02Z</time></trkpt><trkpt lat="49.707638" lon="6.579032"><ele>126.55</ele><time>2011-05-31T15:39:06Z</time></trkpt><trkpt lat="49.707615" lon="6.578984"><ele>126.55</ele><time>2011-05-31T15:39:07Z</time></trkpt><trkpt lat="49.707588" lon="6.578944"><ele>127.03</ele><time>2011-05-31T15:39:08Z</time></trkpt><trkpt lat="49.707561" lon="6.578910"><ele>126.55</ele><time>2011-05-31T15:39:09Z</time></trkpt><trkpt lat="49.707531" lon="6.578882"><ele>126.55</ele><time>2011-05-31T15:39:10Z</time></trkpt><trkpt lat="49.707081" lon="6.578694"><ele>126.55</ele><time>2011-05-31T15:39:21Z</time></trkpt><trkpt lat="49.707039" lon="6.578661"><ele>126.55</ele><time>2011-05-31T15:39:22Z</time></trkpt><trkpt lat="49.707001" lon="6.578623"><ele>126.55</ele><time>2011-05-31T15:39:23Z</time></trkpt><trkpt lat="49.706970" lon="6.578581"><ele>126.55</ele><time>2011-05-31T15:39:24Z</time></trkpt><trkpt lat="49.706940" lon="6.578532"><ele>126.55</ele><time>2011-05-31T15:39:25Z</time></trkpt><trkpt lat="49.706913" lon="6.578480"><ele>127.51</ele><time>2011-05-31T15:39:26Z</time></trkpt><trkpt lat="49.706409" lon="6.577546"><ele>127.03</ele><time>2011-05-31T15:39:45Z</time></trkpt><trkpt lat="49.705929" lon="6.576762"><ele>127.03</ele><time>2011-05-31T15:40:03Z</time></trkpt><trkpt lat="49.705513" lon="6.576116"><ele>127.51</ele><time>2011-05-31T15:40:20Z</time></trkpt><trkpt lat="49.705662" lon="6.575565"><ele>126.55</ele><time>2011-05-31T15:40:32Z</time></trkpt><trkpt lat="49.705563" lon="6.575057"><ele>126.55</ele><time>2011-05-31T15:40:42Z</time></trkpt><trkpt lat="49.705086" lon="6.574362"><ele>126.55</ele><time>2011-05-31T15:40:58Z</time></trkpt><trkpt lat="49.705029" lon="6.574268"><ele>126.55</ele><time>2011-05-31T15:41:00Z</time></trkpt><trkpt lat="49.704651" lon="6.573935"><ele>127.03</ele><time>2011-05-31T15:41:13Z</time></trkpt><trkpt lat="49.704403" lon="6.574146"><ele>127.03</ele><time>2011-05-31T15:41:27Z</time></trkpt><trkpt lat="49.704376" lon="6.574148"><ele>126.55</ele><time>2011-05-31T15:41:43Z</time></trkpt><trkpt lat="49.704269" lon="6.574064"><ele>127.03</ele><time>2011-05-31T15:41:51Z</time></trkpt><trkpt lat="49.704220" lon="6.573966"><ele>127.03</ele><time>2011-05-31T15:41:56Z</time></trkpt><trkpt lat="49.703949" lon="6.573634"><ele>126.55</ele><time>2011-05-31T15:42:11Z</time></trkpt><trkpt lat="49.703655" lon="6.573292"><ele>127.03</ele><time>2011-05-31T15:42:25Z</time></trkpt><trkpt lat="49.703327" lon="6.572935"><ele>126.55</ele><time>2011-05-31T15:42:41Z</time></trkpt><trkpt lat="49.703316" lon="6.572620"><ele>126.55</ele><time>2011-05-31T15:42:51Z</time></trkpt><trkpt lat="49.703373" lon="6.572651"><ele>126.55</ele><time>2011-05-31T15:42:54Z</time></trkpt><trkpt lat="49.703716" lon="6.572990"><ele>126.55</ele><time>2011-05-31T15:43:07Z</time></trkpt><trkpt lat="49.704044" lon="6.573372"><ele>126.55</ele><time>2011-05-31T15:43:22Z</time></trkpt><trkpt lat="49.704327" lon="6.573730"><ele>127.03</ele><time>2011-05-31T15:43:36Z</time></trkpt><trkpt lat="49.704311" lon="6.574076"><ele>127.03</ele><time>2011-05-31T15:43:47Z</time></trkpt><trkpt lat="49.704323" lon="6.574099"><ele>127.03</ele><time>2011-05-31T15:43:49Z</time></trkpt><trkpt lat="49.704399" lon="6.574150"><ele>127.03</ele><time>2011-05-31T15:43:54Z</time></trkpt><trkpt lat="49.704548" lon="6.574196"><ele>127.03</ele><time>2011-05-31T15:44:07Z</time></trkpt><trkpt lat="49.704548" lon="6.574196"><ele>127.03</ele><time>2011-05-31T15:44:36Z</time></trkpt><trkpt lat="49.704556" lon="6.574236"><ele>126.55</ele><time>2011-05-31T15:44:52Z</time></trkpt><trkpt lat="49.704330" lon="6.574592"><ele>122.22</ele><time>2011-05-31T16:36:31Z</time></trkpt><trkpt lat="49.704395" lon="6.574590"><ele>124.15</ele><time>2011-05-31T16:36:51Z</time></trkpt><trkpt lat="49.704399" lon="6.574558"><ele>125.11</ele><time>2011-05-31T16:36:58Z</time></trkpt><trkpt lat="49.704384" lon="6.574540"><ele>126.55</ele><time>2011-05-31T16:37:07Z</time></trkpt></trkseg></trk></gpx>